<?xml version="1.0" encoding="UTF-8" standalone="no" ?>
<gpx xmlns="http://www.topografix.com/GPX/1/1" xmlns:xsi="http://www.w3.org/2001/XMLSchema-instance" xsi:schemaLocation="http://www.topografix.com/GPX/1/1 http://www.topografix.com/GPX/1/1/gpx.xsd" version="1.1" creator="VisuGPX - https://www.visugpx.com">
  <metadata>
    <name>TreguierPerros53</name>
  </metadata>
  <trk>
    <name><![CDATA[L]]></name>
    <extensions>
      <line xmlns="http://www.topografix.com/GPX/gpx_style/0/2">
        <color>0000FF</color>
        <width>5</width>
      </line>
    </extensions>
    <trkseg>
      <trkpt lat="48.78707" lon="-3.22421">
        <ele>6</ele>
        <time>2021-03-26T11:14:07.000Z</time>
      </trkpt>
      <trkpt lat="48.78701" lon="-3.22409">
        <ele>5</ele>
        <time>2021-03-26T11:14:09.000Z</time>
      </trkpt>
      <trkpt lat="48.78699" lon="-3.224">
        <ele>5</ele>
        <time>2021-03-26T11:14:10.000Z</time>
      </trkpt>
      <trkpt lat="48.78746" lon="-3.22435">
        <ele>5</ele>
        <time>2021-03-26T11:14:19.000Z</time>
      </trkpt>
      <trkpt lat="48.7879" lon="-3.22475">
        <ele>5</ele>
        <time>2021-03-26T11:14:28.000Z</time>
      </trkpt>
      <trkpt lat="48.78822" lon="-3.22507">
        <ele>5</ele>
        <time>2021-03-26T11:14:35.000Z</time>
      </trkpt>
      <trkpt lat="48.78863" lon="-3.22555">
        <ele>5</ele>
        <time>2021-03-26T11:14:44.000Z</time>
      </trkpt>
      <trkpt lat="48.78855" lon="-3.22594">
        <ele>7</ele>
        <time>2021-03-26T11:14:49.000Z</time>
      </trkpt>
      <trkpt lat="48.7885" lon="-3.22631">
        <ele>9</ele>
        <time>2021-03-26T11:14:54.000Z</time>
      </trkpt>
      <trkpt lat="48.78847" lon="-3.22674">
        <ele>12</ele>
        <time>2021-03-26T11:14:59.000Z</time>
      </trkpt>
      <trkpt lat="48.78847" lon="-3.22711">
        <ele>15</ele>
        <time>2021-03-26T11:15:03.000Z</time>
      </trkpt>
      <trkpt lat="48.78855" lon="-3.22797">
        <ele>20</ele>
        <time>2021-03-26T11:15:13.000Z</time>
      </trkpt>
      <trkpt lat="48.78849" lon="-3.22849">
        <ele>25</ele>
        <time>2021-03-26T11:15:19.000Z</time>
      </trkpt>
      <trkpt lat="48.78845" lon="-3.22862">
        <ele>26</ele>
        <time>2021-03-26T11:15:21.000Z</time>
      </trkpt>
      <trkpt lat="48.78805" lon="-3.22916">
        <ele>30</ele>
        <time>2021-03-26T11:15:31.000Z</time>
      </trkpt>
      <trkpt lat="48.788" lon="-3.22922">
        <ele>30</ele>
        <time>2021-03-26T11:15:32.000Z</time>
      </trkpt>
      <trkpt lat="48.78797" lon="-3.22934">
        <ele>30</ele>
        <time>2021-03-26T11:15:33.000Z</time>
      </trkpt>
      <trkpt lat="48.78796" lon="-3.2294">
        <ele>30</ele>
        <time>2021-03-26T11:15:34.000Z</time>
      </trkpt>
      <trkpt lat="48.78796" lon="-3.22954">
        <ele>31</ele>
        <time>2021-03-26T11:15:36.000Z</time>
      </trkpt>
      <trkpt lat="48.78798" lon="-3.22976">
        <ele>31</ele>
        <time>2021-03-26T11:15:38.000Z</time>
      </trkpt>
      <trkpt lat="48.78798" lon="-3.22984">
        <ele>31</ele>
        <time>2021-03-26T11:15:39.000Z</time>
      </trkpt>
      <trkpt lat="48.78789" lon="-3.23012">
        <ele>33</ele>
        <time>2021-03-26T11:15:43.000Z</time>
      </trkpt>
      <trkpt lat="48.78786" lon="-3.23022">
        <ele>33</ele>
        <time>2021-03-26T11:15:44.000Z</time>
      </trkpt>
      <trkpt lat="48.78782" lon="-3.23025">
        <ele>34</ele>
        <time>2021-03-26T11:15:45.000Z</time>
      </trkpt>
      <trkpt lat="48.78779" lon="-3.23027">
        <ele>34</ele>
        <time>2021-03-26T11:15:45.000Z</time>
      </trkpt>
      <trkpt lat="48.78734" lon="-3.23016">
        <ele>35</ele>
        <time>2021-03-26T11:15:54.000Z</time>
      </trkpt>
      <trkpt lat="48.78727" lon="-3.23069">
        <ele>39</ele>
        <time>2021-03-26T11:16:00.000Z</time>
      </trkpt>
      <trkpt lat="48.78721" lon="-3.23072">
        <ele>40</ele>
        <time>2021-03-26T11:16:01.000Z</time>
      </trkpt>
      <trkpt lat="48.78715" lon="-3.23088">
        <ele>41</ele>
        <time>2021-03-26T11:16:03.000Z</time>
      </trkpt>
      <trkpt lat="48.78711" lon="-3.23125">
        <ele>42</ele>
        <time>2021-03-26T11:16:08.000Z</time>
      </trkpt>
      <trkpt lat="48.78712" lon="-3.23134">
        <ele>42</ele>
        <time>2021-03-26T11:16:09.000Z</time>
      </trkpt>
      <trkpt lat="48.7872" lon="-3.23143">
        <ele>42</ele>
        <time>2021-03-26T11:16:10.000Z</time>
      </trkpt>
      <trkpt lat="48.78752" lon="-3.23149">
        <ele>41</ele>
        <time>2021-03-26T11:16:16.000Z</time>
      </trkpt>
      <trkpt lat="48.78764" lon="-3.23151">
        <ele>40</ele>
        <time>2021-03-26T11:16:18.000Z</time>
      </trkpt>
      <trkpt lat="48.78771" lon="-3.23149">
        <ele>40</ele>
        <time>2021-03-26T11:16:20.000Z</time>
      </trkpt>
      <trkpt lat="48.78774" lon="-3.23146">
        <ele>39</ele>
        <time>2021-03-26T11:16:20.000Z</time>
      </trkpt>
      <trkpt lat="48.7878" lon="-3.23167">
        <ele>39</ele>
        <time>2021-03-26T11:16:23.000Z</time>
      </trkpt>
      <trkpt lat="48.7878" lon="-3.23173">
        <ele>39</ele>
        <time>2021-03-26T11:16:24.000Z</time>
      </trkpt>
      <trkpt lat="48.78733" lon="-3.2327">
        <ele>41</ele>
        <time>2021-03-26T11:16:38.000Z</time>
      </trkpt>
      <trkpt lat="48.78816" lon="-3.23324">
        <ele>35</ele>
        <time>2021-03-26T11:16:54.000Z</time>
      </trkpt>
      <trkpt lat="48.78823" lon="-3.23334">
        <ele>34</ele>
        <time>2021-03-26T11:16:55.000Z</time>
      </trkpt>
      <trkpt lat="48.78827" lon="-3.23342">
        <ele>33</ele>
        <time>2021-03-26T11:16:57.000Z</time>
      </trkpt>
      <trkpt lat="48.78828" lon="-3.23391">
        <ele>29</ele>
        <time>2021-03-26T11:17:02.000Z</time>
      </trkpt>
      <trkpt lat="48.78822" lon="-3.23415">
        <ele>28</ele>
        <time>2021-03-26T11:17:05.000Z</time>
      </trkpt>
      <trkpt lat="48.78823" lon="-3.23427">
        <ele>27</ele>
        <time>2021-03-26T11:17:07.000Z</time>
      </trkpt>
      <trkpt lat="48.78816" lon="-3.23481">
        <ele>24</ele>
        <time>2021-03-26T11:17:13.000Z</time>
      </trkpt>
      <trkpt lat="48.78802" lon="-3.23521">
        <ele>25</ele>
        <time>2021-03-26T11:17:19.000Z</time>
      </trkpt>
      <trkpt lat="48.78799" lon="-3.23536">
        <ele>25</ele>
        <time>2021-03-26T11:17:20.000Z</time>
      </trkpt>
      <trkpt lat="48.78798" lon="-3.23563">
        <ele>25</ele>
        <time>2021-03-26T11:17:24.000Z</time>
      </trkpt>
      <trkpt lat="48.78801" lon="-3.23574">
        <ele>25</ele>
        <time>2021-03-26T11:17:25.000Z</time>
      </trkpt>
      <trkpt lat="48.78836" lon="-3.23663">
        <ele>24</ele>
        <time>2021-03-26T11:17:37.000Z</time>
      </trkpt>
      <trkpt lat="48.78868" lon="-3.23713">
        <ele>18</ele>
        <time>2021-03-26T11:17:45.000Z</time>
      </trkpt>
      <trkpt lat="48.7888" lon="-3.23727">
        <ele>15</ele>
        <time>2021-03-26T11:17:48.000Z</time>
      </trkpt>
      <trkpt lat="48.78895" lon="-3.23743">
        <ele>12</ele>
        <time>2021-03-26T11:17:51.000Z</time>
      </trkpt>
      <trkpt lat="48.78914" lon="-3.23751">
        <ele>7</ele>
        <time>2021-03-26T11:17:55.000Z</time>
      </trkpt>
      <trkpt lat="48.78932" lon="-3.23755">
        <ele>8</ele>
        <time>2021-03-26T11:17:58.000Z</time>
      </trkpt>
      <trkpt lat="48.78945" lon="-3.23755">
        <ele>8</ele>
        <time>2021-03-26T11:18:00.000Z</time>
      </trkpt>
      <trkpt lat="48.78955" lon="-3.23748">
        <ele>3</ele>
        <time>2021-03-26T11:18:02.000Z</time>
      </trkpt>
      <trkpt lat="48.78973" lon="-3.23737">
        <ele>3</ele>
        <time>2021-03-26T11:18:06.000Z</time>
      </trkpt>
      <trkpt lat="48.78979" lon="-3.23727">
        <ele>3</ele>
        <time>2021-03-26T11:18:07.000Z</time>
      </trkpt>
      <trkpt lat="48.78979" lon="-3.23723">
        <ele>3</ele>
        <time>2021-03-26T11:18:08.000Z</time>
      </trkpt>
      <trkpt lat="48.78962" lon="-3.2362">
        <ele>4</ele>
        <time>2021-03-26T11:18:20.000Z</time>
      </trkpt>
      <trkpt lat="48.78965" lon="-3.23614">
        <ele>5</ele>
        <time>2021-03-26T11:18:21.000Z</time>
      </trkpt>
      <trkpt lat="48.78988" lon="-3.23606">
        <ele>6</ele>
        <time>2021-03-26T11:18:25.000Z</time>
      </trkpt>
      <trkpt lat="48.78983" lon="-3.23583">
        <ele>8</ele>
        <time>2021-03-26T11:18:28.000Z</time>
      </trkpt>
      <trkpt lat="48.78977" lon="-3.23555">
        <ele>8</ele>
        <time>2021-03-26T11:18:32.000Z</time>
      </trkpt>
      <trkpt lat="48.78978" lon="-3.2354">
        <ele>9</ele>
        <time>2021-03-26T11:18:33.000Z</time>
      </trkpt>
      <trkpt lat="48.78984" lon="-3.2351">
        <ele>10</ele>
        <time>2021-03-26T11:18:37.000Z</time>
      </trkpt>
      <trkpt lat="48.79014" lon="-3.23444">
        <ele>12</ele>
        <time>2021-03-26T11:18:46.000Z</time>
      </trkpt>
      <trkpt lat="48.7902" lon="-3.23442">
        <ele>13</ele>
        <time>2021-03-26T11:18:48.000Z</time>
      </trkpt>
      <trkpt lat="48.79021" lon="-3.23458">
        <ele>13</ele>
        <time>2021-03-26T11:18:49.000Z</time>
      </trkpt>
      <trkpt lat="48.79024" lon="-3.23485">
        <ele>14</ele>
        <time>2021-03-26T11:18:53.000Z</time>
      </trkpt>
      <trkpt lat="48.79028" lon="-3.23505">
        <ele>15</ele>
        <time>2021-03-26T11:18:55.000Z</time>
      </trkpt>
      <trkpt lat="48.79035" lon="-3.23527">
        <ele>15</ele>
        <time>2021-03-26T11:18:58.000Z</time>
      </trkpt>
      <trkpt lat="48.79047" lon="-3.23549">
        <ele>15</ele>
        <time>2021-03-26T11:19:01.000Z</time>
      </trkpt>
      <trkpt lat="48.7906" lon="-3.23566">
        <ele>15</ele>
        <time>2021-03-26T11:19:04.000Z</time>
      </trkpt>
      <trkpt lat="48.79064" lon="-3.23571">
        <ele>15</ele>
        <time>2021-03-26T11:19:05.000Z</time>
      </trkpt>
      <trkpt lat="48.79067" lon="-3.23573">
        <ele>15</ele>
        <time>2021-03-26T11:19:06.000Z</time>
      </trkpt>
      <trkpt lat="48.79091" lon="-3.23591">
        <ele>16</ele>
        <time>2021-03-26T11:19:11.000Z</time>
      </trkpt>
      <trkpt lat="48.79101" lon="-3.236">
        <ele>16</ele>
        <time>2021-03-26T11:19:13.000Z</time>
      </trkpt>
      <trkpt lat="48.79133" lon="-3.23642">
        <ele>14</ele>
        <time>2021-03-26T11:19:20.000Z</time>
      </trkpt>
      <trkpt lat="48.79167" lon="-3.23691">
        <ele>10</ele>
        <time>2021-03-26T11:19:29.000Z</time>
      </trkpt>
      <trkpt lat="48.79169" lon="-3.23693">
        <ele>11</ele>
        <time>2021-03-26T11:19:29.000Z</time>
      </trkpt>
      <trkpt lat="48.79178" lon="-3.23705">
        <ele>11</ele>
        <time>2021-03-26T11:19:31.000Z</time>
      </trkpt>
      <trkpt lat="48.79193" lon="-3.23722">
        <ele>11</ele>
        <time>2021-03-26T11:19:34.000Z</time>
      </trkpt>
      <trkpt lat="48.79207" lon="-3.23746">
        <ele>10</ele>
        <time>2021-03-26T11:19:38.000Z</time>
      </trkpt>
      <trkpt lat="48.7921" lon="-3.23751">
        <ele>10</ele>
        <time>2021-03-26T11:19:39.000Z</time>
      </trkpt>
      <trkpt lat="48.7921" lon="-3.23768">
        <ele>10</ele>
        <time>2021-03-26T11:19:41.000Z</time>
      </trkpt>
      <trkpt lat="48.79209" lon="-3.23782">
        <ele>10</ele>
        <time>2021-03-26T11:19:43.000Z</time>
      </trkpt>
      <trkpt lat="48.79226" lon="-3.23786">
        <ele>12</ele>
        <time>2021-03-26T11:19:46.000Z</time>
      </trkpt>
      <trkpt lat="48.79324" lon="-3.23857">
        <ele>21</ele>
        <time>2021-03-26T11:20:05.000Z</time>
      </trkpt>
      <trkpt lat="48.79359" lon="-3.23885">
        <ele>28</ele>
        <time>2021-03-26T11:20:12.000Z</time>
      </trkpt>
      <trkpt lat="48.79359" lon="-3.23899">
        <ele>28</ele>
        <time>2021-03-26T11:20:14.000Z</time>
      </trkpt>
      <trkpt lat="48.79351" lon="-3.23946">
        <ele>32</ele>
        <time>2021-03-26T11:20:19.000Z</time>
      </trkpt>
      <trkpt lat="48.79344" lon="-3.23969">
        <ele>34</ele>
        <time>2021-03-26T11:20:22.000Z</time>
      </trkpt>
      <trkpt lat="48.79331" lon="-3.23996">
        <ele>36</ele>
        <time>2021-03-26T11:20:26.000Z</time>
      </trkpt>
      <trkpt lat="48.79307" lon="-3.2403">
        <ele>35</ele>
        <time>2021-03-26T11:20:32.000Z</time>
      </trkpt>
      <trkpt lat="48.79292" lon="-3.24043">
        <ele>34</ele>
        <time>2021-03-26T11:20:35.000Z</time>
      </trkpt>
      <trkpt lat="48.79234" lon="-3.24082">
        <ele>33</ele>
        <time>2021-03-26T11:20:46.000Z</time>
      </trkpt>
      <trkpt lat="48.79212" lon="-3.24103">
        <ele>32</ele>
        <time>2021-03-26T11:20:51.000Z</time>
      </trkpt>
      <trkpt lat="48.79203" lon="-3.24117">
        <ele>33</ele>
        <time>2021-03-26T11:20:53.000Z</time>
      </trkpt>
      <trkpt lat="48.7919" lon="-3.24141">
        <ele>33</ele>
        <time>2021-03-26T11:20:57.000Z</time>
      </trkpt>
      <trkpt lat="48.79157" lon="-3.24246">
        <ele>39</ele>
        <time>2021-03-26T11:21:11.000Z</time>
      </trkpt>
      <trkpt lat="48.79141" lon="-3.24316">
        <ele>39</ele>
        <time>2021-03-26T11:21:19.000Z</time>
      </trkpt>
      <trkpt lat="48.79139" lon="-3.24327">
        <ele>39</ele>
        <time>2021-03-26T11:21:21.000Z</time>
      </trkpt>
      <trkpt lat="48.79136" lon="-3.24349">
        <ele>39</ele>
        <time>2021-03-26T11:21:23.000Z</time>
      </trkpt>
      <trkpt lat="48.79131" lon="-3.24392">
        <ele>39</ele>
        <time>2021-03-26T11:21:28.000Z</time>
      </trkpt>
      <trkpt lat="48.79129" lon="-3.24415">
        <ele>39</ele>
        <time>2021-03-26T11:21:31.000Z</time>
      </trkpt>
      <trkpt lat="48.7911" lon="-3.24553">
        <ele>39</ele>
        <time>2021-03-26T11:21:48.000Z</time>
      </trkpt>
      <trkpt lat="48.79109" lon="-3.24612">
        <ele>41</ele>
        <time>2021-03-26T11:21:55.000Z</time>
      </trkpt>
      <trkpt lat="48.79111" lon="-3.24636">
        <ele>41</ele>
        <time>2021-03-26T11:21:57.000Z</time>
      </trkpt>
      <trkpt lat="48.79118" lon="-3.2467">
        <ele>43</ele>
        <time>2021-03-26T11:22:02.000Z</time>
      </trkpt>
      <trkpt lat="48.79136" lon="-3.24734">
        <ele>44</ele>
        <time>2021-03-26T11:22:10.000Z</time>
      </trkpt>
      <trkpt lat="48.79197" lon="-3.2486">
        <ele>50</ele>
        <time>2021-03-26T11:22:28.000Z</time>
      </trkpt>
      <trkpt lat="48.79264" lon="-3.25008">
        <ele>58</ele>
        <time>2021-03-26T11:22:49.000Z</time>
      </trkpt>
      <trkpt lat="48.79303" lon="-3.25088">
        <ele>58</ele>
        <time>2021-03-26T11:23:01.000Z</time>
      </trkpt>
      <trkpt lat="48.79362" lon="-3.25235">
        <ele>55</ele>
        <time>2021-03-26T11:23:21.000Z</time>
      </trkpt>
      <trkpt lat="48.79375" lon="-3.25167">
        <ele>57</ele>
        <time>2018-04-20T18:24:49.570Z</time>
      </trkpt>
      <trkpt lat="48.79384" lon="-3.25129">
        <ele>56</ele>
        <time>2018-04-20T18:24:50.877Z</time>
      </trkpt>
      <trkpt lat="48.7941" lon="-3.25076">
        <ele>58</ele>
        <time>2018-04-20T18:24:53.013Z</time>
      </trkpt>
      <trkpt lat="48.79437" lon="-3.25048">
        <ele>58</ele>
        <time>2018-04-20T18:24:54.588Z</time>
      </trkpt>
      <trkpt lat="48.79466" lon="-3.24938">
        <ele>61</ele>
        <time>2018-04-20T18:24:58.391Z</time>
      </trkpt>
      <trkpt lat="48.79602" lon="-3.24771">
        <ele>64.3</ele>
        <time>2018-04-20T18:25:06.919Z</time>
      </trkpt>
      <trkpt lat="48.79619" lon="-3.24627">
        <ele>64.2</ele>
        <time>2018-04-20T18:25:17.607Z</time>
      </trkpt>
      <trkpt lat="48.79625" lon="-3.24491">
        <ele>63.1</ele>
        <time>2018-04-20T18:25:27.603Z</time>
      </trkpt>
      <trkpt lat="48.79611" lon="-3.24359">
        <ele>63.2</ele>
        <time>2018-04-20T18:25:37.379Z</time>
      </trkpt>
      <trkpt lat="48.79665" lon="-3.24246">
        <ele>64</ele>
        <time>2018-04-20T18:25:47.650Z</time>
      </trkpt>
      <trkpt lat="48.79695" lon="-3.24075">
        <ele>64.9</ele>
        <time>2018-04-20T18:26:00.568Z</time>
      </trkpt>
      <trkpt lat="48.79726" lon="-3.23872">
        <ele>61.8</ele>
        <time>2018-04-20T18:26:15.830Z</time>
      </trkpt>
      <trkpt lat="48.79781" lon="-3.23874">
        <ele>61.8</ele>
        <time>2018-04-20T18:26:21.932Z</time>
      </trkpt>
      <trkpt lat="48.79825" lon="-3.23762">
        <ele>59.2</ele>
        <time>2018-04-20T18:26:31.488Z</time>
      </trkpt>
      <trkpt lat="48.79855" lon="-3.23668">
        <ele>56.6</ele>
        <time>2018-04-20T18:26:39.126Z</time>
      </trkpt>
      <trkpt lat="48.79858" lon="-3.23668">
        <ele>56.7</ele>
        <time>2018-04-20T18:26:39.497Z</time>
      </trkpt>
      <trkpt lat="48.79858" lon="-3.23667">
        <ele>56.6</ele>
        <time>2018-04-20T18:26:39.619Z</time>
      </trkpt>
      <trkpt lat="48.7986" lon="-3.23667">
        <ele>56.7</ele>
        <time>2018-04-20T18:26:39.800Z</time>
      </trkpt>
      <trkpt lat="48.79863" lon="-3.23663">
        <ele>56.7</ele>
        <time>2018-04-20T18:26:40.244Z</time>
      </trkpt>
      <trkpt lat="48.79865" lon="-3.23658">
        <ele>56.7</ele>
        <time>2018-04-20T18:26:40.658Z</time>
      </trkpt>
      <trkpt lat="48.79867" lon="-3.23653">
        <ele>56.6</ele>
        <time>2018-04-20T18:26:41.068Z</time>
      </trkpt>
      <trkpt lat="48.79888" lon="-3.23613">
        <ele>56.7</ele>
        <time>2018-04-20T18:26:44.859Z</time>
      </trkpt>
      <trkpt lat="48.79893" lon="-3.23605">
        <ele>56.7</ele>
        <time>2018-04-20T18:26:45.688Z</time>
      </trkpt>
      <trkpt lat="48.79917" lon="-3.23577">
        <ele>56.9</ele>
        <time>2018-04-20T18:26:49.011Z</time>
      </trkpt>
      <trkpt lat="48.7996" lon="-3.23532">
        <ele>57.4</ele>
        <time>2018-04-20T18:26:54.846Z</time>
      </trkpt>
      <trkpt lat="48.8008" lon="-3.23403">
        <ele>60</ele>
        <time>2018-04-20T18:27:11.170Z</time>
      </trkpt>
      <trkpt lat="48.80083" lon="-3.23395">
        <ele>60.3</ele>
        <time>2018-04-20T18:27:11.887Z</time>
      </trkpt>
      <trkpt lat="48.80085" lon="-3.23387">
        <ele>60.4</ele>
        <time>2018-04-20T18:27:12.522Z</time>
      </trkpt>
      <trkpt lat="48.80162" lon="-3.23113">
        <ele>63.8</ele>
        <time>2018-04-20T18:27:34.285Z</time>
      </trkpt>
      <trkpt lat="48.80163" lon="-3.23095">
        <ele>63.9</ele>
        <time>2018-04-20T18:27:35.640Z</time>
      </trkpt>
      <trkpt lat="48.80163" lon="-3.23077">
        <ele>63.7</ele>
        <time>2018-04-20T18:27:36.985Z</time>
      </trkpt>
      <trkpt lat="48.80162" lon="-3.23057">
        <ele>63.2</ele>
        <time>2018-04-20T18:27:38.463Z</time>
      </trkpt>
      <trkpt lat="48.80147" lon="-3.22908">
        <ele>61.2</ele>
        <time>2018-04-20T18:27:49.453Z</time>
      </trkpt>
      <trkpt lat="48.80148" lon="-3.2289">
        <ele>60.5</ele>
        <time>2018-04-20T18:27:50.814Z</time>
      </trkpt>
      <trkpt lat="48.80157" lon="-3.2285">
        <ele>59.3</ele>
        <time>2018-04-20T18:27:53.887Z</time>
      </trkpt>
      <trkpt lat="48.8016" lon="-3.22838">
        <ele>59</ele>
        <time>2018-04-20T18:27:54.820Z</time>
      </trkpt>
      <trkpt lat="48.802" lon="-3.22753">
        <ele>58.1</ele>
        <time>2018-04-20T18:28:02.472Z</time>
      </trkpt>
      <trkpt lat="48.80208" lon="-3.22738">
        <ele>58.8</ele>
        <time>2018-04-20T18:28:03.911Z</time>
      </trkpt>
      <trkpt lat="48.80218" lon="-3.22727">
        <ele>59.7</ele>
        <time>2018-04-20T18:28:05.315Z</time>
      </trkpt>
      <trkpt lat="48.8024" lon="-3.22707">
        <ele>61.1</ele>
        <time>2018-04-20T18:28:08.138Z</time>
      </trkpt>
      <trkpt lat="48.80252" lon="-3.22702">
        <ele>61.6</ele>
        <time>2018-04-20T18:28:09.490Z</time>
      </trkpt>
      <trkpt lat="48.80298" lon="-3.22685">
        <ele>62.5</ele>
        <time>2018-04-20T18:28:14.818Z</time>
      </trkpt>
      <trkpt lat="48.80307" lon="-3.22675">
        <ele>62.6</ele>
        <time>2018-04-20T18:28:16.003Z</time>
      </trkpt>
      <trkpt lat="48.80317" lon="-3.22665">
        <ele>62.8</ele>
        <time>2018-04-20T18:28:17.330Z</time>
      </trkpt>
      <trkpt lat="48.8035" lon="-3.22613">
        <ele>64.1</ele>
        <time>2018-04-20T18:28:22.630Z</time>
      </trkpt>
      <trkpt lat="48.80417" lon="-3.2252">
        <ele>64</ele>
        <time>2018-04-20T18:28:32.717Z</time>
      </trkpt>
      <trkpt lat="48.80428" lon="-3.22508">
        <ele>64</ele>
        <time>2018-04-20T18:28:34.265Z</time>
      </trkpt>
      <trkpt lat="48.80463" lon="-3.22475">
        <ele>63.9</ele>
        <time>2018-04-20T18:28:38.861Z</time>
      </trkpt>
      <trkpt lat="48.80532" lon="-3.22407">
        <ele>64.3</ele>
        <time>2018-04-20T18:28:47.960Z</time>
      </trkpt>
      <trkpt lat="48.80543" lon="-3.22392">
        <ele>64.2</ele>
        <time>2018-04-20T18:28:49.659Z</time>
      </trkpt>
      <trkpt lat="48.80572" lon="-3.2234">
        <ele>63.9</ele>
        <time>2018-04-20T18:28:54.582Z</time>
      </trkpt>
      <trkpt lat="48.80662" lon="-3.2216">
        <ele>60.7</ele>
        <time>2018-04-20T18:29:11.135Z</time>
      </trkpt>
      <trkpt lat="48.80667" lon="-3.2214">
        <ele>60.1</ele>
        <time>2018-04-20T18:29:12.705Z</time>
      </trkpt>
      <trkpt lat="48.8069" lon="-3.2203">
        <ele>57.2</ele>
        <time>2018-04-20T18:29:21.174Z</time>
      </trkpt>
      <trkpt lat="48.8071" lon="-3.2193">
        <ele>54.5</ele>
        <time>2018-04-20T18:29:28.832Z</time>
      </trkpt>
      <trkpt lat="48.80715" lon="-3.21912">
        <ele>54.1</ele>
        <time>2018-04-20T18:29:30.284Z</time>
      </trkpt>
      <trkpt lat="48.80735" lon="-3.21863">
        <ele>53.4</ele>
        <time>2018-04-20T18:29:34.466Z</time>
      </trkpt>
      <trkpt lat="48.8076" lon="-3.21812">
        <ele>53.1</ele>
        <time>2018-04-20T18:29:39.161Z</time>
      </trkpt>
      <trkpt lat="48.80765" lon="-3.21803">
        <ele>53.1</ele>
        <time>2018-04-20T18:29:39.983Z</time>
      </trkpt>
      <trkpt lat="48.80772" lon="-3.21797">
        <ele>53</ele>
        <time>2018-04-20T18:29:40.872Z</time>
      </trkpt>
      <trkpt lat="48.80787" lon="-3.21783">
        <ele>52.9</ele>
        <time>2018-04-20T18:29:42.807Z</time>
      </trkpt>
      <trkpt lat="48.80795" lon="-3.21778">
        <ele>52.8</ele>
        <time>2018-04-20T18:29:43.803Z</time>
      </trkpt>
      <trkpt lat="48.80815" lon="-3.21772">
        <ele>52.6</ele>
        <time>2018-04-20T18:29:46.082Z</time>
      </trkpt>
      <trkpt lat="48.80825" lon="-3.2177">
        <ele>52.5</ele>
        <time>2018-04-20T18:29:47.201Z</time>
      </trkpt>
      <trkpt lat="48.80837" lon="-3.21772">
        <ele>52.6</ele>
        <time>2018-04-20T18:29:48.500Z</time>
      </trkpt>
      <trkpt lat="48.80858" lon="-3.21773">
        <ele>52.9</ele>
        <time>2018-04-20T18:29:50.911Z</time>
      </trkpt>
      <trkpt lat="48.80868" lon="-3.21773">
        <ele>53</ele>
        <time>2018-04-20T18:29:52.025Z</time>
      </trkpt>
      <trkpt lat="48.8088" lon="-3.21773">
        <ele>53.1</ele>
        <time>2018-04-20T18:29:53.321Z</time>
      </trkpt>
      <trkpt lat="48.80898" lon="-3.21775">
        <ele>53.4</ele>
        <time>2018-04-20T18:29:55.365Z</time>
      </trkpt>
      <trkpt lat="48.80908" lon="-3.21775">
        <ele>53.5</ele>
        <time>2018-04-20T18:29:56.478Z</time>
      </trkpt>
      <trkpt lat="48.80928" lon="-3.2177">
        <ele>54.1</ele>
        <time>2018-04-20T18:29:58.735Z</time>
      </trkpt>
      <trkpt lat="48.80938" lon="-3.21765">
        <ele>54.6</ele>
        <time>2018-04-20T18:29:59.902Z</time>
      </trkpt>
      <trkpt lat="48.80957" lon="-3.2175">
        <ele>55.4</ele>
        <time>2018-04-20T18:30:02.221Z</time>
      </trkpt>
      <trkpt lat="48.80967" lon="-3.2174">
        <ele>55.6</ele>
        <time>2018-04-20T18:30:03.553Z</time>
      </trkpt>
      <trkpt lat="48.81013" lon="-3.21682">
        <ele>55.3</ele>
        <time>2018-04-20T18:30:10.272Z</time>
      </trkpt>
      <trkpt lat="48.81017" lon="-3.21675">
        <ele>55.2</ele>
        <time>2018-04-20T18:30:10.883Z</time>
      </trkpt>
      <trkpt lat="48.81033" lon="-3.21638">
        <ele>55.1</ele>
        <time>2018-04-20T18:30:14.147Z</time>
      </trkpt>
      <trkpt lat="48.81038" lon="-3.21628">
        <ele>55.2</ele>
        <time>2018-04-20T18:30:15.064Z</time>
      </trkpt>
      <trkpt lat="48.81062" lon="-3.216">
        <ele>55.6</ele>
        <time>2018-04-20T18:30:18.388Z</time>
      </trkpt>
      <trkpt lat="48.81088" lon="-3.21563">
        <ele>55.4</ele>
        <time>2018-04-20T18:30:22.390Z</time>
      </trkpt>
      <trkpt lat="48.81092" lon="-3.21552">
        <ele>55</ele>
        <time>2018-04-20T18:30:23.321Z</time>
      </trkpt>
      <trkpt lat="48.81113" lon="-3.21498">
        <ele>53.7</ele>
        <time>2018-04-20T18:30:27.913Z</time>
      </trkpt>
      <trkpt lat="48.8112" lon="-3.21487">
        <ele>53.6</ele>
        <time>2018-04-20T18:30:29.043Z</time>
      </trkpt>
      <trkpt lat="48.81128" lon="-3.21475">
        <ele>53.5</ele>
        <time>2018-04-20T18:30:30.306Z</time>
      </trkpt>
      <trkpt lat="48.81147" lon="-3.21453">
        <ele>53.4</ele>
        <time>2018-04-20T18:30:32.890Z</time>
      </trkpt>
      <trkpt lat="48.81228" lon="-3.2137">
        <ele>52</ele>
        <time>2018-04-20T18:30:43.828Z</time>
      </trkpt>
      <trkpt lat="48.81237" lon="-3.21365">
        <ele>52.1</ele>
        <time>2018-04-20T18:30:44.828Z</time>
      </trkpt>
      <trkpt lat="48.81247" lon="-3.21363">
        <ele>52.3</ele>
        <time>2018-04-20T18:30:45.948Z</time>
      </trkpt>
      <trkpt lat="48.81287" lon="-3.2135">
        <ele>51.4</ele>
        <time>2018-04-20T18:30:50.498Z</time>
      </trkpt>
      <trkpt lat="48.81293" lon="-3.21342">
        <ele>51.1</ele>
        <time>2018-04-20T18:30:51.459Z</time>
      </trkpt>
      <trkpt lat="48.813" lon="-3.2133">
        <ele>50.7</ele>
        <time>2018-04-20T18:30:52.589Z</time>
      </trkpt>
      <trkpt lat="48.81307" lon="-3.21317">
        <ele>50.1</ele>
        <time>2018-04-20T18:30:53.817Z</time>
      </trkpt>
      <trkpt lat="48.8134" lon="-3.21238">
        <ele>46.6</ele>
        <time>2018-04-20T18:31:00.657Z</time>
      </trkpt>
      <trkpt lat="48.81347" lon="-3.21232">
        <ele>46.4</ele>
        <time>2018-04-20T18:31:01.546Z</time>
      </trkpt>
      <trkpt lat="48.81357" lon="-3.2123">
        <ele>46.4</ele>
        <time>2018-04-20T18:31:02.665Z</time>
      </trkpt>
      <trkpt lat="48.81367" lon="-3.21228">
        <ele>46.4</ele>
        <time>2018-04-20T18:31:03.779Z</time>
      </trkpt>
      <trkpt lat="48.81377" lon="-3.21232">
        <ele>46.6</ele>
        <time>2018-04-20T18:31:04.918Z</time>
      </trkpt>
      <trkpt lat="48.81467" lon="-3.2126">
        <ele>48.2</ele>
        <time>2018-04-20T18:31:15.140Z</time>
      </trkpt>
      <trkpt lat="48.8151" lon="-3.21282">
        <ele>48.7</ele>
        <time>2018-04-20T18:31:20.213Z</time>
      </trkpt>
      <trkpt lat="48.81538" lon="-3.21295">
        <ele>49</ele>
        <time>2018-04-20T18:31:23.511Z</time>
      </trkpt>
      <trkpt lat="48.81543" lon="-3.21297">
        <ele>49</ele>
        <time>2018-04-20T18:31:24.085Z</time>
      </trkpt>
      <trkpt lat="48.81555" lon="-3.21297">
        <ele>49.2</ele>
        <time>2018-04-20T18:31:25.378Z</time>
      </trkpt>
      <trkpt lat="48.81562" lon="-3.21297">
        <ele>49.3</ele>
        <time>2018-04-20T18:31:26.120Z</time>
      </trkpt>
      <trkpt lat="48.81582" lon="-3.21297">
        <ele>49.5</ele>
        <time>2018-04-20T18:31:28.346Z</time>
      </trkpt>
      <trkpt lat="48.8159" lon="-3.21298">
        <ele>49.7</ele>
        <time>2018-04-20T18:31:29.278Z</time>
      </trkpt>
      <trkpt lat="48.81607" lon="-3.21305">
        <ele>50</ele>
        <time>2018-04-20T18:31:31.197Z</time>
      </trkpt>
      <trkpt lat="48.81615" lon="-3.2131">
        <ele>50.2</ele>
        <time>2018-04-20T18:31:32.192Z</time>
      </trkpt>
      <trkpt lat="48.81625" lon="-3.21318">
        <ele>50.4</ele>
        <time>2018-04-20T18:31:33.459Z</time>
      </trkpt>
      <trkpt lat="48.81642" lon="-3.21338">
        <ele>50.7</ele>
        <time>2018-04-20T18:31:35.823Z</time>
      </trkpt>
      <trkpt lat="48.8167" lon="-3.21373">
        <ele>51.1</ele>
        <time>2018-04-20T18:31:39.883Z</time>
      </trkpt>
      <trkpt lat="48.81677" lon="-3.21377">
        <ele>51.2</ele>
        <time>2018-04-20T18:31:40.665Z</time>
      </trkpt>
      <trkpt lat="48.81683" lon="-3.21378">
        <ele>51.3</ele>
        <time>2018-04-20T18:31:41.416Z</time>
      </trkpt>
      <trkpt lat="48.8169" lon="-3.21377">
        <ele>51.4</ele>
        <time>2018-04-20T18:31:42.168Z</time>
      </trkpt>
      <trkpt lat="48.81697" lon="-3.2137">
        <ele>51.6</ele>
        <time>2018-04-20T18:31:43.056Z</time>
      </trkpt>
      <trkpt lat="48.81703" lon="-3.21363">
        <ele>51.7</ele>
        <time>2018-04-20T18:31:43.945Z</time>
      </trkpt>
      <trkpt lat="48.81748" lon="-3.213">
        <ele>52.2</ele>
        <time>2018-04-20T18:31:50.765Z</time>
      </trkpt>
      <trkpt lat="48.81753" lon="-3.21288">
        <ele>51.9</ele>
        <time>2018-04-20T18:31:51.786Z</time>
      </trkpt>
      <trkpt lat="48.81758" lon="-3.21275">
        <ele>51.6</ele>
        <time>2018-04-20T18:31:52.909Z</time>
      </trkpt>
      <trkpt lat="48.8176" lon="-3.2126">
        <ele>51.2</ele>
        <time>2018-04-20T18:31:54.026Z</time>
      </trkpt>
      <trkpt lat="48.8176" lon="-3.21242">
        <ele>50.9</ele>
        <time>2018-04-20T18:31:55.367Z</time>
      </trkpt>
      <trkpt lat="48.81758" lon="-3.21207">
        <ele>50.5</ele>
        <time>2018-04-20T18:31:57.935Z</time>
      </trkpt>
      <trkpt lat="48.81753" lon="-3.21153">
        <ele>49.7</ele>
        <time>2018-04-20T18:32:01.883Z</time>
      </trkpt>
      <trkpt lat="48.81757" lon="-3.21145">
        <ele>49.6</ele>
        <time>2018-04-20T18:32:02.596Z</time>
      </trkpt>
      <trkpt lat="48.8176" lon="-3.21138">
        <ele>49.5</ele>
        <time>2018-04-20T18:32:03.210Z</time>
      </trkpt>
      <trkpt lat="48.81767" lon="-3.21133">
        <ele>49.5</ele>
        <time>2018-04-20T18:32:04.035Z</time>
      </trkpt>
      <trkpt lat="48.81787" lon="-3.21122">
        <ele>49.6</ele>
        <time>2018-04-20T18:32:06.419Z</time>
      </trkpt>
      <trkpt lat="48.8181" lon="-3.21112">
        <ele>49.9</ele>
        <time>2018-04-20T18:32:09.118Z</time>
      </trkpt>
      <trkpt lat="48.81845" lon="-3.21103">
        <ele>50.3</ele>
        <time>2018-04-20T18:32:13.055Z</time>
      </trkpt>
      <trkpt lat="48.81857" lon="-3.21103">
        <ele>50.3</ele>
        <time>2018-04-20T18:32:14.351Z</time>
      </trkpt>
      <trkpt lat="48.81868" lon="-3.21103">
        <ele>50.3</ele>
        <time>2018-04-20T18:32:15.652Z</time>
      </trkpt>
      <trkpt lat="48.81932" lon="-3.21115">
        <ele>50.8</ele>
        <time>2018-04-20T18:32:22.742Z</time>
      </trkpt>
      <trkpt lat="48.8198" lon="-3.2112">
        <ele>50.9</ele>
        <time>2018-04-20T18:32:28.131Z</time>
      </trkpt>
      <trkpt lat="48.8199" lon="-3.21115">
        <ele>50.8</ele>
        <time>2018-04-20T18:32:29.303Z</time>
      </trkpt>
      <trkpt lat="48.82" lon="-3.21107">
        <ele>50.6</ele>
        <time>2018-04-20T18:32:30.570Z</time>
      </trkpt>
      <trkpt lat="48.82008" lon="-3.21095">
        <ele>50.4</ele>
        <time>2018-04-20T18:32:31.831Z</time>
      </trkpt>
      <trkpt lat="48.82015" lon="-3.2108">
        <ele>50.2</ele>
        <time>2018-04-20T18:32:33.154Z</time>
      </trkpt>
      <trkpt lat="48.8206" lon="-3.20987">
        <ele>49.6</ele>
        <time>2018-04-20T18:32:41.624Z</time>
      </trkpt>
      <trkpt lat="48.8207" lon="-3.20975">
        <ele>49.4</ele>
        <time>2018-04-20T18:32:43.026Z</time>
      </trkpt>
      <trkpt lat="48.82252" lon="-3.2084">
        <ele>43.1</ele>
        <time>2018-04-20T18:33:05.527Z</time>
      </trkpt>
      <trkpt lat="48.8226" lon="-3.20835">
        <ele>42.4</ele>
        <time>2018-04-20T18:33:06.522Z</time>
      </trkpt>
      <trkpt lat="48.82258" lon="-3.20837">
        <ele>42.6</ele>
        <time>2018-04-20T18:33:06.742Z</time>
      </trkpt>
      <trkpt lat="48.82257" lon="-3.20838">
        <ele>42.7</ele>
        <time>2018-04-20T18:33:06.968Z</time>
      </trkpt>
      <trkpt lat="48.82257" lon="-3.2084">
        <ele>42.8</ele>
        <time>2018-04-20T18:33:07.092Z</time>
      </trkpt>
      <trkpt lat="48.8226" lon="-3.20842">
        <ele>42.6</ele>
        <time>2018-04-20T18:33:07.482Z</time>
      </trkpt>
      <trkpt lat="48.82263" lon="-3.20842">
        <ele>42.4</ele>
        <time>2018-04-20T18:33:07.854Z</time>
      </trkpt>
      <trkpt lat="48.8227" lon="-3.20848">
        <ele>42.2</ele>
        <time>2018-04-20T18:33:08.742Z</time>
      </trkpt>
      <trkpt lat="48.82273" lon="-3.20852">
        <ele>42</ele>
        <time>2018-04-20T18:33:09.187Z</time>
      </trkpt>
      <trkpt lat="48.82343" lon="-3.20935">
        <ele>40.8</ele>
        <time>2018-04-20T18:33:19.076Z</time>
      </trkpt>
      <trkpt lat="48.82348" lon="-3.20945">
        <ele>41.2</ele>
        <time>2018-04-20T18:33:19.998Z</time>
      </trkpt>
      <trkpt lat="48.82352" lon="-3.20955">
        <ele>41.5</ele>
        <time>2018-04-20T18:33:20.820Z</time>
      </trkpt>
      <trkpt lat="48.82353" lon="-3.20967">
        <ele>41.8</ele>
        <time>2018-04-20T18:33:21.691Z</time>
      </trkpt>
      <trkpt lat="48.82355" lon="-3.20978">
        <ele>42.1</ele>
        <time>2018-04-20T18:33:22.569Z</time>
      </trkpt>
      <trkpt lat="48.82357" lon="-3.2099">
        <ele>42.4</ele>
        <time>2018-04-20T18:33:23.442Z</time>
      </trkpt>
      <trkpt lat="48.82358" lon="-3.21008">
        <ele>42.8</ele>
        <time>2018-04-20T18:33:24.796Z</time>
      </trkpt>
      <trkpt lat="48.82358" lon="-3.2101">
        <ele>42.9</ele>
        <time>2018-04-20T18:33:24.921Z</time>
      </trkpt>
      <trkpt lat="48.8236" lon="-3.21012">
        <ele>42.9</ele>
        <time>2018-04-20T18:33:25.138Z</time>
      </trkpt>
      <trkpt lat="48.82362" lon="-3.21012">
        <ele>43</ele>
        <time>2018-04-20T18:33:25.323Z</time>
      </trkpt>
      <trkpt lat="48.82363" lon="-3.21012">
        <ele>43</ele>
        <time>2018-04-20T18:33:25.509Z</time>
      </trkpt>
      <trkpt lat="48.82367" lon="-3.2101">
        <ele>43</ele>
        <time>2018-04-20T18:33:25.899Z</time>
      </trkpt>
      <trkpt lat="48.82393" lon="-3.20993">
        <ele>43.3</ele>
        <time>2018-04-20T18:33:29.108Z</time>
      </trkpt>
      <trkpt lat="48.82413" lon="-3.2098">
        <ele>43.7</ele>
        <time>2018-04-20T18:33:31.533Z</time>
      </trkpt>
      <trkpt lat="48.8245" lon="-3.20948">
        <ele>44.4</ele>
        <time>2018-04-20T18:33:36.224Z</time>
      </trkpt>
      <trkpt lat="48.82523" lon="-3.20868">
        <ele>44.7</ele>
        <time>2018-04-20T18:33:46.263Z</time>
      </trkpt>
      <trkpt lat="48.82587" lon="-3.20793">
        <ele>44.4</ele>
        <time>2018-04-20T18:33:55.196Z</time>
      </trkpt>
      <trkpt lat="48.82597" lon="-3.20787">
        <ele>44.2</ele>
        <time>2018-04-20T18:33:56.411Z</time>
      </trkpt>
      <trkpt lat="48.82607" lon="-3.20782">
        <ele>43.9</ele>
        <time>2018-04-20T18:33:57.578Z</time>
      </trkpt>
      <trkpt lat="48.82617" lon="-3.20782">
        <ele>43.6</ele>
        <time>2018-04-20T18:33:58.692Z</time>
      </trkpt>
      <trkpt lat="48.8263" lon="-3.20782">
        <ele>43.2</ele>
        <time>2018-04-20T18:34:00.174Z</time>
      </trkpt>
      <trkpt lat="48.82667" lon="-3.20785">
        <ele>42.3</ele>
        <time>2018-04-20T18:34:04.263Z</time>
      </trkpt>
      <trkpt lat="48.82678" lon="-3.20782">
        <ele>41.7</ele>
        <time>2018-04-20T18:34:05.581Z</time>
      </trkpt>
      <trkpt lat="48.8269" lon="-3.20775">
        <ele>41</ele>
        <time>2018-04-20T18:34:06.969Z</time>
      </trkpt>
      <trkpt lat="48.82723" lon="-3.2075">
        <ele>38.3</ele>
        <time>2018-04-20T18:34:11.112Z</time>
      </trkpt>
      <trkpt lat="48.82835" lon="-3.20667">
        <ele>27</ele>
        <time>2018-04-20T18:34:24.997Z</time>
      </trkpt>
      <trkpt lat="48.82845" lon="-3.20663">
        <ele>26.2</ele>
        <time>2018-04-20T18:34:26.134Z</time>
      </trkpt>
      <trkpt lat="48.82855" lon="-3.20662">
        <ele>25.5</ele>
        <time>2018-04-20T18:34:27.255Z</time>
      </trkpt>
      <trkpt lat="48.82867" lon="-3.2066">
        <ele>24.9</ele>
        <time>2018-04-20T18:34:28.563Z</time>
      </trkpt>
      <trkpt lat="48.82878" lon="-3.20662">
        <ele>24.5</ele>
        <time>2018-04-20T18:34:29.863Z</time>
      </trkpt>
      <trkpt lat="48.83003" lon="-3.20687">
        <ele>21.8</ele>
        <time>2018-04-20T18:34:43.883Z</time>
      </trkpt>
      <trkpt lat="48.83015" lon="-3.20692">
        <ele>22.4</ele>
        <time>2018-04-20T18:34:45.237Z</time>
      </trkpt>
      <trkpt lat="48.83025" lon="-3.20697">
        <ele>23.1</ele>
        <time>2018-04-20T18:34:46.410Z</time>
      </trkpt>
      <trkpt lat="48.83032" lon="-3.20705">
        <ele>23.8</ele>
        <time>2018-04-20T18:34:47.369Z</time>
      </trkpt>
      <trkpt lat="48.83038" lon="-3.20715">
        <ele>24.8</ele>
        <time>2018-04-20T18:34:48.415Z</time>
      </trkpt>
      <trkpt lat="48.83043" lon="-3.20727">
        <ele>26</ele>
        <time>2018-04-20T18:34:49.444Z</time>
      </trkpt>
      <trkpt lat="48.83045" lon="-3.2074">
        <ele>27.1</ele>
        <time>2018-04-20T18:34:50.444Z</time>
      </trkpt>
      <trkpt lat="48.83045" lon="-3.20752">
        <ele>27.9</ele>
        <time>2018-04-20T18:34:51.300Z</time>
      </trkpt>
      <trkpt lat="48.8304" lon="-3.2078">
        <ele>29.2</ele>
        <time>2018-04-20T18:34:53.450Z</time>
      </trkpt>
      <trkpt lat="48.83023" lon="-3.20868">
        <ele>32.5</ele>
        <time>2018-04-20T18:35:00.187Z</time>
      </trkpt>
      <trkpt lat="48.83023" lon="-3.20882">
        <ele>33.1</ele>
        <time>2018-04-20T18:35:01.166Z</time>
      </trkpt>
      <trkpt lat="48.83027" lon="-3.20893">
        <ele>33.9</ele>
        <time>2018-04-20T18:35:02.098Z</time>
      </trkpt>
      <trkpt lat="48.83048" lon="-3.2092">
        <ele>36.5</ele>
        <time>2018-04-20T18:35:05.210Z</time>
      </trkpt>
      <trkpt lat="48.83058" lon="-3.20925">
        <ele>37.3</ele>
        <time>2018-04-20T18:35:06.382Z</time>
      </trkpt>
      <trkpt lat="48.8308" lon="-3.20932">
        <ele>38.8</ele>
        <time>2018-04-20T18:35:08.849Z</time>
      </trkpt>
      <trkpt lat="48.83088" lon="-3.20932">
        <ele>39.1</ele>
        <time>2018-04-20T18:35:09.774Z</time>
      </trkpt>
      <trkpt lat="48.83095" lon="-3.2093">
        <ele>39.3</ele>
        <time>2018-04-20T18:35:10.526Z</time>
      </trkpt>
      <trkpt lat="48.83105" lon="-3.20923">
        <ele>39.5</ele>
        <time>2018-04-20T18:35:11.741Z</time>
      </trkpt>
      <trkpt lat="48.83122" lon="-3.20912">
        <ele>39.8</ele>
        <time>2018-04-20T18:35:13.779Z</time>
      </trkpt>
      <trkpt lat="48.83132" lon="-3.2091">
        <ele>39.9</ele>
        <time>2018-04-20T18:35:14.899Z</time>
      </trkpt>
      <trkpt lat="48.8314" lon="-3.2091">
        <ele>40.1</ele>
        <time>2018-04-20T18:35:15.827Z</time>
      </trkpt>
      <trkpt lat="48.83178" lon="-3.20913">
        <ele>40.6</ele>
        <time>2018-04-20T18:35:20.096Z</time>
      </trkpt>
      <trkpt lat="48.83187" lon="-3.20917">
        <ele>40.5</ele>
        <time>2018-04-20T18:35:21.054Z</time>
      </trkpt>
      <trkpt lat="48.83197" lon="-3.20922">
        <ele>40.2</ele>
        <time>2018-04-20T18:35:22.224Z</time>
      </trkpt>
      <trkpt lat="48.83203" lon="-3.20925">
        <ele>40</ele>
        <time>2018-04-20T18:35:23.005Z</time>
      </trkpt>
      <trkpt lat="48.83203" lon="-3.20923">
        <ele>40</ele>
        <time>2018-04-20T18:35:23.125Z</time>
      </trkpt>
      <trkpt lat="48.83205" lon="-3.20925">
        <ele>40</ele>
        <time>2018-04-20T18:35:23.349Z</time>
      </trkpt>
      <trkpt lat="48.83207" lon="-3.20927">
        <ele>39.9</ele>
        <time>2018-04-20T18:35:23.569Z</time>
      </trkpt>
      <trkpt lat="48.83207" lon="-3.20932">
        <ele>39.9</ele>
        <time>2018-04-20T18:35:23.934Z</time>
      </trkpt>
      <trkpt lat="48.83208" lon="-3.20937">
        <ele>39.8</ele>
        <time>2018-04-20T18:35:24.346Z</time>
      </trkpt>
      <trkpt lat="48.83208" lon="-3.20943">
        <ele>39.7</ele>
        <time>2018-04-20T18:35:24.835Z</time>
      </trkpt>
      <trkpt lat="48.8324" lon="-3.2112">
        <ele>41.7</ele>
        <time>2018-04-20T18:35:38.237Z</time>
      </trkpt>
      <trkpt lat="48.83235" lon="-3.2115">
        <ele>42.4</ele>
        <time>2018-04-20T18:35:40.501Z</time>
      </trkpt>
      <trkpt lat="48.8322" lon="-3.21235">
        <ele>45.3</ele>
        <time>2018-04-20T18:35:46.951Z</time>
      </trkpt>
      <trkpt lat="48.8322" lon="-3.21253">
        <ele>45.7</ele>
        <time>2018-04-20T18:35:48.292Z</time>
      </trkpt>
      <trkpt lat="48.83223" lon="-3.2131">
        <ele>44.9</ele>
        <time>2018-04-20T18:35:52.460Z</time>
      </trkpt>
      <trkpt lat="48.8323" lon="-3.21362">
        <ele>43.6</ele>
        <time>2018-04-20T18:35:56.316Z</time>
      </trkpt>
      <trkpt lat="48.83235" lon="-3.21377">
        <ele>43</ele>
        <time>2018-04-20T18:35:57.547Z</time>
      </trkpt>
      <trkpt lat="48.83242" lon="-3.21392">
        <ele>42.2</ele>
        <time>2018-04-20T18:35:58.869Z</time>
      </trkpt>
      <trkpt lat="48.8326" lon="-3.21422">
        <ele>39.1</ele>
        <time>2018-04-20T18:36:01.888Z</time>
      </trkpt>
      <trkpt lat="48.8327" lon="-3.21435">
        <ele>36.9</ele>
        <time>2018-04-20T18:36:03.385Z</time>
      </trkpt>
      <trkpt lat="48.8328" lon="-3.21447">
        <ele>34.7</ele>
        <time>2018-04-20T18:36:04.799Z</time>
      </trkpt>
      <trkpt lat="48.83313" lon="-3.21475">
        <ele>27.7</ele>
        <time>2018-04-20T18:36:09.104Z</time>
      </trkpt>
      <trkpt lat="48.83323" lon="-3.2148">
        <ele>25.7</ele>
        <time>2018-04-20T18:36:10.293Z</time>
      </trkpt>
      <trkpt lat="48.83347" lon="-3.21492">
        <ele>21.1</ele>
        <time>2018-04-20T18:36:13.064Z</time>
      </trkpt>
      <trkpt lat="48.83352" lon="-3.215">
        <ele>19.9</ele>
        <time>2018-04-20T18:36:13.897Z</time>
      </trkpt>
      <trkpt lat="48.83353" lon="-3.21512">
        <ele>19.1</ele>
        <time>2018-04-20T18:36:14.774Z</time>
      </trkpt>
      <trkpt lat="48.83353" lon="-3.21523">
        <ele>18.7</ele>
        <time>2018-04-20T18:36:15.628Z</time>
      </trkpt>
      <trkpt lat="48.83352" lon="-3.2159">
        <ele>16.3</ele>
        <time>2018-04-20T18:36:20.520Z</time>
      </trkpt>
      <trkpt lat="48.83365" lon="-3.21965">
        <ele>11</ele>
        <time>2018-04-20T18:36:48.011Z</time>
      </trkpt>
      <trkpt lat="48.83367" lon="-3.21977">
        <ele>11.8</ele>
        <time>2018-04-20T18:36:48.890Z</time>
      </trkpt>
      <trkpt lat="48.83377" lon="-3.22008">
        <ele>13.9</ele>
        <time>2018-04-20T18:36:51.470Z</time>
      </trkpt>
      <trkpt lat="48.83387" lon="-3.22025">
        <ele>14.8</ele>
        <time>2018-04-20T18:36:53.123Z</time>
      </trkpt>
      <trkpt lat="48.83398" lon="-3.2204">
        <ele>15.6</ele>
        <time>2018-04-20T18:36:54.827Z</time>
      </trkpt>
      <trkpt lat="48.83425" lon="-3.22077">
        <ele>18</ele>
        <time>2018-04-20T18:36:58.831Z</time>
      </trkpt>
      <trkpt lat="48.83432" lon="-3.22088">
        <ele>18.9</ele>
        <time>2018-04-20T18:36:59.964Z</time>
      </trkpt>
      <trkpt lat="48.83572" lon="-3.22315">
        <ele>45.2</ele>
        <time>2018-04-20T18:37:22.868Z</time>
      </trkpt>
      <trkpt lat="48.8358" lon="-3.22323">
        <ele>46.3</ele>
        <time>2018-04-20T18:37:23.981Z</time>
      </trkpt>
      <trkpt lat="48.83597" lon="-3.22338">
        <ele>47.8</ele>
        <time>2018-04-20T18:37:26.140Z</time>
      </trkpt>
      <trkpt lat="48.83777" lon="-3.22472">
        <ele>53.9</ele>
        <time>2018-04-20T18:37:48.415Z</time>
      </trkpt>
      <trkpt lat="48.83785" lon="-3.22482">
        <ele>53.9</ele>
        <time>2018-04-20T18:37:49.596Z</time>
      </trkpt>
      <trkpt lat="48.83852" lon="-3.22568">
        <ele>54.9</ele>
        <time>2018-04-20T18:37:59.354Z</time>
      </trkpt>
      <trkpt lat="48.8386" lon="-3.22575">
        <ele>54.9</ele>
        <time>2018-04-20T18:38:00.399Z</time>
      </trkpt>
      <trkpt lat="48.83877" lon="-3.22588">
        <ele>55</ele>
        <time>2018-04-20T18:38:02.496Z</time>
      </trkpt>
      <trkpt lat="48.83885" lon="-3.22598">
        <ele>55.1</ele>
        <time>2018-04-20T18:38:03.680Z</time>
      </trkpt>
      <trkpt lat="48.83892" lon="-3.22608">
        <ele>55.1</ele>
        <time>2018-04-20T18:38:04.717Z</time>
      </trkpt>
      <trkpt lat="48.83898" lon="-3.22622">
        <ele>55.1</ele>
        <time>2018-04-20T18:38:05.944Z</time>
      </trkpt>
      <trkpt lat="48.83952" lon="-3.22733">
        <ele>55</ele>
        <time>2018-04-20T18:38:16.043Z</time>
      </trkpt>
      <trkpt lat="48.83967" lon="-3.22753">
        <ele>54.9</ele>
        <time>2018-04-20T18:38:18.259Z</time>
      </trkpt>
      <trkpt lat="48.83995" lon="-3.2279">
        <ele>55.1</ele>
        <time>2018-04-20T18:38:22.397Z</time>
      </trkpt>
      <trkpt lat="48.84003" lon="-3.22797">
        <ele>55</ele>
        <time>2018-04-20T18:38:23.447Z</time>
      </trkpt>
      <trkpt lat="48.84032" lon="-3.22825">
        <ele>54.7</ele>
        <time>2018-04-20T18:38:27.216Z</time>
      </trkpt>
      <trkpt lat="48.84043" lon="-3.22838">
        <ele>54.3</ele>
        <time>2018-04-20T18:38:28.841Z</time>
      </trkpt>
      <trkpt lat="48.84047" lon="-3.22845">
        <ele>54.1</ele>
        <time>2018-04-20T18:38:29.454Z</time>
      </trkpt>
      <trkpt lat="48.84048" lon="-3.22853">
        <ele>53.9</ele>
        <time>2018-04-20T18:38:30.093Z</time>
      </trkpt>
      <trkpt lat="48.84052" lon="-3.22872">
        <ele>53.5</ele>
        <time>2018-04-20T18:38:31.486Z</time>
      </trkpt>
      <trkpt lat="48.84052" lon="-3.22873">
        <ele>53.5</ele>
        <time>2018-04-20T18:38:31.605Z</time>
      </trkpt>
      <trkpt lat="48.8405" lon="-3.22873">
        <ele>53.5</ele>
        <time>2018-04-20T18:38:31.794Z</time>
      </trkpt>
      <trkpt lat="48.84052" lon="-3.22875">
        <ele>53.4</ele>
        <time>2018-04-20T18:38:32.105Z</time>
      </trkpt>
      <trkpt lat="48.84053" lon="-3.22875">
        <ele>53.4</ele>
        <time>2018-04-20T18:38:32.289Z</time>
      </trkpt>
      <trkpt lat="48.84055" lon="-3.22877">
        <ele>53.3</ele>
        <time>2018-04-20T18:38:32.512Z</time>
      </trkpt>
      <trkpt lat="48.84058" lon="-3.22875">
        <ele>53.2</ele>
        <time>2018-04-20T18:38:32.902Z</time>
      </trkpt>
      <trkpt lat="48.84062" lon="-3.22875">
        <ele>53.1</ele>
        <time>2018-04-20T18:38:33.272Z</time>
      </trkpt>
      <trkpt lat="48.84065" lon="-3.22875">
        <ele>53</ele>
        <time>2018-04-20T18:38:33.645Z</time>
      </trkpt>
      <trkpt lat="48.84082" lon="-3.2287">
        <ele>52.6</ele>
        <time>2018-04-20T18:38:35.529Z</time>
      </trkpt>
      <trkpt lat="48.84085" lon="-3.22872">
        <ele>52.5</ele>
        <time>2018-04-20T18:38:35.922Z</time>
      </trkpt>
      <trkpt lat="48.84148" lon="-3.22878">
        <ele>49.4</ele>
        <time>2018-04-20T18:38:42.918Z</time>
      </trkpt>
      <trkpt lat="48.84158" lon="-3.22873">
        <ele>48.9</ele>
        <time>2018-04-20T18:38:44.139Z</time>
      </trkpt>
      <trkpt lat="48.84158" lon="-3.22842">
        <ele>49.3</ele>
        <time>2018-04-20T18:38:46.438Z</time>
      </trkpt>
      <trkpt lat="48.84157" lon="-3.22803">
        <ele>49.4</ele>
        <time>2018-04-20T18:38:49.265Z</time>
      </trkpt>
      <trkpt lat="48.84173" lon="-3.22688">
        <ele>49.6</ele>
        <time>2018-04-20T18:38:57.851Z</time>
      </trkpt>
      <trkpt lat="48.84192" lon="-3.2264">
        <ele>49.9</ele>
        <time>2018-04-20T18:39:02.016Z</time>
      </trkpt>
      <trkpt lat="48.84235" lon="-3.22549">
        <ele>49.4</ele>
        <time>2018-04-20T18:39:10.233Z</time>
      </trkpt>
      <trkpt lat="48.84276" lon="-3.22449">
        <ele>49.1</ele>
        <time>2018-04-20T18:39:18.829Z</time>
      </trkpt>
      <trkpt lat="48.84373" lon="-3.22344">
        <ele>49.2</ele>
        <time>2018-04-20T18:39:31.989Z</time>
      </trkpt>
      <trkpt lat="48.84473" lon="-3.22296">
        <ele>47.6</ele>
        <time>2018-04-20T18:39:43.741Z</time>
      </trkpt>
      <trkpt lat="48.84573" lon="-3.22297">
        <ele>45.3</ele>
        <time>2018-04-20T18:39:54.793Z</time>
      </trkpt>
      <trkpt lat="48.84603" lon="-3.21899">
        <ele>35.6</ele>
        <time>2018-04-20T18:40:24.136Z</time>
      </trkpt>
      <trkpt lat="48.84658" lon="-3.21783">
        <ele>30.5</ele>
        <time>2018-04-20T18:40:34.618Z</time>
      </trkpt>
      <trkpt lat="48.84698" lon="-3.21708">
        <ele>25.5</ele>
        <time>2018-04-20T18:40:41.691Z</time>
      </trkpt>
      <trkpt lat="48.84743" lon="-3.21513">
        <ele>16.7</ele>
        <time>2018-04-20T18:40:56.855Z</time>
      </trkpt>
      <trkpt lat="48.84751" lon="-3.21435">
        <ele>15.2</ele>
        <time>2018-04-20T18:41:02.579Z</time>
      </trkpt>
      <trkpt lat="48.84761" lon="-3.21373">
        <ele>13.6</ele>
        <time>2018-04-20T18:41:07.253Z</time>
      </trkpt>
      <trkpt lat="48.84794" lon="-3.21348">
        <ele>11.5</ele>
        <time>2018-04-20T18:41:11.353Z</time>
      </trkpt>
      <trkpt lat="48.84836" lon="-3.21339">
        <ele>9.4</ele>
        <time>2018-04-20T18:41:16.072Z</time>
      </trkpt>
      <trkpt lat="48.84876" lon="-3.21401">
        <ele>12.7</ele>
        <time>2018-04-20T18:41:22.376Z</time>
      </trkpt>
      <trkpt lat="48.84923" lon="-3.21588">
        <ele>25.1</ele>
        <time>2018-04-20T18:41:37.118Z</time>
      </trkpt>
      <trkpt lat="48.84949" lon="-3.21596">
        <ele>25.1</ele>
        <time>2018-04-20T18:41:40.083Z</time>
      </trkpt>
      <trkpt lat="48.84999" lon="-3.21567">
        <ele>23.1</ele>
        <time>2018-04-20T18:41:45.958Z</time>
      </trkpt>
      <trkpt lat="48.85045" lon="-3.21558">
        <ele>23</ele>
        <time>2018-04-20T18:41:51.144Z</time>
      </trkpt>
      <trkpt lat="48.85108" lon="-3.21563">
        <ele>23.7</ele>
        <time>2018-04-20T18:41:58.203Z</time>
      </trkpt>
      <trkpt lat="48.85135" lon="-3.21515">
        <ele>22.5</ele>
        <time>2018-04-20T18:42:02.823Z</time>
      </trkpt>
      <trkpt lat="48.853" lon="-3.21326">
        <ele>15.8</ele>
        <time>2018-04-20T18:42:25.725Z</time>
      </trkpt>
      <trkpt lat="48.85359" lon="-3.21268">
        <ele>14.9</ele>
        <time>2018-04-20T18:42:33.554Z</time>
      </trkpt>
      <trkpt lat="48.85402" lon="-3.21278">
        <ele>13.5</ele>
        <time>2018-04-20T18:42:38.471Z</time>
      </trkpt>
      <trkpt lat="48.85457" lon="-3.21273">
        <ele>10.3</ele>
        <time>2018-04-20T18:42:44.605Z</time>
      </trkpt>
      <trkpt lat="48.85567" lon="-3.21424">
        <ele>6.8</ele>
        <time>2018-04-20T18:43:01.057Z</time>
      </trkpt>
      <trkpt lat="48.85541" lon="-3.21646">
        <ele>13.3</ele>
        <time>2018-04-20T18:43:17.580Z</time>
      </trkpt>
      <trkpt lat="48.85519" lon="-3.21668">
        <ele>14.3</ele>
        <time>2018-04-20T18:43:20.514Z</time>
      </trkpt>
      <trkpt lat="48.85535" lon="-3.21841">
        <ele>14.4</ele>
        <time>2018-04-20T18:43:33.313Z</time>
      </trkpt>
      <trkpt lat="48.85525" lon="-3.21982">
        <ele>17.2</ele>
        <time>2018-04-20T18:43:43.681Z</time>
      </trkpt>
      <trkpt lat="48.85576" lon="-3.22151">
        <ele>22.5</ele>
        <time>2018-04-20T18:43:57.251Z</time>
      </trkpt>
      <trkpt lat="48.85576" lon="-3.22287">
        <ele>25.7</ele>
        <time>2018-04-20T18:44:07.224Z</time>
      </trkpt>
      <trkpt lat="48.85774" lon="-3.22178">
        <ele>22.2</ele>
        <time>2018-04-20T18:44:30.684Z</time>
      </trkpt>
      <trkpt lat="48.85785" lon="-3.22168">
        <ele>22.1</ele>
        <time>2018-04-20T18:44:32.069Z</time>
      </trkpt>
      <trkpt lat="48.85899" lon="-3.22036">
        <ele>23.9</ele>
        <time>2018-04-20T18:44:47.978Z</time>
      </trkpt>
      <trkpt lat="48.85909" lon="-3.22021">
        <ele>24.4</ele>
        <time>2018-04-20T18:44:49.633Z</time>
      </trkpt>
      <trkpt lat="48.8598" lon="-3.21914">
        <ele>28.8</ele>
        <time>2018-04-20T18:45:00.751Z</time>
      </trkpt>
      <trkpt lat="48.8599" lon="-3.21905">
        <ele>29</ele>
        <time>2018-04-20T18:45:02.002Z</time>
      </trkpt>
      <trkpt lat="48.86001" lon="-3.21899">
        <ele>29.1</ele>
        <time>2018-04-20T18:45:03.337Z</time>
      </trkpt>
      <trkpt lat="48.86058" lon="-3.21877">
        <ele>26.3</ele>
        <time>2018-04-20T18:45:09.896Z</time>
      </trkpt>
      <trkpt lat="48.86069" lon="-3.21877">
        <ele>25.7</ele>
        <time>2018-04-20T18:45:11.119Z</time>
      </trkpt>
      <trkpt lat="48.86081" lon="-3.21878">
        <ele>25.1</ele>
        <time>2018-04-20T18:45:12.406Z</time>
      </trkpt>
      <trkpt lat="48.86106" lon="-3.21887">
        <ele>24.3</ele>
        <time>2018-04-20T18:45:15.215Z</time>
      </trkpt>
      <trkpt lat="48.8623" lon="-3.21921">
        <ele>20.3</ele>
        <time>2018-04-20T18:45:29.283Z</time>
      </trkpt>
      <trkpt lat="48.86232" lon="-3.21921">
        <ele>20.2</ele>
        <time>2018-04-20T18:45:29.546Z</time>
      </trkpt>
      <trkpt lat="48.86234" lon="-3.21921">
        <ele>20.1</ele>
        <time>2018-04-20T18:45:29.747Z</time>
      </trkpt>
      <trkpt lat="48.86235" lon="-3.21921">
        <ele>20</ele>
        <time>2018-04-20T18:45:29.862Z</time>
      </trkpt>
      <trkpt lat="48.86236" lon="-3.21921">
        <ele>19.9</ele>
        <time>2018-04-20T18:45:29.984Z</time>
      </trkpt>
      <trkpt lat="48.86237" lon="-3.21921">
        <ele>19.9</ele>
        <time>2018-04-20T18:45:30.040Z</time>
      </trkpt>
      <trkpt lat="48.86238" lon="-3.21921">
        <ele>19.8</ele>
        <time>2018-04-20T18:45:30.208Z</time>
      </trkpt>
      <trkpt lat="48.86239" lon="-3.2192">
        <ele>19.7</ele>
        <time>2018-04-20T18:45:30.363Z</time>
      </trkpt>
      <trkpt lat="48.86241" lon="-3.21919">
        <ele>19.6</ele>
        <time>2018-04-20T18:45:30.564Z</time>
      </trkpt>
      <trkpt lat="48.86243" lon="-3.21916">
        <ele>19.4</ele>
        <time>2018-04-20T18:45:30.905Z</time>
      </trkpt>
      <trkpt lat="48.86247" lon="-3.21913">
        <ele>18.9</ele>
        <time>2018-04-20T18:45:31.339Z</time>
      </trkpt>
      <trkpt lat="48.86263" lon="-3.21901">
        <ele>16</ele>
        <time>2018-04-20T18:45:33.342Z</time>
      </trkpt>
      <trkpt lat="48.86311" lon="-3.21866">
        <ele>7.9</ele>
        <time>2018-04-20T18:45:39.369Z</time>
      </trkpt>
      <trkpt lat="48.86319" lon="-3.21864">
        <ele>7</ele>
        <time>2018-04-20T18:45:40.217Z</time>
      </trkpt>
      <trkpt lat="48.86326" lon="-3.21864">
        <ele>6.3</ele>
        <time>2018-04-20T18:45:41.001Z</time>
      </trkpt>
      <trkpt lat="48.86333" lon="-3.21867">
        <ele>5.7</ele>
        <time>2018-04-20T18:45:41.837Z</time>
      </trkpt>
      <trkpt lat="48.8634" lon="-3.21872">
        <ele>5.6</ele>
        <time>2018-04-20T18:45:42.761Z</time>
      </trkpt>
      <trkpt lat="48.86389" lon="-3.21893">
        <ele>4.6</ele>
        <time>2018-04-20T18:45:48.354Z</time>
      </trkpt>
      <trkpt lat="48.86398" lon="-3.21892">
        <ele>4.2</ele>
        <time>2018-04-20T18:45:49.374Z</time>
      </trkpt>
      <trkpt lat="48.86407" lon="-3.21889">
        <ele>3.8</ele>
        <time>2018-04-20T18:45:50.340Z</time>
      </trkpt>
      <trkpt lat="48.86425" lon="-3.2188">
        <ele>3</ele>
        <time>2018-04-20T18:45:52.462Z</time>
      </trkpt>
      <trkpt lat="48.86426" lon="-3.21878">
        <ele>3</ele>
        <time>2018-04-20T18:45:52.709Z</time>
      </trkpt>
      <trkpt lat="48.86429" lon="-3.21876">
        <ele>2.9</ele>
        <time>2018-04-20T18:45:53.032Z</time>
      </trkpt>
      <trkpt lat="48.86431" lon="-3.21875">
        <ele>2.8</ele>
        <time>2018-04-20T18:45:53.300Z</time>
      </trkpt>
      <trkpt lat="48.86433" lon="-3.21874">
        <ele>2.8</ele>
        <time>2018-04-20T18:45:53.484Z</time>
      </trkpt>
      <trkpt lat="48.86434" lon="-3.21873">
        <ele>2.8</ele>
        <time>2018-04-20T18:45:53.576Z</time>
      </trkpt>
      <trkpt lat="48.86436" lon="-3.21873">
        <ele>2.7</ele>
        <time>2018-04-20T18:45:53.821Z</time>
      </trkpt>
      <trkpt lat="48.86438" lon="-3.21873">
        <ele>2.7</ele>
        <time>2018-04-20T18:45:54.061Z</time>
      </trkpt>
      <trkpt lat="48.8644" lon="-3.21872">
        <ele>2.7</ele>
        <time>2018-04-20T18:45:54.330Z</time>
      </trkpt>
      <trkpt lat="48.86443" lon="-3.2187">
        <ele>2.6</ele>
        <time>2018-04-20T18:45:54.637Z</time>
      </trkpt>
      <trkpt lat="48.8645" lon="-3.21862">
        <ele>2.4</ele>
        <time>2018-04-20T18:45:55.647Z</time>
      </trkpt>
      <trkpt lat="48.86452" lon="-3.21862">
        <ele>2.4</ele>
        <time>2018-04-20T18:45:55.838Z</time>
      </trkpt>
      <trkpt lat="48.86454" lon="-3.21862">
        <ele>2.4</ele>
        <time>2018-04-20T18:45:56.076Z</time>
      </trkpt>
      <trkpt lat="48.86455" lon="-3.21862">
        <ele>2.4</ele>
        <time>2018-04-20T18:45:56.154Z</time>
      </trkpt>
      <trkpt lat="48.86455" lon="-3.21863">
        <ele>2.4</ele>
        <time>2018-04-20T18:45:56.249Z</time>
      </trkpt>
      <trkpt lat="48.86454" lon="-3.21863">
        <ele>2.4</ele>
        <time>2018-04-20T18:45:56.265Z</time>
      </trkpt>
      <trkpt lat="48.86454" lon="-3.21862">
        <ele>2.4</ele>
        <time>2018-04-20T18:45:56.305Z</time>
      </trkpt>
      <trkpt lat="48.86455" lon="-3.21863">
        <ele>2.4</ele>
        <time>2018-04-20T18:45:56.467Z</time>
      </trkpt>
      <trkpt lat="48.86456" lon="-3.21863">
        <ele>2.4</ele>
        <time>2018-04-20T18:45:56.595Z</time>
      </trkpt>
      <trkpt lat="48.86468" lon="-3.21865">
        <ele>2.3</ele>
        <time>2018-04-20T18:45:57.939Z</time>
      </trkpt>
      <trkpt lat="48.86495" lon="-3.21868">
        <ele>2</ele>
        <time>2018-04-20T18:46:00.983Z</time>
      </trkpt>
      <trkpt lat="48.8651" lon="-3.21868">
        <ele>2</ele>
        <time>2018-04-20T18:46:02.616Z</time>
      </trkpt>
      <trkpt lat="48.86514" lon="-3.21867">
        <ele>2</ele>
        <time>2018-04-20T18:46:03.088Z</time>
      </trkpt>
      <trkpt lat="48.86518" lon="-3.21866">
        <ele>2</ele>
        <time>2018-04-20T18:46:03.486Z</time>
      </trkpt>
      <trkpt lat="48.8652" lon="-3.21864">
        <ele>2</ele>
        <time>2018-04-20T18:46:03.844Z</time>
      </trkpt>
      <trkpt lat="48.86523" lon="-3.21861">
        <ele>2</ele>
        <time>2018-04-20T18:46:04.183Z</time>
      </trkpt>
      <trkpt lat="48.86524" lon="-3.21861">
        <ele>2</ele>
        <time>2018-04-20T18:46:04.240Z</time>
      </trkpt>
      <trkpt lat="48.86523" lon="-3.21862">
        <ele>2</ele>
        <time>2018-04-20T18:46:04.282Z</time>
      </trkpt>
      <trkpt lat="48.86522" lon="-3.21863">
        <ele>2</ele>
        <time>2018-04-20T18:46:04.430Z</time>
      </trkpt>
      <trkpt lat="48.86523" lon="-3.21862">
        <ele>2</ele>
        <time>2018-04-20T18:46:04.573Z</time>
      </trkpt>
      <trkpt lat="48.86523" lon="-3.21861">
        <ele>2</ele>
        <time>2018-04-20T18:46:04.695Z</time>
      </trkpt>
      <trkpt lat="48.86524" lon="-3.2186">
        <ele>2</ele>
        <time>2018-04-20T18:46:04.748Z</time>
      </trkpt>
      <trkpt lat="48.86524" lon="-3.21859">
        <ele>2</ele>
        <time>2018-04-20T18:46:04.851Z</time>
      </trkpt>
      <trkpt lat="48.86525" lon="-3.21859">
        <ele>2</ele>
        <time>2018-04-20T18:46:04.873Z</time>
      </trkpt>
      <trkpt lat="48.86525" lon="-3.2186">
        <ele>2</ele>
        <time>2018-04-20T18:46:05.080Z</time>
      </trkpt>
      <trkpt lat="48.86525" lon="-3.21861">
        <ele>2</ele>
        <time>2018-04-20T18:46:05.150Z</time>
      </trkpt>
      <trkpt lat="48.86524" lon="-3.21861">
        <ele>2</ele>
        <time>2018-04-20T18:46:05.194Z</time>
      </trkpt>
      <trkpt lat="48.86525" lon="-3.21861">
        <ele>2</ele>
        <time>2018-04-20T18:46:05.257Z</time>
      </trkpt>
      <trkpt lat="48.86525" lon="-3.2186">
        <ele>2</ele>
        <time>2018-04-20T18:46:05.303Z</time>
      </trkpt>
      <trkpt lat="48.86525" lon="-3.21859">
        <ele>2</ele>
        <time>2018-04-20T18:46:05.431Z</time>
      </trkpt>
      <trkpt lat="48.86525" lon="-3.21859">
        <ele>2</ele>
        <time>2018-04-20T18:46:05.513Z</time>
      </trkpt>
      <trkpt lat="48.86525" lon="-3.21858">
        <ele>2</ele>
        <time>2018-04-20T18:46:05.565Z</time>
      </trkpt>
      <trkpt lat="48.86525" lon="-3.21858">
        <ele>2</ele>
        <time>2018-04-20T18:46:05.670Z</time>
      </trkpt>
      <trkpt lat="48.86525" lon="-3.21857">
        <ele>2</ele>
        <time>2018-04-20T18:46:05.686Z</time>
      </trkpt>
      <trkpt lat="48.86525" lon="-3.21858">
        <ele>2</ele>
        <time>2018-04-20T18:46:05.742Z</time>
      </trkpt>
      <trkpt lat="48.86524" lon="-3.21858">
        <ele>2</ele>
        <time>2018-04-20T18:46:05.764Z</time>
      </trkpt>
      <trkpt lat="48.86525" lon="-3.21857">
        <ele>2</ele>
        <time>2018-04-20T18:46:05.788Z</time>
      </trkpt>
      <trkpt lat="48.86525" lon="-3.21857">
        <ele>2</ele>
        <time>2018-04-20T18:46:05.970Z</time>
      </trkpt>
      <trkpt lat="48.86525" lon="-3.21858">
        <ele>2</ele>
        <time>2018-04-20T18:46:06.057Z</time>
      </trkpt>
      <trkpt lat="48.86524" lon="-3.21858">
        <ele>2</ele>
        <time>2018-04-20T18:46:06.097Z</time>
      </trkpt>
      <trkpt lat="48.86525" lon="-3.21858">
        <ele>2</ele>
        <time>2018-04-20T18:46:06.151Z</time>
      </trkpt>
      <trkpt lat="48.86524" lon="-3.21859">
        <ele>2</ele>
        <time>2018-04-20T18:46:06.218Z</time>
      </trkpt>
      <trkpt lat="48.86524" lon="-3.2186">
        <ele>2</ele>
        <time>2018-04-20T18:46:06.306Z</time>
      </trkpt>
      <trkpt lat="48.86525" lon="-3.2186">
        <ele>2</ele>
        <time>2018-04-20T18:46:06.365Z</time>
      </trkpt>
      <trkpt lat="48.86525" lon="-3.21861">
        <ele>2</ele>
        <time>2018-04-20T18:46:06.460Z</time>
      </trkpt>
      <trkpt lat="48.86526" lon="-3.21861">
        <ele>2</ele>
        <time>2018-04-20T18:46:06.533Z</time>
      </trkpt>
      <trkpt lat="48.86527" lon="-3.21861">
        <ele>2</ele>
        <time>2018-04-20T18:46:06.649Z</time>
      </trkpt>
      <trkpt lat="48.86528" lon="-3.21862">
        <ele>2</ele>
        <time>2018-04-20T18:46:06.777Z</time>
      </trkpt>
      <trkpt lat="48.86529" lon="-3.21864">
        <ele>2</ele>
        <time>2018-04-20T18:46:06.903Z</time>
      </trkpt>
      <trkpt lat="48.86533" lon="-3.21867">
        <ele>2</ele>
        <time>2018-04-20T18:46:07.403Z</time>
      </trkpt>
      <trkpt lat="48.86535" lon="-3.21869">
        <ele>2</ele>
        <time>2018-04-20T18:46:07.716Z</time>
      </trkpt>
      <trkpt lat="48.86538" lon="-3.2187">
        <ele>2</ele>
        <time>2018-04-20T18:46:08.074Z</time>
      </trkpt>
      <trkpt lat="48.86586" lon="-3.2192">
        <ele>2</ele>
        <time>2018-04-20T18:46:14.501Z</time>
      </trkpt>
      <trkpt lat="48.86616" lon="-3.21987">
        <ele>1.5</ele>
        <time>2018-04-20T18:46:20.419Z</time>
      </trkpt>
      <trkpt lat="48.86574" lon="-3.22059">
        <ele>4.5</ele>
        <time>2018-04-20T18:46:27.494Z</time>
      </trkpt>
      <trkpt lat="48.86605" lon="-3.22158">
        <ele>4.1</ele>
        <time>2018-04-20T18:46:35.543Z</time>
      </trkpt>
      <trkpt lat="48.86633" lon="-3.22243">
        <ele>4</ele>
        <time>2018-04-20T18:46:42.543Z</time>
      </trkpt>
      <trkpt lat="48.86667" lon="-3.22281">
        <ele>1</ele>
        <time>2018-04-20T18:46:47.172Z</time>
      </trkpt>
      <trkpt lat="48.86609" lon="-3.22356">
        <ele>4.1</ele>
        <time>2018-04-20T18:46:55.644Z</time>
      </trkpt>
      <trkpt lat="48.86567" lon="-3.22382">
        <ele>6.1</ele>
        <time>2018-04-20T18:47:00.740Z</time>
      </trkpt>
      <trkpt lat="48.8655" lon="-3.22476">
        <ele>6.5</ele>
        <time>2018-04-20T18:47:07.821Z</time>
      </trkpt>
      <trkpt lat="48.86551" lon="-3.22489">
        <ele>6.3</ele>
        <time>2018-04-20T18:47:08.819Z</time>
      </trkpt>
      <trkpt lat="48.86559" lon="-3.22495">
        <ele>6</ele>
        <time>2018-04-20T18:47:09.706Z</time>
      </trkpt>
      <trkpt lat="48.86565" lon="-3.22496">
        <ele>5.7</ele>
        <time>2018-04-20T18:47:10.418Z</time>
      </trkpt>
      <trkpt lat="48.86568" lon="-3.22501">
        <ele>5.6</ele>
        <time>2018-04-20T18:47:10.939Z</time>
      </trkpt>
      <trkpt lat="48.86575" lon="-3.22513">
        <ele>5.6</ele>
        <time>2018-04-20T18:47:12.112Z</time>
      </trkpt>
      <trkpt lat="48.86577" lon="-3.22521">
        <ele>5.7</ele>
        <time>2018-04-20T18:47:12.727Z</time>
      </trkpt>
      <trkpt lat="48.86578" lon="-3.2253">
        <ele>5.9</ele>
        <time>2018-04-20T18:47:13.428Z</time>
      </trkpt>
      <trkpt lat="48.86579" lon="-3.2254">
        <ele>6.1</ele>
        <time>2018-04-20T18:47:14.177Z</time>
      </trkpt>
      <trkpt lat="48.86583" lon="-3.22574">
        <ele>6.8</ele>
        <time>2018-04-20T18:47:16.658Z</time>
      </trkpt>
      <trkpt lat="48.86586" lon="-3.22584">
        <ele>7</ele>
        <time>2018-04-20T18:47:17.460Z</time>
      </trkpt>
      <trkpt lat="48.86595" lon="-3.22603">
        <ele>7.2</ele>
        <time>2018-04-20T18:47:19.158Z</time>
      </trkpt>
      <trkpt lat="48.86601" lon="-3.22611">
        <ele>7.3</ele>
        <time>2018-04-20T18:47:20.033Z</time>
      </trkpt>
      <trkpt lat="48.86621" lon="-3.22632">
        <ele>7</ele>
        <time>2018-04-20T18:47:22.762Z</time>
      </trkpt>
      <trkpt lat="48.86632" lon="-3.22643">
        <ele>6.6</ele>
        <time>2018-04-20T18:47:24.271Z</time>
      </trkpt>
      <trkpt lat="48.86636" lon="-3.2265">
        <ele>6.4</ele>
        <time>2018-04-20T18:47:24.923Z</time>
      </trkpt>
      <trkpt lat="48.86637" lon="-3.22658">
        <ele>6.2</ele>
        <time>2018-04-20T18:47:25.521Z</time>
      </trkpt>
      <trkpt lat="48.86636" lon="-3.22669">
        <ele>6</ele>
        <time>2018-04-20T18:47:26.329Z</time>
      </trkpt>
      <trkpt lat="48.86636" lon="-3.22768">
        <ele>4.1</ele>
        <time>2018-04-20T18:47:33.557Z</time>
      </trkpt>
      <trkpt lat="48.86636" lon="-3.22785">
        <ele>4.2</ele>
        <time>2018-04-20T18:47:34.793Z</time>
      </trkpt>
      <trkpt lat="48.86634" lon="-3.2285">
        <ele>5.3</ele>
        <time>2018-04-20T18:47:39.535Z</time>
      </trkpt>
      <trkpt lat="48.8663" lon="-3.22867">
        <ele>5.9</ele>
        <time>2018-04-20T18:47:40.874Z</time>
      </trkpt>
      <trkpt lat="48.86619" lon="-3.22903">
        <ele>7</ele>
        <time>2018-04-20T18:47:43.798Z</time>
      </trkpt>
      <trkpt lat="48.86605" lon="-3.22937">
        <ele>8</ele>
        <time>2018-04-20T18:47:46.661Z</time>
      </trkpt>
      <trkpt lat="48.86564" lon="-3.23023">
        <ele>9.7</ele>
        <time>2018-04-20T18:47:54.444Z</time>
      </trkpt>
      <trkpt lat="48.86538" lon="-3.2308">
        <ele>8.8</ele>
        <time>2018-04-20T18:47:59.508Z</time>
      </trkpt>
      <trkpt lat="48.86481" lon="-3.23235">
        <ele>5.8</ele>
        <time>2018-04-20T18:48:12.527Z</time>
      </trkpt>
      <trkpt lat="48.86479" lon="-3.23246">
        <ele>5.7</ele>
        <time>2018-04-20T18:48:13.407Z</time>
      </trkpt>
      <trkpt lat="48.86473" lon="-3.23291">
        <ele>5.5</ele>
        <time>2018-04-20T18:48:16.729Z</time>
      </trkpt>
      <trkpt lat="48.86502" lon="-3.23316">
        <ele>6</ele>
        <time>2018-04-20T18:48:20.484Z</time>
      </trkpt>
      <trkpt lat="48.86548" lon="-3.23353">
        <ele>5.4</ele>
        <time>2018-04-20T18:48:26.252Z</time>
      </trkpt>
      <trkpt lat="48.86562" lon="-3.23388">
        <ele>5.3</ele>
        <time>2018-04-20T18:48:29.260Z</time>
      </trkpt>
      <trkpt lat="48.86525" lon="-3.23333">
        <ele>5.7</ele>
        <time>2018-04-20T18:48:34.974Z</time>
      </trkpt>
      <trkpt lat="48.8647" lon="-3.23294">
        <ele>5.4</ele>
        <time>2018-04-20T18:48:41.750Z</time>
      </trkpt>
      <trkpt lat="48.86466" lon="-3.23296">
        <ele>5.4</ele>
        <time>2018-04-20T18:48:42.198Z</time>
      </trkpt>
      <trkpt lat="48.86462" lon="-3.23297">
        <ele>5.3</ele>
        <time>2018-04-20T18:48:42.626Z</time>
      </trkpt>
      <trkpt lat="48.86457" lon="-3.23297">
        <ele>5.2</ele>
        <time>2018-04-20T18:48:43.220Z</time>
      </trkpt>
      <trkpt lat="48.86455" lon="-3.23294">
        <ele>5.2</ele>
        <time>2018-04-20T18:48:43.494Z</time>
      </trkpt>
      <trkpt lat="48.86454" lon="-3.23294">
        <ele>5.2</ele>
        <time>2018-04-20T18:48:43.598Z</time>
      </trkpt>
      <trkpt lat="48.86425" lon="-3.23274">
        <ele>4.8</ele>
        <time>2018-04-20T18:48:47.168Z</time>
      </trkpt>
      <trkpt lat="48.86419" lon="-3.23268">
        <ele>4.8</ele>
        <time>2018-04-20T18:48:47.966Z</time>
      </trkpt>
      <trkpt lat="48.86414" lon="-3.2326">
        <ele>4.9</ele>
        <time>2018-04-20T18:48:48.793Z</time>
      </trkpt>
      <trkpt lat="48.86402" lon="-3.2324">
        <ele>5.2</ele>
        <time>2018-04-20T18:48:50.763Z</time>
      </trkpt>
      <trkpt lat="48.86373" lon="-3.232">
        <ele>6.1</ele>
        <time>2018-04-20T18:48:55.104Z</time>
      </trkpt>
      <trkpt lat="48.86364" lon="-3.23194">
        <ele>6.5</ele>
        <time>2018-04-20T18:48:56.203Z</time>
      </trkpt>
      <trkpt lat="48.86337" lon="-3.23183">
        <ele>7.5</ele>
        <time>2018-04-20T18:48:59.283Z</time>
      </trkpt>
      <trkpt lat="48.86329" lon="-3.23182">
        <ele>8.1</ele>
        <time>2018-04-20T18:49:00.228Z</time>
      </trkpt>
      <trkpt lat="48.8632" lon="-3.23183">
        <ele>8.9</ele>
        <time>2018-04-20T18:49:01.235Z</time>
      </trkpt>
      <trkpt lat="48.86279" lon="-3.23183">
        <ele>13</ele>
        <time>2018-04-20T18:49:05.814Z</time>
      </trkpt>
      <trkpt lat="48.86267" lon="-3.2318">
        <ele>14.3</ele>
        <time>2018-04-20T18:49:07.129Z</time>
      </trkpt>
      <trkpt lat="48.86196" lon="-3.23161">
        <ele>21</ele>
        <time>2018-04-20T18:49:15.216Z</time>
      </trkpt>
      <trkpt lat="48.86193" lon="-3.23155">
        <ele>21.2</ele>
        <time>2018-04-20T18:49:15.726Z</time>
      </trkpt>
      <trkpt lat="48.86189" lon="-3.23138">
        <ele>21.7</ele>
        <time>2018-04-20T18:49:17.038Z</time>
      </trkpt>
      <trkpt lat="48.86187" lon="-3.23128">
        <ele>22</ele>
        <time>2018-04-20T18:49:17.835Z</time>
      </trkpt>
      <trkpt lat="48.86185" lon="-3.23116">
        <ele>22.3</ele>
        <time>2018-04-20T18:49:18.728Z</time>
      </trkpt>
      <trkpt lat="48.8618" lon="-3.23105">
        <ele>22.8</ele>
        <time>2018-04-20T18:49:19.687Z</time>
      </trkpt>
      <trkpt lat="48.86169" lon="-3.23065">
        <ele>23.2</ele>
        <time>2018-04-20T18:49:22.852Z</time>
      </trkpt>
      <trkpt lat="48.86165" lon="-3.23038">
        <ele>22.4</ele>
        <time>2018-04-20T18:49:24.869Z</time>
      </trkpt>
      <trkpt lat="48.86163" lon="-3.23026">
        <ele>22</ele>
        <time>2018-04-20T18:49:25.789Z</time>
      </trkpt>
      <trkpt lat="48.86159" lon="-3.23016">
        <ele>21.6</ele>
        <time>2018-04-20T18:49:26.596Z</time>
      </trkpt>
      <trkpt lat="48.86144" lon="-3.22982">
        <ele>20.6</ele>
        <time>2018-04-20T18:49:29.601Z</time>
      </trkpt>
      <trkpt lat="48.8614" lon="-3.22976">
        <ele>20.5</ele>
        <time>2018-04-20T18:49:30.242Z</time>
      </trkpt>
      <trkpt lat="48.8613" lon="-3.22968">
        <ele>20.3</ele>
        <time>2018-04-20T18:49:31.486Z</time>
      </trkpt>
      <trkpt lat="48.86126" lon="-3.22966">
        <ele>20.3</ele>
        <time>2018-04-20T18:49:32.005Z</time>
      </trkpt>
      <trkpt lat="48.86112" lon="-3.2296">
        <ele>20.2</ele>
        <time>2018-04-20T18:49:33.647Z</time>
      </trkpt>
      <trkpt lat="48.86109" lon="-3.22958">
        <ele>20.2</ele>
        <time>2018-04-20T18:49:34.006Z</time>
      </trkpt>
      <trkpt lat="48.86108" lon="-3.22958">
        <ele>20.2</ele>
        <time>2018-04-20T18:49:34.053Z</time>
      </trkpt>
      <trkpt lat="48.86108" lon="-3.22957">
        <ele>20.2</ele>
        <time>2018-04-20T18:49:34.133Z</time>
      </trkpt>
      <trkpt lat="48.86107" lon="-3.22957">
        <ele>20.2</ele>
        <time>2018-04-20T18:49:34.265Z</time>
      </trkpt>
      <trkpt lat="48.86105" lon="-3.22957">
        <ele>20.2</ele>
        <time>2018-04-20T18:49:34.492Z</time>
      </trkpt>
      <trkpt lat="48.86102" lon="-3.22959">
        <ele>20.3</ele>
        <time>2018-04-20T18:49:34.841Z</time>
      </trkpt>
      <trkpt lat="48.86098" lon="-3.22961">
        <ele>20.5</ele>
        <time>2018-04-20T18:49:35.279Z</time>
      </trkpt>
      <trkpt lat="48.86095" lon="-3.22965">
        <ele>20.6</ele>
        <time>2018-04-20T18:49:35.751Z</time>
      </trkpt>
      <trkpt lat="48.86076" lon="-3.2299">
        <ele>21.7</ele>
        <time>2018-04-20T18:49:38.557Z</time>
      </trkpt>
      <trkpt lat="48.8607" lon="-3.22999">
        <ele>22</ele>
        <time>2018-04-20T18:49:39.453Z</time>
      </trkpt>
      <trkpt lat="48.8604" lon="-3.23046">
        <ele>21.7</ele>
        <time>2018-04-20T18:49:44.222Z</time>
      </trkpt>
      <trkpt lat="48.86033" lon="-3.23052">
        <ele>21.6</ele>
        <time>2018-04-20T18:49:45.158Z</time>
      </trkpt>
      <trkpt lat="48.86026" lon="-3.23057">
        <ele>21.5</ele>
        <time>2018-04-20T18:49:46.022Z</time>
      </trkpt>
      <trkpt lat="48.8601" lon="-3.23068">
        <ele>21.3</ele>
        <time>2018-04-20T18:49:47.944Z</time>
      </trkpt>
      <trkpt lat="48.86007" lon="-3.23074">
        <ele>21.2</ele>
        <time>2018-04-20T18:49:48.511Z</time>
      </trkpt>
      <trkpt lat="48.86004" lon="-3.2308">
        <ele>21.1</ele>
        <time>2018-04-20T18:49:49.071Z</time>
      </trkpt>
      <trkpt lat="48.86" lon="-3.23097">
        <ele>21.2</ele>
        <time>2018-04-20T18:49:50.380Z</time>
      </trkpt>
      <trkpt lat="48.85999" lon="-3.23107">
        <ele>21.3</ele>
        <time>2018-04-20T18:49:51.150Z</time>
      </trkpt>
      <trkpt lat="48.85998" lon="-3.23131">
        <ele>21.6</ele>
        <time>2018-04-20T18:49:52.904Z</time>
      </trkpt>
      <trkpt lat="48.85996" lon="-3.23204">
        <ele>21.7</ele>
        <time>2018-04-20T18:49:58.224Z</time>
      </trkpt>
      <trkpt lat="48.85993" lon="-3.23219">
        <ele>21.6</ele>
        <time>2018-04-20T18:49:59.368Z</time>
      </trkpt>
      <trkpt lat="48.85988" lon="-3.23234">
        <ele>21.6</ele>
        <time>2018-04-20T18:50:00.565Z</time>
      </trkpt>
      <trkpt lat="48.85972" lon="-3.23271">
        <ele>21.7</ele>
        <time>2018-04-20T18:50:03.843Z</time>
      </trkpt>
      <trkpt lat="48.85954" lon="-3.2332">
        <ele>21.2</ele>
        <time>2018-04-20T18:50:07.962Z</time>
      </trkpt>
      <trkpt lat="48.8595" lon="-3.23348">
        <ele>20.4</ele>
        <time>2018-04-20T18:50:10.020Z</time>
      </trkpt>
      <trkpt lat="48.8595" lon="-3.23362">
        <ele>19.8</ele>
        <time>2018-04-20T18:50:11.070Z</time>
      </trkpt>
      <trkpt lat="48.85953" lon="-3.23374">
        <ele>19.3</ele>
        <time>2018-04-20T18:50:12.005Z</time>
      </trkpt>
      <trkpt lat="48.85957" lon="-3.23385">
        <ele>18.8</ele>
        <time>2018-04-20T18:50:12.937Z</time>
      </trkpt>
      <trkpt lat="48.85966" lon="-3.23409">
        <ele>17.7</ele>
        <time>2018-04-20T18:50:14.968Z</time>
      </trkpt>
      <trkpt lat="48.85969" lon="-3.23423">
        <ele>16.9</ele>
        <time>2018-04-20T18:50:16.026Z</time>
      </trkpt>
      <trkpt lat="48.85971" lon="-3.23436">
        <ele>15.9</ele>
        <time>2018-04-20T18:50:17.012Z</time>
      </trkpt>
      <trkpt lat="48.85972" lon="-3.23449">
        <ele>14.9</ele>
        <time>2018-04-20T18:50:17.964Z</time>
      </trkpt>
      <trkpt lat="48.85972" lon="-3.23461">
        <ele>14</ele>
        <time>2018-04-20T18:50:18.845Z</time>
      </trkpt>
      <trkpt lat="48.85971" lon="-3.23472">
        <ele>13.2</ele>
        <time>2018-04-20T18:50:19.677Z</time>
      </trkpt>
      <trkpt lat="48.85967" lon="-3.23481">
        <ele>12.6</ele>
        <time>2018-04-20T18:50:20.491Z</time>
      </trkpt>
      <trkpt lat="48.8596" lon="-3.23489">
        <ele>12.2</ele>
        <time>2018-04-20T18:50:21.402Z</time>
      </trkpt>
      <trkpt lat="48.85955" lon="-3.23497">
        <ele>11.8</ele>
        <time>2018-04-20T18:50:22.281Z</time>
      </trkpt>
      <trkpt lat="48.85951" lon="-3.23507">
        <ele>11.5</ele>
        <time>2018-04-20T18:50:23.156Z</time>
      </trkpt>
      <trkpt lat="48.85949" lon="-3.2352">
        <ele>11.1</ele>
        <time>2018-04-20T18:50:24.093Z</time>
      </trkpt>
      <trkpt lat="48.85948" lon="-3.23534">
        <ele>10.6</ele>
        <time>2018-04-20T18:50:25.106Z</time>
      </trkpt>
      <trkpt lat="48.8595" lon="-3.23548">
        <ele>10.1</ele>
        <time>2018-04-20T18:50:26.192Z</time>
      </trkpt>
      <trkpt lat="48.85956" lon="-3.23578">
        <ele>8.8</ele>
        <time>2018-04-20T18:50:28.451Z</time>
      </trkpt>
      <trkpt lat="48.85978" lon="-3.23685">
        <ele>6.1</ele>
        <time>2018-04-20T18:50:36.654Z</time>
      </trkpt>
      <trkpt lat="48.85978" lon="-3.23691">
        <ele>5.9</ele>
        <time>2018-04-20T18:50:37.154Z</time>
      </trkpt>
      <trkpt lat="48.85976" lon="-3.23697">
        <ele>5.8</ele>
        <time>2018-04-20T18:50:37.582Z</time>
      </trkpt>
      <trkpt lat="48.85974" lon="-3.23702">
        <ele>5.8</ele>
        <time>2018-04-20T18:50:38.070Z</time>
      </trkpt>
      <trkpt lat="48.85967" lon="-3.23713">
        <ele>5.7</ele>
        <time>2018-04-20T18:50:39.153Z</time>
      </trkpt>
      <trkpt lat="48.85962" lon="-3.23718">
        <ele>5.7</ele>
        <time>2018-04-20T18:50:39.816Z</time>
      </trkpt>
      <trkpt lat="48.85946" lon="-3.2373">
        <ele>5.8</ele>
        <time>2018-04-20T18:50:41.827Z</time>
      </trkpt>
      <trkpt lat="48.85941" lon="-3.23732">
        <ele>5.8</ele>
        <time>2018-04-20T18:50:42.430Z</time>
      </trkpt>
      <trkpt lat="48.85931" lon="-3.23736">
        <ele>6</ele>
        <time>2018-04-20T18:50:43.590Z</time>
      </trkpt>
      <trkpt lat="48.85868" lon="-3.23759">
        <ele>7.3</ele>
        <time>2018-04-20T18:50:50.747Z</time>
      </trkpt>
      <trkpt lat="48.85843" lon="-3.23773">
        <ele>7.5</ele>
        <time>2018-04-20T18:50:53.735Z</time>
      </trkpt>
      <trkpt lat="48.85794" lon="-3.23808">
        <ele>7.4</ele>
        <time>2018-04-20T18:50:59.723Z</time>
      </trkpt>
      <trkpt lat="48.8579" lon="-3.23815">
        <ele>7.1</ele>
        <time>2018-04-20T18:51:00.389Z</time>
      </trkpt>
      <trkpt lat="48.85785" lon="-3.23834">
        <ele>6.2</ele>
        <time>2018-04-20T18:51:01.929Z</time>
      </trkpt>
      <trkpt lat="48.85785" lon="-3.23847">
        <ele>6</ele>
        <time>2018-04-20T18:51:02.894Z</time>
      </trkpt>
      <trkpt lat="48.85785" lon="-3.2386">
        <ele>5.8</ele>
        <time>2018-04-20T18:51:03.834Z</time>
      </trkpt>
      <trkpt lat="48.85785" lon="-3.23872">
        <ele>5.7</ele>
        <time>2018-04-20T18:51:04.724Z</time>
      </trkpt>
      <trkpt lat="48.85783" lon="-3.23896">
        <ele>5.4</ele>
        <time>2018-04-20T18:51:06.449Z</time>
      </trkpt>
      <trkpt lat="48.85781" lon="-3.23907">
        <ele>5.4</ele>
        <time>2018-04-20T18:51:07.270Z</time>
      </trkpt>
      <trkpt lat="48.85778" lon="-3.23917">
        <ele>5.4</ele>
        <time>2018-04-20T18:51:08.140Z</time>
      </trkpt>
      <trkpt lat="48.85774" lon="-3.23927">
        <ele>5.8</ele>
        <time>2018-04-20T18:51:09.008Z</time>
      </trkpt>
      <trkpt lat="48.85769" lon="-3.23934">
        <ele>6.2</ele>
        <time>2018-04-20T18:51:09.775Z</time>
      </trkpt>
      <trkpt lat="48.85756" lon="-3.23943">
        <ele>7</ele>
        <time>2018-04-20T18:51:11.355Z</time>
      </trkpt>
      <trkpt lat="48.85748" lon="-3.23935">
        <ele>6.9</ele>
        <time>2018-04-20T18:51:12.381Z</time>
      </trkpt>
      <trkpt lat="48.85725" lon="-3.23913">
        <ele>6</ele>
        <time>2018-04-20T18:51:15.410Z</time>
      </trkpt>
      <trkpt lat="48.85716" lon="-3.23908">
        <ele>6.1</ele>
        <time>2018-04-20T18:51:16.409Z</time>
      </trkpt>
      <trkpt lat="48.85708" lon="-3.23904">
        <ele>6.1</ele>
        <time>2018-04-20T18:51:17.356Z</time>
      </trkpt>
      <trkpt lat="48.857" lon="-3.23902">
        <ele>6.2</ele>
        <time>2018-04-20T18:51:18.296Z</time>
      </trkpt>
      <trkpt lat="48.85692" lon="-3.23902">
        <ele>6.2</ele>
        <time>2018-04-20T18:51:19.223Z</time>
      </trkpt>
      <trkpt lat="48.85683" lon="-3.23902">
        <ele>6.2</ele>
        <time>2018-04-20T18:51:20.129Z</time>
      </trkpt>
      <trkpt lat="48.85675" lon="-3.23904">
        <ele>6.1</ele>
        <time>2018-04-20T18:51:21.053Z</time>
      </trkpt>
      <trkpt lat="48.85668" lon="-3.23909">
        <ele>6.1</ele>
        <time>2018-04-20T18:51:21.892Z</time>
      </trkpt>
      <trkpt lat="48.85662" lon="-3.23915">
        <ele>6</ele>
        <time>2018-04-20T18:51:22.742Z</time>
      </trkpt>
      <trkpt lat="48.85657" lon="-3.23924">
        <ele>6.1</ele>
        <time>2018-04-20T18:51:23.606Z</time>
      </trkpt>
      <trkpt lat="48.85653" lon="-3.23935">
        <ele>6.2</ele>
        <time>2018-04-20T18:51:24.509Z</time>
      </trkpt>
      <trkpt lat="48.85651" lon="-3.23949">
        <ele>6.5</ele>
        <time>2018-04-20T18:51:25.596Z</time>
      </trkpt>
      <trkpt lat="48.85642" lon="-3.23996">
        <ele>7.3</ele>
        <time>2018-04-20T18:51:29.156Z</time>
      </trkpt>
      <trkpt lat="48.85638" lon="-3.24011">
        <ele>7.6</ele>
        <time>2018-04-20T18:51:30.350Z</time>
      </trkpt>
      <trkpt lat="48.85624" lon="-3.24051">
        <ele>8.2</ele>
        <time>2018-04-20T18:51:33.668Z</time>
      </trkpt>
      <trkpt lat="48.85613" lon="-3.24074">
        <ele>8.3</ele>
        <time>2018-04-20T18:51:35.717Z</time>
      </trkpt>
      <trkpt lat="48.85606" lon="-3.24083">
        <ele>8.1</ele>
        <time>2018-04-20T18:51:36.743Z</time>
      </trkpt>
      <trkpt lat="48.85587" lon="-3.24108">
        <ele>8.1</ele>
        <time>2018-04-20T18:51:39.513Z</time>
      </trkpt>
      <trkpt lat="48.85583" lon="-3.24119">
        <ele>8.3</ele>
        <time>2018-04-20T18:51:40.487Z</time>
      </trkpt>
      <trkpt lat="48.85559" lon="-3.24205">
        <ele>12</ele>
        <time>2018-04-20T18:51:47.300Z</time>
      </trkpt>
      <trkpt lat="48.85558" lon="-3.2421">
        <ele>12.2</ele>
        <time>2018-04-20T18:51:47.652Z</time>
      </trkpt>
      <trkpt lat="48.85558" lon="-3.24214">
        <ele>12.4</ele>
        <time>2018-04-20T18:51:47.949Z</time>
      </trkpt>
      <trkpt lat="48.85558" lon="-3.2423">
        <ele>13.1</ele>
        <time>2018-04-20T18:51:49.131Z</time>
      </trkpt>
      <trkpt lat="48.85558" lon="-3.24268">
        <ele>14.4</ele>
        <time>2018-04-20T18:51:51.890Z</time>
      </trkpt>
      <trkpt lat="48.85557" lon="-3.24275">
        <ele>14.5</ele>
        <time>2018-04-20T18:51:52.474Z</time>
      </trkpt>
      <trkpt lat="48.85552" lon="-3.24301">
        <ele>15</ele>
        <time>2018-04-20T18:51:54.376Z</time>
      </trkpt>
      <trkpt lat="48.85547" lon="-3.24326">
        <ele>15.4</ele>
        <time>2018-04-20T18:51:56.352Z</time>
      </trkpt>
      <trkpt lat="48.85544" lon="-3.24334">
        <ele>15.5</ele>
        <time>2018-04-20T18:51:56.990Z</time>
      </trkpt>
      <trkpt lat="48.85535" lon="-3.24358">
        <ele>15.8</ele>
        <time>2018-04-20T18:51:59.011Z</time>
      </trkpt>
      <trkpt lat="48.85526" lon="-3.24387">
        <ele>16.2</ele>
        <time>2018-04-20T18:52:01.361Z</time>
      </trkpt>
      <trkpt lat="48.85523" lon="-3.24398">
        <ele>16.4</ele>
        <time>2018-04-20T18:52:02.243Z</time>
      </trkpt>
      <trkpt lat="48.8552" lon="-3.24422">
        <ele>16.6</ele>
        <time>2018-04-20T18:52:04.034Z</time>
      </trkpt>
      <trkpt lat="48.85519" lon="-3.24435">
        <ele>16.3</ele>
        <time>2018-04-20T18:52:04.996Z</time>
      </trkpt>
      <trkpt lat="48.85521" lon="-3.24532">
        <ele>11.6</ele>
        <time>2018-04-20T18:52:12.122Z</time>
      </trkpt>
      <trkpt lat="48.85523" lon="-3.24544">
        <ele>10.4</ele>
        <time>2018-04-20T18:52:13.043Z</time>
      </trkpt>
      <trkpt lat="48.85526" lon="-3.24556">
        <ele>9.3</ele>
        <time>2018-04-20T18:52:13.941Z</time>
      </trkpt>
      <trkpt lat="48.85531" lon="-3.246">
        <ele>5.5</ele>
        <time>2018-04-20T18:52:17.296Z</time>
      </trkpt>
      <trkpt lat="48.8553" lon="-3.24618">
        <ele>4.6</ele>
        <time>2018-04-20T18:52:18.582Z</time>
      </trkpt>
      <trkpt lat="48.85529" lon="-3.24625">
        <ele>4.2</ele>
        <time>2018-04-20T18:52:19.120Z</time>
      </trkpt>
      <trkpt lat="48.85528" lon="-3.24631">
        <ele>4</ele>
        <time>2018-04-20T18:52:19.622Z</time>
      </trkpt>
      <trkpt lat="48.85516" lon="-3.24683">
        <ele>1.9</ele>
        <time>2018-04-20T18:52:23.594Z</time>
      </trkpt>
      <trkpt lat="48.85516" lon="-3.24688">
        <ele>1.8</ele>
        <time>2018-04-20T18:52:23.969Z</time>
      </trkpt>
      <trkpt lat="48.85517" lon="-3.24692">
        <ele>1.6</ele>
        <time>2018-04-20T18:52:24.309Z</time>
      </trkpt>
      <trkpt lat="48.85519" lon="-3.24702">
        <ele>1.3</ele>
        <time>2018-04-20T18:52:25.027Z</time>
      </trkpt>
      <trkpt lat="48.85519" lon="-3.24706">
        <ele>1.2</ele>
        <time>2018-04-20T18:52:25.358Z</time>
      </trkpt>
      <trkpt lat="48.85518" lon="-3.2471">
        <ele>1.1</ele>
        <time>2018-04-20T18:52:25.664Z</time>
      </trkpt>
      <trkpt lat="48.85516" lon="-3.24713">
        <ele>1.1</ele>
        <time>2018-04-20T18:52:25.944Z</time>
      </trkpt>
      <trkpt lat="48.85514" lon="-3.24715">
        <ele>1</ele>
        <time>2018-04-20T18:52:26.217Z</time>
      </trkpt>
      <trkpt lat="48.85505" lon="-3.24723">
        <ele>0.9</ele>
        <time>2018-04-20T18:52:27.417Z</time>
      </trkpt>
      <trkpt lat="48.85504" lon="-3.24724">
        <ele>0.9</ele>
        <time>2018-04-20T18:52:27.531Z</time>
      </trkpt>
      <trkpt lat="48.85505" lon="-3.24725">
        <ele>0.9</ele>
        <time>2018-04-20T18:52:27.687Z</time>
      </trkpt>
      <trkpt lat="48.85506" lon="-3.24725">
        <ele>0.8</ele>
        <time>2018-04-20T18:52:27.779Z</time>
      </trkpt>
      <trkpt lat="48.85507" lon="-3.24724">
        <ele>0.8</ele>
        <time>2018-04-20T18:52:27.908Z</time>
      </trkpt>
      <trkpt lat="48.85506" lon="-3.24724">
        <ele>0.8</ele>
        <time>2018-04-20T18:52:27.926Z</time>
      </trkpt>
      <trkpt lat="48.85506" lon="-3.24725">
        <ele>0.8</ele>
        <time>2018-04-20T18:52:27.966Z</time>
      </trkpt>
      <trkpt lat="48.85507" lon="-3.24725">
        <ele>0.8</ele>
        <time>2018-04-20T18:52:28.085Z</time>
      </trkpt>
      <trkpt lat="48.85507" lon="-3.24726">
        <ele>0.8</ele>
        <time>2018-04-20T18:52:28.104Z</time>
      </trkpt>
      <trkpt lat="48.85507" lon="-3.24727">
        <ele>0.8</ele>
        <time>2018-04-20T18:52:28.206Z</time>
      </trkpt>
      <trkpt lat="48.85508" lon="-3.24727">
        <ele>0.7</ele>
        <time>2018-04-20T18:52:28.332Z</time>
      </trkpt>
      <trkpt lat="48.85508" lon="-3.24728">
        <ele>0.7</ele>
        <time>2018-04-20T18:52:28.347Z</time>
      </trkpt>
      <trkpt lat="48.85507" lon="-3.24729">
        <ele>0.7</ele>
        <time>2018-04-20T18:52:28.446Z</time>
      </trkpt>
      <trkpt lat="48.85507" lon="-3.2473">
        <ele>0.7</ele>
        <time>2018-04-20T18:52:28.512Z</time>
      </trkpt>
      <trkpt lat="48.85505" lon="-3.24731">
        <ele>0.6</ele>
        <time>2018-04-20T18:52:28.766Z</time>
      </trkpt>
      <trkpt lat="48.85503" lon="-3.24732">
        <ele>0.6</ele>
        <time>2018-04-20T18:52:29.026Z</time>
      </trkpt>
      <trkpt lat="48.855" lon="-3.24732">
        <ele>0.6</ele>
        <time>2018-04-20T18:52:29.342Z</time>
      </trkpt>
      <trkpt lat="48.85497" lon="-3.24732">
        <ele>0.7</ele>
        <time>2018-04-20T18:52:29.680Z</time>
      </trkpt>
      <trkpt lat="48.85494" lon="-3.24731">
        <ele>0.7</ele>
        <time>2018-04-20T18:52:29.979Z</time>
      </trkpt>
      <trkpt lat="48.85486" lon="-3.2473">
        <ele>0.8</ele>
        <time>2018-04-20T18:52:30.929Z</time>
      </trkpt>
      <trkpt lat="48.85483" lon="-3.24731">
        <ele>0.8</ele>
        <time>2018-04-20T18:52:31.224Z</time>
      </trkpt>
      <trkpt lat="48.8548" lon="-3.2473">
        <ele>0.9</ele>
        <time>2018-04-20T18:52:31.565Z</time>
      </trkpt>
      <trkpt lat="48.85458" lon="-3.24728">
        <ele>1.2</ele>
        <time>2018-04-20T18:52:34.089Z</time>
      </trkpt>
      <trkpt lat="48.85406" lon="-3.24731">
        <ele>1.5</ele>
        <time>2018-04-20T18:52:39.803Z</time>
      </trkpt>
      <trkpt lat="48.854" lon="-3.24734">
        <ele>1.4</ele>
        <time>2018-04-20T18:52:40.576Z</time>
      </trkpt>
      <trkpt lat="48.85393" lon="-3.24739">
        <ele>1.3</ele>
        <time>2018-04-20T18:52:41.396Z</time>
      </trkpt>
      <trkpt lat="48.85374" lon="-3.24757">
        <ele>1</ele>
        <time>2018-04-20T18:52:43.908Z</time>
      </trkpt>
      <trkpt lat="48.85329" lon="-3.24806">
        <ele>1</ele>
        <time>2018-04-20T18:52:50.015Z</time>
      </trkpt>
      <trkpt lat="48.85323" lon="-3.24808">
        <ele>0.9</ele>
        <time>2018-04-20T18:52:50.775Z</time>
      </trkpt>
      <trkpt lat="48.85306" lon="-3.24809">
        <ele>0.8</ele>
        <time>2018-04-20T18:52:52.576Z</time>
      </trkpt>
      <trkpt lat="48.85287" lon="-3.24807">
        <ele>0.7</ele>
        <time>2018-04-20T18:52:54.713Z</time>
      </trkpt>
      <trkpt lat="48.85278" lon="-3.24805">
        <ele>0.8</ele>
        <time>2018-04-20T18:52:55.744Z</time>
      </trkpt>
      <trkpt lat="48.8527" lon="-3.24802">
        <ele>0.9</ele>
        <time>2018-04-20T18:52:56.651Z</time>
      </trkpt>
      <trkpt lat="48.85223" lon="-3.2478">
        <ele>2.9</ele>
        <time>2018-04-20T18:53:02.132Z</time>
      </trkpt>
      <trkpt lat="48.85219" lon="-3.2478">
        <ele>2.9</ele>
        <time>2018-04-20T18:53:02.559Z</time>
      </trkpt>
      <trkpt lat="48.85216" lon="-3.24781">
        <ele>3</ele>
        <time>2018-04-20T18:53:02.917Z</time>
      </trkpt>
      <trkpt lat="48.85213" lon="-3.24782">
        <ele>3</ele>
        <time>2018-04-20T18:53:03.235Z</time>
      </trkpt>
      <trkpt lat="48.85211" lon="-3.24784">
        <ele>3</ele>
        <time>2018-04-20T18:53:03.482Z</time>
      </trkpt>
      <trkpt lat="48.8521" lon="-3.24783">
        <ele>3</ele>
        <time>2018-04-20T18:53:03.660Z</time>
      </trkpt>
      <trkpt lat="48.85209" lon="-3.24783">
        <ele>3.1</ele>
        <time>2018-04-20T18:53:03.744Z</time>
      </trkpt>
      <trkpt lat="48.85209" lon="-3.24782">
        <ele>3.1</ele>
        <time>2018-04-20T18:53:03.795Z</time>
      </trkpt>
      <trkpt lat="48.85209" lon="-3.24781">
        <ele>3.1</ele>
        <time>2018-04-20T18:53:03.850Z</time>
      </trkpt>
      <trkpt lat="48.85208" lon="-3.24781">
        <ele>3.2</ele>
        <time>2018-04-20T18:53:03.933Z</time>
      </trkpt>
      <trkpt lat="48.85207" lon="-3.24781">
        <ele>3.2</ele>
        <time>2018-04-20T18:53:04.027Z</time>
      </trkpt>
      <trkpt lat="48.85207" lon="-3.24782">
        <ele>3.2</ele>
        <time>2018-04-20T18:53:04.069Z</time>
      </trkpt>
      <trkpt lat="48.85207" lon="-3.24783">
        <ele>3.2</ele>
        <time>2018-04-20T18:53:04.147Z</time>
      </trkpt>
      <trkpt lat="48.85207" lon="-3.24784">
        <ele>3.1</ele>
        <time>2018-04-20T18:53:04.251Z</time>
      </trkpt>
      <trkpt lat="48.85208" lon="-3.24784">
        <ele>3.1</ele>
        <time>2018-04-20T18:53:04.291Z</time>
      </trkpt>
      <trkpt lat="48.85208" lon="-3.24784">
        <ele>3.1</ele>
        <time>2018-04-20T18:53:04.399Z</time>
      </trkpt>
      <trkpt lat="48.85208" lon="-3.24783">
        <ele>3.1</ele>
        <time>2018-04-20T18:53:04.493Z</time>
      </trkpt>
      <trkpt lat="48.85209" lon="-3.24783">
        <ele>3.1</ele>
        <time>2018-04-20T18:53:04.513Z</time>
      </trkpt>
      <trkpt lat="48.85206" lon="-3.24786">
        <ele>3</ele>
        <time>2018-04-20T18:53:04.880Z</time>
      </trkpt>
      <trkpt lat="48.85173" lon="-3.24813">
        <ele>3.2</ele>
        <time>2018-04-20T18:53:09.132Z</time>
      </trkpt>
      <trkpt lat="48.85166" lon="-3.24816">
        <ele>3.4</ele>
        <time>2018-04-20T18:53:09.869Z</time>
      </trkpt>
      <trkpt lat="48.85126" lon="-3.24836">
        <ele>3.9</ele>
        <time>2018-04-20T18:53:14.562Z</time>
      </trkpt>
      <trkpt lat="48.85119" lon="-3.24843">
        <ele>4</ele>
        <time>2018-04-20T18:53:15.534Z</time>
      </trkpt>
      <trkpt lat="48.85095" lon="-3.24873">
        <ele>3.8</ele>
        <time>2018-04-20T18:53:18.981Z</time>
      </trkpt>
      <trkpt lat="48.85088" lon="-3.24887">
        <ele>3.6</ele>
        <time>2018-04-20T18:53:20.257Z</time>
      </trkpt>
      <trkpt lat="48.85082" lon="-3.24901">
        <ele>3.4</ele>
        <time>2018-04-20T18:53:21.451Z</time>
      </trkpt>
      <trkpt lat="48.85074" lon="-3.24929">
        <ele>3.1</ele>
        <time>2018-04-20T18:53:23.692Z</time>
      </trkpt>
      <trkpt lat="48.85059" lon="-3.24989">
        <ele>3.7</ele>
        <time>2018-04-20T18:53:28.398Z</time>
      </trkpt>
      <trkpt lat="48.85054" lon="-3.24997">
        <ele>3.6</ele>
        <time>2018-04-20T18:53:29.217Z</time>
      </trkpt>
      <trkpt lat="48.85048" lon="-3.25004">
        <ele>3.2</ele>
        <time>2018-04-20T18:53:30.013Z</time>
      </trkpt>
      <trkpt lat="48.85041" lon="-3.25008">
        <ele>2.7</ele>
        <time>2018-04-20T18:53:30.869Z</time>
      </trkpt>
      <trkpt lat="48.85019" lon="-3.2502">
        <ele>1.5</ele>
        <time>2018-04-20T18:53:33.483Z</time>
      </trkpt>
      <trkpt lat="48.85015" lon="-3.25028">
        <ele>1.2</ele>
        <time>2018-04-20T18:53:34.255Z</time>
      </trkpt>
      <trkpt lat="48.85011" lon="-3.25037">
        <ele>0.9</ele>
        <time>2018-04-20T18:53:35.012Z</time>
      </trkpt>
      <trkpt lat="48.85005" lon="-3.25055">
        <ele>0.5</ele>
        <time>2018-04-20T18:53:36.494Z</time>
      </trkpt>
      <trkpt lat="48.85001" lon="-3.25062">
        <ele>0.3</ele>
        <time>2018-04-20T18:53:37.228Z</time>
      </trkpt>
      <trkpt lat="48.84995" lon="-3.25069">
        <ele>0.3</ele>
        <time>2018-04-20T18:53:38.033Z</time>
      </trkpt>
      <trkpt lat="48.84988" lon="-3.25074">
        <ele>0.4</ele>
        <time>2018-04-20T18:53:38.904Z</time>
      </trkpt>
      <trkpt lat="48.8498" lon="-3.25077">
        <ele>0.6</ele>
        <time>2018-04-20T18:53:39.785Z</time>
      </trkpt>
      <trkpt lat="48.84972" lon="-3.25079">
        <ele>0.7</ele>
        <time>2018-04-20T18:53:40.721Z</time>
      </trkpt>
      <trkpt lat="48.84953" lon="-3.2508">
        <ele>1.2</ele>
        <time>2018-04-20T18:53:42.820Z</time>
      </trkpt>
      <trkpt lat="48.84942" lon="-3.25078">
        <ele>1.5</ele>
        <time>2018-04-20T18:53:44.029Z</time>
      </trkpt>
      <trkpt lat="48.84897" lon="-3.25072">
        <ele>2.8</ele>
        <time>2018-04-20T18:53:49.111Z</time>
      </trkpt>
      <trkpt lat="48.84885" lon="-3.25073">
        <ele>3.2</ele>
        <time>2018-04-20T18:53:50.417Z</time>
      </trkpt>
      <trkpt lat="48.84782" lon="-3.25095">
        <ele>4.9</ele>
        <time>2018-04-20T18:54:01.994Z</time>
      </trkpt>
      <trkpt lat="48.84772" lon="-3.25091">
        <ele>4.9</ele>
        <time>2018-04-20T18:54:03.119Z</time>
      </trkpt>
      <trkpt lat="48.84733" lon="-3.25073">
        <ele>5.8</ele>
        <time>2018-04-20T18:54:07.607Z</time>
      </trkpt>
      <trkpt lat="48.84732" lon="-3.25073">
        <ele>5.9</ele>
        <time>2018-04-20T18:54:07.763Z</time>
      </trkpt>
      <trkpt lat="48.84731" lon="-3.25074">
        <ele>5.9</ele>
        <time>2018-04-20T18:54:07.882Z</time>
      </trkpt>
      <trkpt lat="48.8473" lon="-3.25075">
        <ele>6</ele>
        <time>2018-04-20T18:54:07.994Z</time>
      </trkpt>
      <trkpt lat="48.8473" lon="-3.25076">
        <ele>6</ele>
        <time>2018-04-20T18:54:08.078Z</time>
      </trkpt>
      <trkpt lat="48.84729" lon="-3.25077">
        <ele>6</ele>
        <time>2018-04-20T18:54:08.161Z</time>
      </trkpt>
      <trkpt lat="48.84726" lon="-3.25085">
        <ele>6.2</ele>
        <time>2018-04-20T18:54:08.931Z</time>
      </trkpt>
      <trkpt lat="48.84724" lon="-3.25093">
        <ele>6.2</ele>
        <time>2018-04-20T18:54:09.482Z</time>
      </trkpt>
      <trkpt lat="48.84719" lon="-3.25134">
        <ele>6.5</ele>
        <time>2018-04-20T18:54:12.521Z</time>
      </trkpt>
      <trkpt lat="48.84719" lon="-3.25157">
        <ele>6.5</ele>
        <time>2018-04-20T18:54:14.241Z</time>
      </trkpt>
      <trkpt lat="48.8472" lon="-3.25169">
        <ele>6.5</ele>
        <time>2018-04-20T18:54:15.112Z</time>
      </trkpt>
      <trkpt lat="48.84722" lon="-3.2518">
        <ele>6.4</ele>
        <time>2018-04-20T18:54:15.979Z</time>
      </trkpt>
      <trkpt lat="48.84728" lon="-3.25201">
        <ele>6.2</ele>
        <time>2018-04-20T18:54:17.631Z</time>
      </trkpt>
      <trkpt lat="48.84733" lon="-3.25209">
        <ele>5.9</ele>
        <time>2018-04-20T18:54:18.401Z</time>
      </trkpt>
      <trkpt lat="48.84738" lon="-3.25215">
        <ele>5.6</ele>
        <time>2018-04-20T18:54:19.179Z</time>
      </trkpt>
      <trkpt lat="48.84754" lon="-3.25234">
        <ele>4.9</ele>
        <time>2018-04-20T18:54:21.424Z</time>
      </trkpt>
      <trkpt lat="48.84758" lon="-3.25243">
        <ele>4.7</ele>
        <time>2018-04-20T18:54:22.188Z</time>
      </trkpt>
      <trkpt lat="48.84761" lon="-3.25261">
        <ele>4.6</ele>
        <time>2018-04-20T18:54:23.592Z</time>
      </trkpt>
      <trkpt lat="48.84758" lon="-3.25267">
        <ele>4.7</ele>
        <time>2018-04-20T18:54:24.151Z</time>
      </trkpt>
      <trkpt lat="48.8475" lon="-3.25275">
        <ele>5</ele>
        <time>2018-04-20T18:54:25.256Z</time>
      </trkpt>
      <trkpt lat="48.84746" lon="-3.25277">
        <ele>5.2</ele>
        <time>2018-04-20T18:54:25.718Z</time>
      </trkpt>
      <trkpt lat="48.84746" lon="-3.25276">
        <ele>5.2</ele>
        <time>2018-04-20T18:54:25.811Z</time>
      </trkpt>
      <trkpt lat="48.84748" lon="-3.25274">
        <ele>5.1</ele>
        <time>2018-04-20T18:54:26.038Z</time>
      </trkpt>
      <trkpt lat="48.8475" lon="-3.25272">
        <ele>5</ele>
        <time>2018-04-20T18:54:26.285Z</time>
      </trkpt>
      <trkpt lat="48.84751" lon="-3.2527">
        <ele>5</ele>
        <time>2018-04-20T18:54:26.459Z</time>
      </trkpt>
      <trkpt lat="48.84752" lon="-3.25269">
        <ele>4.9</ele>
        <time>2018-04-20T18:54:26.624Z</time>
      </trkpt>
      <trkpt lat="48.84752" lon="-3.25267">
        <ele>4.9</ele>
        <time>2018-04-20T18:54:26.779Z</time>
      </trkpt>
      <trkpt lat="48.84752" lon="-3.25265">
        <ele>4.9</ele>
        <time>2018-04-20T18:54:26.896Z</time>
      </trkpt>
      <trkpt lat="48.84753" lon="-3.25264">
        <ele>4.9</ele>
        <time>2018-04-20T18:54:26.978Z</time>
      </trkpt>
      <trkpt lat="48.84752" lon="-3.25265">
        <ele>4.9</ele>
        <time>2018-04-20T18:54:27.094Z</time>
      </trkpt>
      <trkpt lat="48.84751" lon="-3.25266">
        <ele>5</ele>
        <time>2018-04-20T18:54:27.212Z</time>
      </trkpt>
      <trkpt lat="48.84714" lon="-3.25306">
        <ele>7.2</ele>
        <time>2018-04-20T18:54:32.314Z</time>
      </trkpt>
      <trkpt lat="48.8469" lon="-3.25329">
        <ele>8.6</ele>
        <time>2018-04-20T18:54:35.439Z</time>
      </trkpt>
      <trkpt lat="48.84682" lon="-3.25336">
        <ele>9.1</ele>
        <time>2018-04-20T18:54:36.526Z</time>
      </trkpt>
      <trkpt lat="48.84665" lon="-3.25344">
        <ele>9.9</ele>
        <time>2018-04-20T18:54:38.448Z</time>
      </trkpt>
      <trkpt lat="48.84657" lon="-3.25346">
        <ele>10</ele>
        <time>2018-04-20T18:54:39.402Z</time>
      </trkpt>
      <trkpt lat="48.84637" lon="-3.25347">
        <ele>10.3</ele>
        <time>2018-04-20T18:54:41.647Z</time>
      </trkpt>
      <trkpt lat="48.84625" lon="-3.25346">
        <ele>10.4</ele>
        <time>2018-04-20T18:54:42.964Z</time>
      </trkpt>
      <trkpt lat="48.84572" lon="-3.25347">
        <ele>11</ele>
        <time>2018-04-20T18:54:48.779Z</time>
      </trkpt>
      <trkpt lat="48.84562" lon="-3.25348">
        <ele>11</ele>
        <time>2018-04-20T18:54:49.902Z</time>
      </trkpt>
      <trkpt lat="48.84517" lon="-3.25354">
        <ele>10.8</ele>
        <time>2018-04-20T18:54:54.924Z</time>
      </trkpt>
      <trkpt lat="48.84446" lon="-3.2536">
        <ele>8.7</ele>
        <time>2018-04-20T18:55:02.926Z</time>
      </trkpt>
      <trkpt lat="48.84439" lon="-3.25362">
        <ele>8.4</ele>
        <time>2018-04-20T18:55:03.663Z</time>
      </trkpt>
      <trkpt lat="48.84431" lon="-3.25364">
        <ele>8</ele>
        <time>2018-04-20T18:55:04.624Z</time>
      </trkpt>
      <trkpt lat="48.84431" lon="-3.25363">
        <ele>8.1</ele>
        <time>2018-04-20T18:55:04.666Z</time>
      </trkpt>
      <trkpt lat="48.84432" lon="-3.25363">
        <ele>8.1</ele>
        <time>2018-04-20T18:55:04.764Z</time>
      </trkpt>
      <trkpt lat="48.84432" lon="-3.25364">
        <ele>8.1</ele>
        <time>2018-04-20T18:55:04.801Z</time>
      </trkpt>
      <trkpt lat="48.84433" lon="-3.25364">
        <ele>8.1</ele>
        <time>2018-04-20T18:55:04.857Z</time>
      </trkpt>
      <trkpt lat="48.84431" lon="-3.25362">
        <ele>8.1</ele>
        <time>2018-04-20T18:55:05.218Z</time>
      </trkpt>
      <trkpt lat="48.84429" lon="-3.25359">
        <ele>8.2</ele>
        <time>2018-04-20T18:55:05.471Z</time>
      </trkpt>
      <trkpt lat="48.84428" lon="-3.25355">
        <ele>8.3</ele>
        <time>2018-04-20T18:55:05.808Z</time>
      </trkpt>
      <trkpt lat="48.84427" lon="-3.25351">
        <ele>8.5</ele>
        <time>2018-04-20T18:55:06.153Z</time>
      </trkpt>
      <trkpt lat="48.84424" lon="-3.25339">
        <ele>8.9</ele>
        <time>2018-04-20T18:55:07.064Z</time>
      </trkpt>
      <trkpt lat="48.84391" lon="-3.2516">
        <ele>11.6</ele>
        <time>2018-04-20T18:55:20.620Z</time>
      </trkpt>
      <trkpt lat="48.84391" lon="-3.25143">
        <ele>12.1</ele>
        <time>2018-04-20T18:55:21.917Z</time>
      </trkpt>
      <trkpt lat="48.84388" lon="-3.25072">
        <ele>14.5</ele>
        <time>2018-04-20T18:55:27.092Z</time>
      </trkpt>
      <trkpt lat="48.84384" lon="-3.25055">
        <ele>15.2</ele>
        <time>2018-04-20T18:55:28.377Z</time>
      </trkpt>
      <trkpt lat="48.84369" lon="-3.24994">
        <ele>17.3</ele>
        <time>2018-04-20T18:55:33.168Z</time>
      </trkpt>
      <trkpt lat="48.84362" lon="-3.24963">
        <ele>18.3</ele>
        <time>2018-04-20T18:55:35.584Z</time>
      </trkpt>
      <trkpt lat="48.84356" lon="-3.24912">
        <ele>20.3</ele>
        <time>2018-04-20T18:55:39.376Z</time>
      </trkpt>
      <trkpt lat="48.84355" lon="-3.24896">
        <ele>21</ele>
        <time>2018-04-20T18:55:40.584Z</time>
      </trkpt>
      <trkpt lat="48.84352" lon="-3.24799">
        <ele>25.4</ele>
        <time>2018-04-20T18:55:47.692Z</time>
      </trkpt>
      <trkpt lat="48.8435" lon="-3.24792">
        <ele>25.7</ele>
        <time>2018-04-20T18:55:48.272Z</time>
      </trkpt>
      <trkpt lat="48.84346" lon="-3.24781">
        <ele>26</ele>
        <time>2018-04-20T18:55:49.174Z</time>
      </trkpt>
      <trkpt lat="48.84344" lon="-3.24778">
        <ele>26.1</ele>
        <time>2018-04-20T18:55:49.526Z</time>
      </trkpt>
      <trkpt lat="48.84341" lon="-3.24775">
        <ele>26.1</ele>
        <time>2018-04-20T18:55:49.900Z</time>
      </trkpt>
      <trkpt lat="48.84337" lon="-3.24774">
        <ele>26</ele>
        <time>2018-04-20T18:55:50.271Z</time>
      </trkpt>
      <trkpt lat="48.84333" lon="-3.24773">
        <ele>25.9</ele>
        <time>2018-04-20T18:55:50.756Z</time>
      </trkpt>
      <trkpt lat="48.84328" lon="-3.24773">
        <ele>25.8</ele>
        <time>2018-04-20T18:55:51.327Z</time>
      </trkpt>
      <trkpt lat="48.84274" lon="-3.2478">
        <ele>25.3</ele>
        <time>2018-04-20T18:55:57.320Z</time>
      </trkpt>
      <trkpt lat="48.842" lon="-3.24792">
        <ele>27.1</ele>
        <time>2018-04-20T18:56:05.581Z</time>
      </trkpt>
      <trkpt lat="48.84189" lon="-3.24798">
        <ele>27.5</ele>
        <time>2018-04-20T18:56:06.940Z</time>
      </trkpt>
      <trkpt lat="48.84166" lon="-3.24813">
        <ele>28.1</ele>
        <time>2018-04-20T18:56:09.739Z</time>
      </trkpt>
      <trkpt lat="48.84044" lon="-3.24909">
        <ele>29.5</ele>
        <time>2018-04-20T18:56:24.964Z</time>
      </trkpt>
      <trkpt lat="48.84033" lon="-3.24921">
        <ele>28.4</ele>
        <time>2018-04-20T18:56:26.448Z</time>
      </trkpt>
      <trkpt lat="48.83994" lon="-3.24971">
        <ele>24</ele>
        <time>2018-04-20T18:56:32.189Z</time>
      </trkpt>
      <trkpt lat="48.83976" lon="-3.25">
        <ele>23</ele>
        <time>2018-04-20T18:56:35.119Z</time>
      </trkpt>
      <trkpt lat="48.83833" lon="-3.25218">
        <ele>18</ele>
        <time>2018-04-20T18:56:57.647Z</time>
      </trkpt>
      <trkpt lat="48.83823" lon="-3.25227">
        <ele>18.1</ele>
        <time>2018-04-20T18:56:58.938Z</time>
      </trkpt>
      <trkpt lat="48.83799" lon="-3.25255">
        <ele>17.8</ele>
        <time>2018-04-20T18:57:02.288Z</time>
      </trkpt>
      <trkpt lat="48.83793" lon="-3.25267">
        <ele>17.6</ele>
        <time>2018-04-20T18:57:03.393Z</time>
      </trkpt>
      <trkpt lat="48.83786" lon="-3.25298">
        <ele>16.6</ele>
        <time>2018-04-20T18:57:05.777Z</time>
      </trkpt>
      <trkpt lat="48.83781" lon="-3.2535">
        <ele>14.4</ele>
        <time>2018-04-20T18:57:09.619Z</time>
      </trkpt>
      <trkpt lat="48.83784" lon="-3.25384">
        <ele>12.8</ele>
        <time>2018-04-20T18:57:12.130Z</time>
      </trkpt>
      <trkpt lat="48.83793" lon="-3.25434">
        <ele>11</ele>
        <time>2018-04-20T18:57:15.963Z</time>
      </trkpt>
      <trkpt lat="48.83806" lon="-3.25493">
        <ele>10.3</ele>
        <time>2018-04-20T18:57:20.511Z</time>
      </trkpt>
      <trkpt lat="48.83806" lon="-3.25495">
        <ele>10.3</ele>
        <time>2018-04-20T18:57:20.637Z</time>
      </trkpt>
      <trkpt lat="48.83807" lon="-3.25495">
        <ele>10.2</ele>
        <time>2018-04-20T18:57:20.703Z</time>
      </trkpt>
      <trkpt lat="48.83808" lon="-3.25494">
        <ele>10.1</ele>
        <time>2018-04-20T18:57:20.864Z</time>
      </trkpt>
      <trkpt lat="48.83809" lon="-3.25495">
        <ele>10.1</ele>
        <time>2018-04-20T18:57:20.971Z</time>
      </trkpt>
      <trkpt lat="48.83809" lon="-3.25497">
        <ele>10</ele>
        <time>2018-04-20T18:57:21.146Z</time>
      </trkpt>
      <trkpt lat="48.83809" lon="-3.25501">
        <ele>10.1</ele>
        <time>2018-04-20T18:57:21.379Z</time>
      </trkpt>
      <trkpt lat="48.83809" lon="-3.25504">
        <ele>10.1</ele>
        <time>2018-04-20T18:57:21.612Z</time>
      </trkpt>
      <trkpt lat="48.83808" lon="-3.25507">
        <ele>10.3</ele>
        <time>2018-04-20T18:57:21.880Z</time>
      </trkpt>
      <trkpt lat="48.83805" lon="-3.2551">
        <ele>10.5</ele>
        <time>2018-04-20T18:57:22.207Z</time>
      </trkpt>
      <trkpt lat="48.83802" lon="-3.25513">
        <ele>10.7</ele>
        <time>2018-04-20T18:57:22.606Z</time>
      </trkpt>
      <trkpt lat="48.83798" lon="-3.25514">
        <ele>11.1</ele>
        <time>2018-04-20T18:57:23.052Z</time>
      </trkpt>
      <trkpt lat="48.8379" lon="-3.25518">
        <ele>11.7</ele>
        <time>2018-04-20T18:57:24.007Z</time>
      </trkpt>
      <trkpt lat="48.8374" lon="-3.25554">
        <ele>14.4</ele>
        <time>2018-04-20T18:57:30.172Z</time>
      </trkpt>
      <trkpt lat="48.83733" lon="-3.25568">
        <ele>14.2</ele>
        <time>2018-04-20T18:57:31.472Z</time>
      </trkpt>
      <trkpt lat="48.83649" lon="-3.25736">
        <ele>12.2</ele>
        <time>2018-04-20T18:57:46.890Z</time>
      </trkpt>
      <trkpt lat="48.83638" lon="-3.25772">
        <ele>11.8</ele>
        <time>2018-04-20T18:57:49.786Z</time>
      </trkpt>
      <trkpt lat="48.83607" lon="-3.25869">
        <ele>10.8</ele>
        <time>2018-04-20T18:57:57.730Z</time>
      </trkpt>
      <trkpt lat="48.83603" lon="-3.25887">
        <ele>10.5</ele>
        <time>2018-04-20T18:57:59.099Z</time>
      </trkpt>
      <trkpt lat="48.83591" lon="-3.2596">
        <ele>8.5</ele>
        <time>2018-04-20T18:58:04.619Z</time>
      </trkpt>
      <trkpt lat="48.83591" lon="-3.25978">
        <ele>7.9</ele>
        <time>2018-04-20T18:58:05.949Z</time>
      </trkpt>
      <trkpt lat="48.83592" lon="-3.26132">
        <ele>2.9</ele>
        <time>2018-04-20T18:58:17.171Z</time>
      </trkpt>
      <trkpt lat="48.83589" lon="-3.26144">
        <ele>2.2</ele>
        <time>2018-04-20T18:58:18.159Z</time>
      </trkpt>
      <trkpt lat="48.83584" lon="-3.26156">
        <ele>1.5</ele>
        <time>2018-04-20T18:58:19.131Z</time>
      </trkpt>
      <trkpt lat="48.83578" lon="-3.26165">
        <ele>1</ele>
        <time>2018-04-20T18:58:20.125Z</time>
      </trkpt>
      <trkpt lat="48.83561" lon="-3.26178">
        <ele>0.8</ele>
        <time>2018-04-20T18:58:22.201Z</time>
      </trkpt>
      <trkpt lat="48.83518" lon="-3.26215">
        <ele>0.7</ele>
        <time>2018-04-20T18:58:27.703Z</time>
      </trkpt>
      <trkpt lat="48.83513" lon="-3.26221">
        <ele>0.7</ele>
        <time>2018-04-20T18:58:28.364Z</time>
      </trkpt>
      <trkpt lat="48.83491" lon="-3.26252">
        <ele>0.8</ele>
        <time>2018-04-20T18:58:31.726Z</time>
      </trkpt>
      <trkpt lat="48.83488" lon="-3.26259">
        <ele>0.8</ele>
        <time>2018-04-20T18:58:32.355Z</time>
      </trkpt>
      <trkpt lat="48.83418" lon="-3.2645">
        <ele>0.9</ele>
        <time>2018-04-20T18:58:48.367Z</time>
      </trkpt>
      <trkpt lat="48.83407" lon="-3.26493">
        <ele>1</ele>
        <time>2018-04-20T18:58:51.728Z</time>
      </trkpt>
      <trkpt lat="48.83404" lon="-3.26508">
        <ele>1</ele>
        <time>2018-04-20T18:58:52.908Z</time>
      </trkpt>
      <trkpt lat="48.83394" lon="-3.26594">
        <ele>1</ele>
        <time>2018-04-20T18:58:59.248Z</time>
      </trkpt>
      <trkpt lat="48.83393" lon="-3.26612">
        <ele>1</ele>
        <time>2018-04-20T18:59:00.573Z</time>
      </trkpt>
      <trkpt lat="48.83384" lon="-3.26874">
        <ele>1</ele>
        <time>2018-04-20T18:59:19.778Z</time>
      </trkpt>
      <trkpt lat="48.83392" lon="-3.26998">
        <ele>-0.5</ele>
        <time>2018-04-20T18:59:28.941Z</time>
      </trkpt>
      <trkpt lat="48.83394" lon="-3.27012">
        <ele>0.5</ele>
        <time>2018-04-20T18:59:29.978Z</time>
      </trkpt>
      <trkpt lat="48.83399" lon="-3.27025">
        <ele>1.6</ele>
        <time>2018-04-20T18:59:31.066Z</time>
      </trkpt>
      <trkpt lat="48.83442" lon="-3.27119">
        <ele>11.7</ele>
        <time>2018-04-20T18:59:39.494Z</time>
      </trkpt>
      <trkpt lat="48.83444" lon="-3.27133">
        <ele>13.3</ele>
        <time>2018-04-20T18:59:40.571Z</time>
      </trkpt>
      <trkpt lat="48.83444" lon="-3.27148">
        <ele>14.9</ele>
        <time>2018-04-20T18:59:41.654Z</time>
      </trkpt>
      <trkpt lat="48.83443" lon="-3.27162">
        <ele>16.5</ele>
        <time>2018-04-20T18:59:42.714Z</time>
      </trkpt>
      <trkpt lat="48.83442" lon="-3.27188">
        <ele>19</ele>
        <time>2018-04-20T18:59:44.675Z</time>
      </trkpt>
      <trkpt lat="48.83443" lon="-3.27201">
        <ele>20.1</ele>
        <time>2018-04-20T18:59:45.619Z</time>
      </trkpt>
      <trkpt lat="48.83445" lon="-3.27213">
        <ele>21.1</ele>
        <time>2018-04-20T18:59:46.563Z</time>
      </trkpt>
      <trkpt lat="48.83457" lon="-3.27251">
        <ele>24.5</ele>
        <time>2018-04-20T18:59:49.658Z</time>
      </trkpt>
      <trkpt lat="48.83464" lon="-3.2726">
        <ele>25</ele>
        <time>2018-04-20T18:59:50.692Z</time>
      </trkpt>
      <trkpt lat="48.83517" lon="-3.27312">
        <ele>25.6</ele>
        <time>2018-04-20T18:59:57.661Z</time>
      </trkpt>
      <trkpt lat="48.83524" lon="-3.27328">
        <ele>24.9</ele>
        <time>2018-04-20T18:59:59.042Z</time>
      </trkpt>
      <trkpt lat="48.83535" lon="-3.27357">
        <ele>23.6</ele>
        <time>2018-04-20T19:00:01.494Z</time>
      </trkpt>
      <trkpt lat="48.8354" lon="-3.27384">
        <ele>23.5</ele>
        <time>2018-04-20T19:00:03.546Z</time>
      </trkpt>
      <trkpt lat="48.83543" lon="-3.27411">
        <ele>23.9</ele>
        <time>2018-04-20T19:00:05.574Z</time>
      </trkpt>
      <trkpt lat="48.83545" lon="-3.27417">
        <ele>23.8</ele>
        <time>2018-04-20T19:00:06.039Z</time>
      </trkpt>
      <trkpt lat="48.83549" lon="-3.27427">
        <ele>23</ele>
        <time>2018-04-20T19:00:06.921Z</time>
      </trkpt>
      <trkpt lat="48.83617" lon="-3.2758">
        <ele>12.7</ele>
        <time>2018-04-20T19:00:20.473Z</time>
      </trkpt>
      <trkpt lat="48.83619" lon="-3.27592">
        <ele>12.4</ele>
        <time>2018-04-20T19:00:21.395Z</time>
      </trkpt>
      <trkpt lat="48.8362" lon="-3.27606">
        <ele>12.3</ele>
        <time>2018-04-20T19:00:22.396Z</time>
      </trkpt>
      <trkpt lat="48.83619" lon="-3.27648">
        <ele>12.2</ele>
        <time>2018-04-20T19:00:25.472Z</time>
      </trkpt>
      <trkpt lat="48.83622" lon="-3.27725">
        <ele>13.1</ele>
        <time>2018-04-20T19:00:31.120Z</time>
      </trkpt>
      <trkpt lat="48.83625" lon="-3.27741">
        <ele>13.3</ele>
        <time>2018-04-20T19:00:32.360Z</time>
      </trkpt>
      <trkpt lat="48.83642" lon="-3.27794">
        <ele>14.5</ele>
        <time>2018-04-20T19:00:36.653Z</time>
      </trkpt>
      <trkpt lat="48.83652" lon="-3.27801">
        <ele>14.5</ele>
        <time>2018-04-20T19:00:37.854Z</time>
      </trkpt>
      <trkpt lat="48.83675" lon="-3.27808">
        <ele>14.6</ele>
        <time>2018-04-20T19:00:40.463Z</time>
      </trkpt>
      <trkpt lat="48.83708" lon="-3.27819">
        <ele>15.2</ele>
        <time>2018-04-20T19:00:44.249Z</time>
      </trkpt>
      <trkpt lat="48.83715" lon="-3.27826">
        <ele>15.6</ele>
        <time>2018-04-20T19:00:45.112Z</time>
      </trkpt>
      <trkpt lat="48.83718" lon="-3.27834">
        <ele>16</ele>
        <time>2018-04-20T19:00:45.889Z</time>
      </trkpt>
      <trkpt lat="48.83724" lon="-3.27856">
        <ele>16.4</ele>
        <time>2018-04-20T19:00:47.597Z</time>
      </trkpt>
      <trkpt lat="48.83729" lon="-3.27879">
        <ele>16.8</ele>
        <time>2018-04-20T19:00:49.379Z</time>
      </trkpt>
      <trkpt lat="48.8373" lon="-3.27891">
        <ele>17.1</ele>
        <time>2018-04-20T19:00:50.234Z</time>
      </trkpt>
      <trkpt lat="48.83737" lon="-3.27935">
        <ele>17.3</ele>
        <time>2018-04-20T19:00:53.548Z</time>
      </trkpt>
      <trkpt lat="48.83739" lon="-3.27946">
        <ele>17.1</ele>
        <time>2018-04-20T19:00:54.383Z</time>
      </trkpt>
      <trkpt lat="48.83742" lon="-3.27955">
        <ele>16.9</ele>
        <time>2018-04-20T19:00:55.164Z</time>
      </trkpt>
      <trkpt lat="48.83746" lon="-3.27965">
        <ele>16.8</ele>
        <time>2018-04-20T19:00:56.022Z</time>
      </trkpt>
      <trkpt lat="48.83758" lon="-3.27982">
        <ele>16.2</ele>
        <time>2018-04-20T19:00:57.797Z</time>
      </trkpt>
      <trkpt lat="48.8377" lon="-3.27993">
        <ele>15.7</ele>
        <time>2018-04-20T19:00:59.307Z</time>
      </trkpt>
      <trkpt lat="48.83779" lon="-3.27997">
        <ele>15.3</ele>
        <time>2018-04-20T19:01:00.429Z</time>
      </trkpt>
      <trkpt lat="48.83784" lon="-3.27999">
        <ele>15.2</ele>
        <time>2018-04-20T19:01:01.023Z</time>
      </trkpt>
      <trkpt lat="48.83787" lon="-3.28">
        <ele>15.1</ele>
        <time>2018-04-20T19:01:01.306Z</time>
      </trkpt>
      <trkpt lat="48.83786" lon="-3.27996">
        <ele>15.2</ele>
        <time>2018-04-20T19:01:01.625Z</time>
      </trkpt>
      <trkpt lat="48.83786" lon="-3.27993">
        <ele>15.2</ele>
        <time>2018-04-20T19:01:01.790Z</time>
      </trkpt>
      <trkpt lat="48.83787" lon="-3.27992">
        <ele>15.2</ele>
        <time>2018-04-20T19:01:01.925Z</time>
      </trkpt>
      <trkpt lat="48.83788" lon="-3.27991">
        <ele>15.2</ele>
        <time>2018-04-20T19:01:02.076Z</time>
      </trkpt>
      <trkpt lat="48.83789" lon="-3.2799">
        <ele>15.2</ele>
        <time>2018-04-20T19:01:02.225Z</time>
      </trkpt>
      <trkpt lat="48.8379" lon="-3.27989">
        <ele>15.2</ele>
        <time>2018-04-20T19:01:02.346Z</time>
      </trkpt>
      <trkpt lat="48.83791" lon="-3.27989">
        <ele>15.1</ele>
        <time>2018-04-20T19:01:02.440Z</time>
      </trkpt>
      <trkpt lat="48.83792" lon="-3.27988">
        <ele>15.1</ele>
        <time>2018-04-20T19:01:02.494Z</time>
      </trkpt>
      <trkpt lat="48.83791" lon="-3.27988">
        <ele>15.1</ele>
        <time>2018-04-20T19:01:02.519Z</time>
      </trkpt>
      <trkpt lat="48.83792" lon="-3.27988">
        <ele>15.1</ele>
        <time>2018-04-20T19:01:02.549Z</time>
      </trkpt>
      <trkpt lat="48.83791" lon="-3.27988">
        <ele>15.2</ele>
        <time>2018-04-20T19:01:02.634Z</time>
      </trkpt>
      <trkpt lat="48.83791" lon="-3.27989">
        <ele>15.2</ele>
        <time>2018-04-20T19:01:02.684Z</time>
      </trkpt>
      <trkpt lat="48.8379" lon="-3.2799">
        <ele>15.2</ele>
        <time>2018-04-20T19:01:02.847Z</time>
      </trkpt>
      <trkpt lat="48.83789" lon="-3.27993">
        <ele>15.1</ele>
        <time>2018-04-20T19:01:03.028Z</time>
      </trkpt>
      <trkpt lat="48.83788" lon="-3.27996">
        <ele>15.1</ele>
        <time>2018-04-20T19:01:03.266Z</time>
      </trkpt>
      <trkpt lat="48.83786" lon="-3.28003">
        <ele>15</ele>
        <time>2018-04-20T19:01:03.864Z</time>
      </trkpt>
      <trkpt lat="48.83783" lon="-3.28013">
        <ele>14.7</ele>
        <time>2018-04-20T19:01:04.672Z</time>
      </trkpt>
      <trkpt lat="48.83773" lon="-3.2804">
        <ele>14</ele>
        <time>2018-04-20T19:01:06.916Z</time>
      </trkpt>
      <trkpt lat="48.83768" lon="-3.28046">
        <ele>13.9</ele>
        <time>2018-04-20T19:01:07.635Z</time>
      </trkpt>
      <trkpt lat="48.83753" lon="-3.28068">
        <ele>13.5</ele>
        <time>2018-04-20T19:01:09.914Z</time>
      </trkpt>
      <trkpt lat="48.83749" lon="-3.28078">
        <ele>13.2</ele>
        <time>2018-04-20T19:01:10.814Z</time>
      </trkpt>
      <trkpt lat="48.83747" lon="-3.2809">
        <ele>12.9</ele>
        <time>2018-04-20T19:01:11.716Z</time>
      </trkpt>
      <trkpt lat="48.8373" lon="-3.28149">
        <ele>12.2</ele>
        <time>2018-04-20T19:01:16.381Z</time>
      </trkpt>
      <trkpt lat="48.83724" lon="-3.28159">
        <ele>12.1</ele>
        <time>2018-04-20T19:01:17.430Z</time>
      </trkpt>
      <trkpt lat="48.83712" lon="-3.2818">
        <ele>12</ele>
        <time>2018-04-20T19:01:19.444Z</time>
      </trkpt>
      <trkpt lat="48.83697" lon="-3.2821">
        <ele>11.7</ele>
        <time>2018-04-20T19:01:22.177Z</time>
      </trkpt>
      <trkpt lat="48.83695" lon="-3.28212">
        <ele>11.7</ele>
        <time>2018-04-20T19:01:22.427Z</time>
      </trkpt>
      <trkpt lat="48.83684" lon="-3.28228">
        <ele>11.1</ele>
        <time>2018-04-20T19:01:24.147Z</time>
      </trkpt>
      <trkpt lat="48.83683" lon="-3.28233">
        <ele>11</ele>
        <time>2018-04-20T19:01:24.549Z</time>
      </trkpt>
      <trkpt lat="48.83681" lon="-3.28244">
        <ele>10.8</ele>
        <time>2018-04-20T19:01:25.400Z</time>
      </trkpt>
      <trkpt lat="48.83679" lon="-3.2825">
        <ele>10.6</ele>
        <time>2018-04-20T19:01:25.843Z</time>
      </trkpt>
      <trkpt lat="48.83614" lon="-3.2847">
        <ele>7.5</ele>
        <time>2018-04-20T19:01:43.476Z</time>
      </trkpt>
      <trkpt lat="48.83612" lon="-3.28474">
        <ele>7.6</ele>
        <time>2018-04-20T19:01:43.914Z</time>
      </trkpt>
      <trkpt lat="48.83609" lon="-3.28477">
        <ele>7.8</ele>
        <time>2018-04-20T19:01:44.319Z</time>
      </trkpt>
      <trkpt lat="48.83606" lon="-3.28477">
        <ele>7.9</ele>
        <time>2018-04-20T19:01:44.661Z</time>
      </trkpt>
      <trkpt lat="48.836" lon="-3.28477">
        <ele>8.3</ele>
        <time>2018-04-20T19:01:45.235Z</time>
      </trkpt>
      <trkpt lat="48.83573" lon="-3.28469">
        <ele>10.5</ele>
        <time>2018-04-20T19:01:48.334Z</time>
      </trkpt>
      <trkpt lat="48.83565" lon="-3.28465">
        <ele>11.4</ele>
        <time>2018-04-20T19:01:49.256Z</time>
      </trkpt>
      <trkpt lat="48.835" lon="-3.28408">
        <ele>18.9</ele>
        <time>2018-04-20T19:01:57.671Z</time>
      </trkpt>
      <trkpt lat="48.8346" lon="-3.28375">
        <ele>22.8</ele>
        <time>2018-04-20T19:02:02.733Z</time>
      </trkpt>
      <trkpt lat="48.83454" lon="-3.28372">
        <ele>23.4</ele>
        <time>2018-04-20T19:02:03.455Z</time>
      </trkpt>
      <trkpt lat="48.83445" lon="-3.2837">
        <ele>24.4</ele>
        <time>2018-04-20T19:02:04.467Z</time>
      </trkpt>
      <trkpt lat="48.83443" lon="-3.28371">
        <ele>24.6</ele>
        <time>2018-04-20T19:02:04.671Z</time>
      </trkpt>
      <trkpt lat="48.83443" lon="-3.28372">
        <ele>24.7</ele>
        <time>2018-04-20T19:02:04.753Z</time>
      </trkpt>
      <trkpt lat="48.83443" lon="-3.28373">
        <ele>24.7</ele>
        <time>2018-04-20T19:02:04.803Z</time>
      </trkpt>
      <trkpt lat="48.83442" lon="-3.28374">
        <ele>24.7</ele>
        <time>2018-04-20T19:02:04.908Z</time>
      </trkpt>
      <trkpt lat="48.8344" lon="-3.28377">
        <ele>25</ele>
        <time>2018-04-20T19:02:05.232Z</time>
      </trkpt>
      <trkpt lat="48.8344" lon="-3.2838">
        <ele>25.1</ele>
        <time>2018-04-20T19:02:05.522Z</time>
      </trkpt>
      <trkpt lat="48.8344" lon="-3.28385">
        <ele>25.1</ele>
        <time>2018-04-20T19:02:05.857Z</time>
      </trkpt>
      <trkpt lat="48.83441" lon="-3.2839">
        <ele>25.1</ele>
        <time>2018-04-20T19:02:06.246Z</time>
      </trkpt>
      <trkpt lat="48.83442" lon="-3.28396">
        <ele>25</ele>
        <time>2018-04-20T19:02:06.698Z</time>
      </trkpt>
      <trkpt lat="48.83445" lon="-3.28401">
        <ele>24.8</ele>
        <time>2018-04-20T19:02:07.179Z</time>
      </trkpt>
      <trkpt lat="48.83454" lon="-3.28425">
        <ele>23.8</ele>
        <time>2018-04-20T19:02:09.154Z</time>
      </trkpt>
      <trkpt lat="48.83455" lon="-3.28433">
        <ele>23.4</ele>
        <time>2018-04-20T19:02:09.795Z</time>
      </trkpt>
      <trkpt lat="48.83461" lon="-3.28468">
        <ele>22</ele>
        <time>2018-04-20T19:02:12.450Z</time>
      </trkpt>
      <trkpt lat="48.83462" lon="-3.28478">
        <ele>21.7</ele>
        <time>2018-04-20T19:02:13.174Z</time>
      </trkpt>
      <trkpt lat="48.83461" lon="-3.285">
        <ele>21.2</ele>
        <time>2018-04-20T19:02:14.812Z</time>
      </trkpt>
      <trkpt lat="48.83458" lon="-3.28542">
        <ele>18.2</ele>
        <time>2018-04-20T19:02:17.883Z</time>
      </trkpt>
      <trkpt lat="48.83442" lon="-3.28694">
        <ele>6.6</ele>
        <time>2018-04-20T19:02:29.254Z</time>
      </trkpt>
      <trkpt lat="48.83438" lon="-3.28713">
        <ele>5.7</ele>
        <time>2018-04-20T19:02:30.643Z</time>
      </trkpt>
      <trkpt lat="48.83434" lon="-3.28729">
        <ele>4.9</ele>
        <time>2018-04-20T19:02:31.973Z</time>
      </trkpt>
      <trkpt lat="48.83428" lon="-3.28744">
        <ele>4.2</ele>
        <time>2018-04-20T19:02:33.201Z</time>
      </trkpt>
      <trkpt lat="48.83422" lon="-3.28757">
        <ele>4</ele>
        <time>2018-04-20T19:02:34.387Z</time>
      </trkpt>
      <trkpt lat="48.83406" lon="-3.28778">
        <ele>4.7</ele>
        <time>2018-04-20T19:02:36.770Z</time>
      </trkpt>
      <trkpt lat="48.83381" lon="-3.28807">
        <ele>6.4</ele>
        <time>2018-04-20T19:02:40.244Z</time>
      </trkpt>
      <trkpt lat="48.83324" lon="-3.28861">
        <ele>9.2</ele>
        <time>2018-04-20T19:02:47.654Z</time>
      </trkpt>
      <trkpt lat="48.83315" lon="-3.28863">
        <ele>9.1</ele>
        <time>2018-04-20T19:02:48.737Z</time>
      </trkpt>
      <trkpt lat="48.83305" lon="-3.28862">
        <ele>9</ele>
        <time>2018-04-20T19:02:49.819Z</time>
      </trkpt>
      <trkpt lat="48.83274" lon="-3.28861">
        <ele>8.6</ele>
        <time>2018-04-20T19:02:53.263Z</time>
      </trkpt>
      <trkpt lat="48.83263" lon="-3.28864">
        <ele>8.4</ele>
        <time>2018-04-20T19:02:54.532Z</time>
      </trkpt>
      <trkpt lat="48.83253" lon="-3.2887">
        <ele>8.1</ele>
        <time>2018-04-20T19:02:55.728Z</time>
      </trkpt>
      <trkpt lat="48.83234" lon="-3.28887">
        <ele>7.8</ele>
        <time>2018-04-20T19:02:58.147Z</time>
      </trkpt>
      <trkpt lat="48.83226" lon="-3.28896">
        <ele>7.6</ele>
        <time>2018-04-20T19:02:59.307Z</time>
      </trkpt>
      <trkpt lat="48.83211" lon="-3.28919">
        <ele>7.4</ele>
        <time>2018-04-20T19:03:01.682Z</time>
      </trkpt>
      <trkpt lat="48.83205" lon="-3.28932">
        <ele>7.1</ele>
        <time>2018-04-20T19:03:02.794Z</time>
      </trkpt>
      <trkpt lat="48.83194" lon="-3.28964">
        <ele>6.3</ele>
        <time>2018-04-20T19:03:05.486Z</time>
      </trkpt>
      <trkpt lat="48.83192" lon="-3.28974">
        <ele>6.1</ele>
        <time>2018-04-20T19:03:06.213Z</time>
      </trkpt>
      <trkpt lat="48.83192" lon="-3.28973">
        <ele>6.1</ele>
        <time>2018-04-20T19:03:06.269Z</time>
      </trkpt>
      <trkpt lat="48.83192" lon="-3.28972">
        <ele>6.1</ele>
        <time>2018-04-20T19:03:06.305Z</time>
      </trkpt>
      <trkpt lat="48.83191" lon="-3.28973">
        <ele>6.2</ele>
        <time>2018-04-20T19:03:06.427Z</time>
      </trkpt>
      <trkpt lat="48.83187" lon="-3.28973">
        <ele>6.2</ele>
        <time>2018-04-20T19:03:06.832Z</time>
      </trkpt>
      <trkpt lat="48.83184" lon="-3.28972">
        <ele>6.3</ele>
        <time>2018-04-20T19:03:07.203Z</time>
      </trkpt>
      <trkpt lat="48.83181" lon="-3.28969">
        <ele>6.5</ele>
        <time>2018-04-20T19:03:07.596Z</time>
      </trkpt>
      <trkpt lat="48.8311" lon="-3.28895">
        <ele>8</ele>
        <time>2018-04-20T19:03:17.179Z</time>
      </trkpt>
      <trkpt lat="48.83102" lon="-3.28883">
        <ele>8</ele>
        <time>2018-04-20T19:03:18.420Z</time>
      </trkpt>
      <trkpt lat="48.83086" lon="-3.28862">
        <ele>8</ele>
        <time>2018-04-20T19:03:20.733Z</time>
      </trkpt>
      <trkpt lat="48.83078" lon="-3.28855">
        <ele>7.9</ele>
        <time>2018-04-20T19:03:21.728Z</time>
      </trkpt>
      <trkpt lat="48.8307" lon="-3.28851">
        <ele>7.8</ele>
        <time>2018-04-20T19:03:22.670Z</time>
      </trkpt>
      <trkpt lat="48.83059" lon="-3.2885">
        <ele>7.6</ele>
        <time>2018-04-20T19:03:23.988Z</time>
      </trkpt>
      <trkpt lat="48.83026" lon="-3.28848">
        <ele>7.2</ele>
        <time>2018-04-20T19:03:27.570Z</time>
      </trkpt>
      <trkpt lat="48.83015" lon="-3.28842">
        <ele>7.1</ele>
        <time>2018-04-20T19:03:28.876Z</time>
      </trkpt>
      <trkpt lat="48.83004" lon="-3.28832">
        <ele>7.1</ele>
        <time>2018-04-20T19:03:30.331Z</time>
      </trkpt>
      <trkpt lat="48.82939" lon="-3.2878">
        <ele>8.3</ele>
        <time>2018-04-20T19:03:38.543Z</time>
      </trkpt>
      <trkpt lat="48.82923" lon="-3.28772">
        <ele>8.5</ele>
        <time>2018-04-20T19:03:40.393Z</time>
      </trkpt>
      <trkpt lat="48.82784" lon="-3.28723">
        <ele>12.9</ele>
        <time>2018-04-20T19:03:56.293Z</time>
      </trkpt>
      <trkpt lat="48.82721" lon="-3.28714">
        <ele>15.3</ele>
        <time>2018-04-20T19:04:03.336Z</time>
      </trkpt>
      <trkpt lat="48.82711" lon="-3.28717">
        <ele>15.7</ele>
        <time>2018-04-20T19:04:04.426Z</time>
      </trkpt>
      <trkpt lat="48.82703" lon="-3.28723">
        <ele>16</ele>
        <time>2018-04-20T19:04:05.448Z</time>
      </trkpt>
      <trkpt lat="48.82696" lon="-3.28732">
        <ele>16</ele>
        <time>2018-04-20T19:04:06.497Z</time>
      </trkpt>
      <trkpt lat="48.82655" lon="-3.28799">
        <ele>14.6</ele>
        <time>2018-04-20T19:04:13.140Z</time>
      </trkpt>
      <trkpt lat="48.82646" lon="-3.28805">
        <ele>14.8</ele>
        <time>2018-04-20T19:04:14.291Z</time>
      </trkpt>
      <trkpt lat="48.82619" lon="-3.28812">
        <ele>15.7</ele>
        <time>2018-04-20T19:04:17.278Z</time>
      </trkpt>
      <trkpt lat="48.82518" lon="-3.28822">
        <ele>21.2</ele>
        <time>2018-04-20T19:04:28.564Z</time>
      </trkpt>
      <trkpt lat="48.82504" lon="-3.2882">
        <ele>22.4</ele>
        <time>2018-04-20T19:04:30.133Z</time>
      </trkpt>
      <trkpt lat="48.82448" lon="-3.2881">
        <ele>29.9</ele>
        <time>2018-04-20T19:04:36.428Z</time>
      </trkpt>
      <trkpt lat="48.82435" lon="-3.28805">
        <ele>31.9</ele>
        <time>2018-04-20T19:04:37.929Z</time>
      </trkpt>
      <trkpt lat="48.8235" lon="-3.28764">
        <ele>44</ele>
        <time>2018-04-20T19:04:47.990Z</time>
      </trkpt>
      <trkpt lat="48.82211" lon="-3.28698">
        <ele>52.8</ele>
        <time>2018-04-20T19:05:04.195Z</time>
      </trkpt>
      <trkpt lat="48.822" lon="-3.28697">
        <ele>53.5</ele>
        <time>2018-04-20T19:05:05.388Z</time>
      </trkpt>
      <trkpt lat="48.82131" lon="-3.28701">
        <ele>55.6</ele>
        <time>2018-04-20T19:05:13.107Z</time>
      </trkpt>
      <trkpt lat="48.82095" lon="-3.28711">
        <ele>55.8</ele>
        <time>2018-04-20T19:05:17.175Z</time>
      </trkpt>
      <trkpt lat="48.82084" lon="-3.2872">
        <ele>56</ele>
        <time>2018-04-20T19:05:18.514Z</time>
      </trkpt>
      <trkpt lat="48.82073" lon="-3.28728">
        <ele>56.2</ele>
        <time>2018-04-20T19:05:19.916Z</time>
      </trkpt>
      <trkpt lat="48.82052" lon="-3.28756">
        <ele>56.9</ele>
        <time>2018-04-20T19:05:23.031Z</time>
      </trkpt>
      <trkpt lat="48.82027" lon="-3.28807">
        <ele>58.5</ele>
        <time>2018-04-20T19:05:27.670Z</time>
      </trkpt>
      <trkpt lat="48.82017" lon="-3.28842">
        <ele>59.8</ele>
        <time>2018-04-20T19:05:30.470Z</time>
      </trkpt>
      <trkpt lat="48.82015" lon="-3.28839">
        <ele>59.7</ele>
        <time>2018-04-20T19:05:30.779Z</time>
      </trkpt>
      <trkpt lat="48.82016" lon="-3.28839">
        <ele>59.7</ele>
        <time>2018-04-20T19:05:30.835Z</time>
      </trkpt>
      <trkpt lat="48.82016" lon="-3.28838">
        <ele>59.7</ele>
        <time>2018-04-20T19:05:30.945Z</time>
      </trkpt>
      <trkpt lat="48.82015" lon="-3.2884">
        <ele>59.8</ele>
        <time>2018-04-20T19:05:31.058Z</time>
      </trkpt>
      <trkpt lat="48.82015" lon="-3.28843">
        <ele>59.9</ele>
        <time>2018-04-20T19:05:31.283Z</time>
      </trkpt>
      <trkpt lat="48.82016" lon="-3.28844">
        <ele>60</ele>
        <time>2018-04-20T19:05:31.458Z</time>
      </trkpt>
      <trkpt lat="48.82019" lon="-3.28846">
        <ele>59.9</ele>
        <time>2018-04-20T19:05:31.795Z</time>
      </trkpt>
      <trkpt lat="48.82027" lon="-3.28852">
        <ele>60</ele>
        <time>2018-04-20T19:05:32.800Z</time>
      </trkpt>
      <trkpt lat="48.8203" lon="-3.28857">
        <ele>60</ele>
        <time>2018-04-20T19:05:33.319Z</time>
      </trkpt>
      <trkpt lat="48.8204" lon="-3.28871">
        <ele>60.4</ele>
        <time>2018-04-20T19:05:34.800Z</time>
      </trkpt>
      <trkpt lat="48.82061" lon="-3.28911">
        <ele>61.6</ele>
        <time>2018-04-20T19:05:38.553Z</time>
      </trkpt>
      <trkpt lat="48.82065" lon="-3.28923">
        <ele>62</ele>
        <time>2018-04-20T19:05:39.543Z</time>
      </trkpt>
      <trkpt lat="48.82068" lon="-3.28935">
        <ele>62.4</ele>
        <time>2018-04-20T19:05:40.486Z</time>
      </trkpt>
      <trkpt lat="48.82082" lon="-3.28998">
        <ele>64.9</ele>
        <time>2018-04-20T19:05:45.349Z</time>
      </trkpt>
      <trkpt lat="48.82108" lon="-3.29094">
        <ele>64.8</ele>
        <time>2018-04-20T19:05:52.928Z</time>
      </trkpt>
      <trkpt lat="48.82112" lon="-3.29104">
        <ele>64.6</ele>
        <time>2018-04-20T19:05:53.818Z</time>
      </trkpt>
      <trkpt lat="48.82117" lon="-3.29113">
        <ele>64.4</ele>
        <time>2018-04-20T19:05:54.694Z</time>
      </trkpt>
      <trkpt lat="48.8213" lon="-3.29127">
        <ele>63.8</ele>
        <time>2018-04-20T19:05:56.465Z</time>
      </trkpt>
      <trkpt lat="48.82136" lon="-3.29134">
        <ele>63.5</ele>
        <time>2018-04-20T19:05:57.251Z</time>
      </trkpt>
      <trkpt lat="48.82141" lon="-3.2914">
        <ele>63.2</ele>
        <time>2018-04-20T19:05:57.994Z</time>
      </trkpt>
      <trkpt lat="48.82144" lon="-3.29147">
        <ele>63.1</ele>
        <time>2018-04-20T19:05:58.638Z</time>
      </trkpt>
      <trkpt lat="48.82146" lon="-3.29156">
        <ele>63</ele>
        <time>2018-04-20T19:05:59.272Z</time>
      </trkpt>
      <trkpt lat="48.82148" lon="-3.29179">
        <ele>62.8</ele>
        <time>2018-04-20T19:06:01.018Z</time>
      </trkpt>
      <trkpt lat="48.82148" lon="-3.29192">
        <ele>62.6</ele>
        <time>2018-04-20T19:06:01.920Z</time>
      </trkpt>
      <trkpt lat="48.82151" lon="-3.29242">
        <ele>61.8</ele>
        <time>2018-04-20T19:06:05.599Z</time>
      </trkpt>
      <trkpt lat="48.82155" lon="-3.29244">
        <ele>61.6</ele>
        <time>2018-04-20T19:06:06.028Z</time>
      </trkpt>
      <trkpt lat="48.82159" lon="-3.29246">
        <ele>61.4</ele>
        <time>2018-04-20T19:06:06.558Z</time>
      </trkpt>
      <trkpt lat="48.82037" lon="-3.29292">
        <ele>65.3</ele>
        <time>2018-04-20T19:06:20.525Z</time>
      </trkpt>
      <trkpt lat="48.81788" lon="-3.29312">
        <ele>65.6</ele>
        <time>2018-04-20T19:06:48.307Z</time>
      </trkpt>
      <trkpt lat="48.81719" lon="-3.29308">
        <ele>66.9</ele>
        <time>2018-04-20T19:06:55.994Z</time>
      </trkpt>
      <trkpt lat="48.81661" lon="-3.2936">
        <ele>67.4</ele>
        <time>2018-04-20T19:07:03.418Z</time>
      </trkpt>
      <trkpt lat="48.81568" lon="-3.2936">
        <ele>67.9</ele>
        <time>2018-04-20T19:07:13.788Z</time>
      </trkpt>
      <trkpt lat="48.81474" lon="-3.2943">
        <ele>65.8</ele>
        <time>2018-04-20T19:07:25.424Z</time>
      </trkpt>
      <trkpt lat="48.81373" lon="-3.29451">
        <ele>65.9</ele>
        <time>2018-04-20T19:07:36.803Z</time>
      </trkpt>
      <trkpt lat="48.81332" lon="-3.29497">
        <ele>67</ele>
        <time>2018-04-20T19:07:42.437Z</time>
      </trkpt>
      <trkpt lat="48.81281" lon="-3.2953">
        <ele>66.8</ele>
        <time>2018-04-20T19:07:48.612Z</time>
      </trkpt>
      <trkpt lat="48.81227" lon="-3.29525">
        <ele>67</ele>
        <time>2018-04-20T19:07:54.668Z</time>
      </trkpt>
      <trkpt lat="48.8118" lon="-3.29551">
        <ele>69.1</ele>
        <time>2018-04-20T19:08:00.181Z</time>
      </trkpt>
      <trkpt lat="48.81175" lon="-3.296">
        <ele>70.8</ele>
        <time>2018-04-20T19:08:03.832Z</time>
      </trkpt>
      <trkpt lat="48.81163" lon="-3.29743">
        <ele>69.2</ele>
        <time>2018-04-20T19:08:14.376Z</time>
      </trkpt>
      <trkpt lat="48.81209" lon="-3.29722">
        <ele>70.2</ele>
        <time>2018-04-20T19:08:19.751Z</time>
      </trkpt>
      <trkpt lat="48.81271" lon="-3.29766">
        <ele>69.4</ele>
        <time>2018-04-20T19:08:27.304Z</time>
      </trkpt>
      <trkpt lat="48.81306" lon="-3.29845">
        <ele>68.3</ele>
        <time>2018-04-20T19:08:34.352Z</time>
      </trkpt>
      <trkpt lat="48.81372" lon="-3.301">
        <ele>74.3</ele>
        <time>2018-04-20T19:08:54.389Z</time>
      </trkpt>
      <trkpt lat="48.81539" lon="-3.30218">
        <ele>71.1</ele>
        <time>2018-04-20T19:09:14.851Z</time>
      </trkpt>
      <trkpt lat="48.81532" lon="-3.30385">
        <ele>69.6</ele>
        <time>2018-04-20T19:09:27.139Z</time>
      </trkpt>
      <trkpt lat="48.8152" lon="-3.30462">
        <ele>69.5</ele>
        <time>2018-04-20T19:09:32.964Z</time>
      </trkpt>
      <trkpt lat="48.81537" lon="-3.30717">
        <ele>72.9</ele>
        <time>2018-04-20T19:09:51.682Z</time>
      </trkpt>
      <trkpt lat="48.8153" lon="-3.30862">
        <ele>71.8</ele>
        <time>2018-04-20T19:10:02.328Z</time>
      </trkpt>
      <trkpt lat="48.81549" lon="-3.31122">
        <ele>70.9</ele>
        <time>2018-04-20T19:10:21.483Z</time>
      </trkpt>
      <trkpt lat="48.81645" lon="-3.31452">
        <ele>54.2</ele>
        <time>2018-04-20T19:10:47.921Z</time>
      </trkpt>
      <trkpt lat="48.81701" lon="-3.31545">
        <ele>50.7</ele>
        <time>2018-04-20T19:10:57.214Z</time>
      </trkpt>
      <trkpt lat="48.81785" lon="-3.31616">
        <ele>48.8</ele>
        <time>2018-04-20T19:11:07.859Z</time>
      </trkpt>
      <trkpt lat="48.81823" lon="-3.31712">
        <ele>48.3</ele>
        <time>2018-04-20T19:11:16.101Z</time>
      </trkpt>
      <trkpt lat="48.81804" lon="-3.31803">
        <ele>48.9</ele>
        <time>2018-04-20T19:11:23.054Z</time>
      </trkpt>
      <trkpt lat="48.81797" lon="-3.31953">
        <ele>50.7</ele>
        <time>2018-04-20T19:11:34.112Z</time>
      </trkpt>
      <trkpt lat="48.81782" lon="-3.32221">
        <ele>55.9</ele>
        <time>2018-04-20T19:11:53.777Z</time>
      </trkpt>
      <trkpt lat="48.81796" lon="-3.32348">
        <ele>55.7</ele>
        <time>2018-04-20T19:12:03.259Z</time>
      </trkpt>
      <trkpt lat="48.81804" lon="-3.32532">
        <ele>56.6</ele>
        <time>2018-04-20T19:12:16.695Z</time>
      </trkpt>
      <trkpt lat="48.81864" lon="-3.32591">
        <ele>53.7</ele>
        <time>2018-04-20T19:12:24.692Z</time>
      </trkpt>
      <trkpt lat="48.81798" lon="-3.3275">
        <ele>54.4</ele>
        <time>2018-04-20T19:12:38.446Z</time>
      </trkpt>
      <trkpt lat="48.81746" lon="-3.32792">
        <ele>55.1</ele>
        <time>2018-04-20T19:12:44.987Z</time>
      </trkpt>
      <trkpt lat="48.81716" lon="-3.3283">
        <ele>55.4</ele>
        <time>2018-04-20T19:12:49.344Z</time>
      </trkpt>
      <trkpt lat="48.81669" lon="-3.32929">
        <ele>55.8</ele>
        <time>2018-04-20T19:12:58.272Z</time>
      </trkpt>
      <trkpt lat="48.81641" lon="-3.33173">
        <ele>55.8</ele>
        <time>2018-04-20T19:13:16.383Z</time>
      </trkpt>
      <trkpt lat="48.81565" lon="-3.33159">
        <ele>58.7</ele>
        <time>2018-04-20T19:13:24.821Z</time>
      </trkpt>
      <trkpt lat="48.81514" lon="-3.33136">
        <ele>60.5</ele>
        <time>2018-04-20T19:13:30.701Z</time>
      </trkpt>
      <trkpt lat="48.81434" lon="-3.33189">
        <ele>63.9</ele>
        <time>2018-04-20T19:13:40.437Z</time>
      </trkpt>
      <trkpt lat="48.81414" lon="-3.33215">
        <ele>64.5</ele>
        <time>2018-04-20T19:13:43.337Z</time>
      </trkpt>
      <trkpt lat="48.81372" lon="-3.33365">
        <ele>64.4</ele>
        <time>2018-04-20T19:13:55.257Z</time>
      </trkpt>
      <trkpt lat="48.81297" lon="-3.33356">
        <ele>67.6</ele>
        <time>2018-04-20T19:14:03.677Z</time>
      </trkpt>
      <trkpt lat="48.81287" lon="-3.33509">
        <ele>64.2</ele>
        <time>2018-04-20T19:14:14.932Z</time>
      </trkpt>
      <trkpt lat="48.81342" lon="-3.33641">
        <ele>56.9</ele>
        <time>2018-04-20T19:14:26.358Z</time>
      </trkpt>
      <trkpt lat="48.81344" lon="-3.33788">
        <ele>54</ele>
        <time>2018-04-20T19:14:37.101Z</time>
      </trkpt>
      <trkpt lat="48.81308" lon="-3.33924">
        <ele>53.2</ele>
        <time>2018-04-20T19:14:47.804Z</time>
      </trkpt>
      <trkpt lat="48.81291" lon="-3.34092">
        <ele>52.4</ele>
        <time>2018-04-20T19:15:00.277Z</time>
      </trkpt>
      <trkpt lat="48.81292" lon="-3.34174">
        <ele>51</ele>
        <time>2018-04-20T19:15:06.269Z</time>
      </trkpt>
      <trkpt lat="48.81259" lon="-3.343">
        <ele>44.3</ele>
        <time>2018-04-20T19:15:16.206Z</time>
      </trkpt>
      <trkpt lat="48.81227" lon="-3.34357">
        <ele>42.6</ele>
        <time>2018-04-20T19:15:21.737Z</time>
      </trkpt>
      <trkpt lat="48.81211" lon="-3.34488">
        <ele>33.5</ele>
        <time>2018-04-20T19:15:31.528Z</time>
      </trkpt>
      <trkpt lat="48.81225" lon="-3.34527">
        <ele>27.2</ele>
        <time>2018-04-20T19:15:34.834Z</time>
      </trkpt>
      <trkpt lat="48.81199" lon="-3.34555">
        <ele>23.6</ele>
        <time>2018-04-20T19:15:38.394Z</time>
      </trkpt>
      <trkpt lat="48.81231" lon="-3.34609">
        <ele>15.5</ele>
        <time>2018-04-20T19:15:43.741Z</time>
      </trkpt>
      <trkpt lat="48.81199" lon="-3.34649">
        <ele>14.6</ele>
        <time>2018-04-20T19:15:48.328Z</time>
      </trkpt>
      <trkpt lat="48.81183" lon="-3.34776">
        <ele>12.6</ele>
        <time>2018-04-20T19:15:57.845Z</time>
      </trkpt>
      <trkpt lat="48.81196" lon="-3.34871">
        <ele>15.7</ele>
        <time>2018-04-20T19:16:04.946Z</time>
      </trkpt>
      <trkpt lat="48.81241" lon="-3.35027">
        <ele>25</ele>
        <time>2018-04-20T19:16:17.436Z</time>
      </trkpt>
      <trkpt lat="48.81292" lon="-3.35088">
        <ele>35</ele>
        <time>2018-04-20T19:16:24.701Z</time>
      </trkpt>
      <trkpt lat="48.81331" lon="-3.35205">
        <ele>51.4</ele>
        <time>2018-04-20T19:16:34.428Z</time>
      </trkpt>
      <trkpt lat="48.81317" lon="-3.35366">
        <ele>54</ele>
        <time>2018-04-20T19:16:46.354Z</time>
      </trkpt>
      <trkpt lat="48.81316" lon="-3.35464">
        <ele>54</ele>
        <time>2018-04-20T19:16:53.540Z</time>
      </trkpt>
      <trkpt lat="48.81287" lon="-3.35554">
        <ele>54.7</ele>
        <time>2018-04-20T19:17:00.849Z</time>
      </trkpt>
      <trkpt lat="48.81243" lon="-3.35691">
        <ele>54.3</ele>
        <time>2018-04-20T19:17:12.003Z</time>
      </trkpt>
      <trkpt lat="48.81269" lon="-3.35743">
        <ele>53.1</ele>
        <time>2018-04-20T19:17:16.750Z</time>
      </trkpt>
      <trkpt lat="48.81281" lon="-3.35785">
        <ele>52.3</ele>
        <time>2018-04-20T19:17:20.121Z</time>
      </trkpt>
      <trkpt lat="48.81277" lon="-3.35784">
        <ele>52.3</ele>
        <time>2018-04-20T19:17:20.598Z</time>
      </trkpt>
      <trkpt lat="48.81273" lon="-3.35784">
        <ele>52.4</ele>
        <time>2018-04-20T19:17:21.027Z</time>
      </trkpt>
      <trkpt lat="48.81264" lon="-3.35789">
        <ele>52.4</ele>
        <time>2018-04-20T19:17:22.110Z</time>
      </trkpt>
      <trkpt lat="48.81258" lon="-3.35795">
        <ele>52.3</ele>
        <time>2018-04-20T19:17:22.819Z</time>
      </trkpt>
      <trkpt lat="48.81252" lon="-3.35801">
        <ele>52.3</ele>
        <time>2018-04-20T19:17:23.633Z</time>
      </trkpt>
      <trkpt lat="48.81247" lon="-3.35808">
        <ele>52.3</ele>
        <time>2018-04-20T19:17:24.425Z</time>
      </trkpt>
      <trkpt lat="48.81242" lon="-3.35815">
        <ele>52.3</ele>
        <time>2018-04-20T19:17:25.193Z</time>
      </trkpt>
      <trkpt lat="48.81224" lon="-3.35843">
        <ele>51.9</ele>
        <time>2018-04-20T19:17:28.026Z</time>
      </trkpt>
      <trkpt lat="48.81221" lon="-3.3585">
        <ele>51.6</ele>
        <time>2018-04-20T19:17:28.637Z</time>
      </trkpt>
      <trkpt lat="48.81187" lon="-3.35927">
        <ele>48.9</ele>
        <time>2018-04-20T19:17:35.460Z</time>
      </trkpt>
      <trkpt lat="48.81181" lon="-3.35935">
        <ele>48.6</ele>
        <time>2018-04-20T19:17:36.349Z</time>
      </trkpt>
      <trkpt lat="48.81147" lon="-3.3598">
        <ele>46.2</ele>
        <time>2018-04-20T19:17:41.311Z</time>
      </trkpt>
      <trkpt lat="48.81146" lon="-3.35996">
        <ele>45.2</ele>
        <time>2018-04-20T19:17:42.490Z</time>
      </trkpt>
      <trkpt lat="48.8114" lon="-3.36082">
        <ele>39.7</ele>
        <time>2018-04-20T19:17:48.862Z</time>
      </trkpt>
      <trkpt lat="48.81137" lon="-3.361">
        <ele>39.4</ele>
        <time>2018-04-20T19:17:50.241Z</time>
      </trkpt>
      <trkpt lat="48.81133" lon="-3.36118">
        <ele>39</ele>
        <time>2018-04-20T19:17:51.647Z</time>
      </trkpt>
      <trkpt lat="48.81119" lon="-3.36166">
        <ele>38</ele>
        <time>2018-04-20T19:17:55.508Z</time>
      </trkpt>
      <trkpt lat="48.81115" lon="-3.36177">
        <ele>37.8</ele>
        <time>2018-04-20T19:17:56.390Z</time>
      </trkpt>
      <trkpt lat="48.81111" lon="-3.36184">
        <ele>37.7</ele>
        <time>2018-04-20T19:17:57.090Z</time>
      </trkpt>
      <trkpt lat="48.81044" lon="-3.36332">
        <ele>40.4</ele>
        <time>2018-04-20T19:18:10.237Z</time>
      </trkpt>
      <trkpt lat="48.81035" lon="-3.36346">
        <ele>41.3</ele>
        <time>2018-04-20T19:18:11.650Z</time>
      </trkpt>
      <trkpt lat="48.80983" lon="-3.36411">
        <ele>48.1</ele>
        <time>2018-04-20T19:18:19.150Z</time>
      </trkpt>
      <trkpt lat="48.80891" lon="-3.36519">
        <ele>57.3</ele>
        <time>2018-04-20T19:18:32.179Z</time>
      </trkpt>
      <trkpt lat="48.80884" lon="-3.36533">
        <ele>57.8</ele>
        <time>2018-04-20T19:18:33.404Z</time>
      </trkpt>
      <trkpt lat="48.80879" lon="-3.36547">
        <ele>58.3</ele>
        <time>2018-04-20T19:18:34.631Z</time>
      </trkpt>
      <trkpt lat="48.80843" lon="-3.36689">
        <ele>59.4</ele>
        <time>2018-04-20T19:18:45.742Z</time>
      </trkpt>
      <trkpt lat="48.80838" lon="-3.3672">
        <ele>59.2</ele>
        <time>2018-04-20T19:18:48.080Z</time>
      </trkpt>
      <trkpt lat="48.80835" lon="-3.3675">
        <ele>58.9</ele>
        <time>2018-04-20T19:18:50.290Z</time>
      </trkpt>
      <trkpt lat="48.80827" lon="-3.3685">
        <ele>60.1</ele>
        <time>2018-04-20T19:18:57.679Z</time>
      </trkpt>
      <trkpt lat="48.80825" lon="-3.3686">
        <ele>60.1</ele>
        <time>2018-04-20T19:18:58.453Z</time>
      </trkpt>
      <trkpt lat="48.80823" lon="-3.3687">
        <ele>60.1</ele>
        <time>2018-04-20T19:18:59.251Z</time>
      </trkpt>
      <trkpt lat="48.80811" lon="-3.36924">
        <ele>60.7</ele>
        <time>2018-04-20T19:19:03.368Z</time>
      </trkpt>
      <trkpt lat="48.80812" lon="-3.36929">
        <ele>61</ele>
        <time>2018-04-20T19:19:03.754Z</time>
      </trkpt>
      <trkpt lat="48.80815" lon="-3.36941">
        <ele>61.7</ele>
        <time>2018-04-20T19:19:04.707Z</time>
      </trkpt>
      <trkpt lat="48.80815" lon="-3.36949">
        <ele>62.2</ele>
        <time>2018-04-20T19:19:05.314Z</time>
      </trkpt>
      <trkpt lat="48.80818" lon="-3.37016">
        <ele>65.8</ele>
        <time>2018-04-20T19:19:10.227Z</time>
      </trkpt>
      <trkpt lat="48.80824" lon="-3.3708">
        <ele>68</ele>
        <time>2018-04-20T19:19:15.003Z</time>
      </trkpt>
      <trkpt lat="48.80828" lon="-3.37089">
        <ele>68.3</ele>
        <time>2018-04-20T19:19:15.748Z</time>
      </trkpt>
      <trkpt lat="48.80835" lon="-3.37101">
        <ele>68.6</ele>
        <time>2018-04-20T19:19:16.880Z</time>
      </trkpt>
      <trkpt lat="48.80833" lon="-3.37099">
        <ele>68.6</ele>
        <time>2018-04-20T19:19:17.074Z</time>
      </trkpt>
      <trkpt lat="48.80832" lon="-3.37097">
        <ele>68.5</ele>
        <time>2018-04-20T19:19:17.260Z</time>
      </trkpt>
      <trkpt lat="48.80831" lon="-3.37095">
        <ele>68.5</ele>
        <time>2018-04-20T19:19:17.442Z</time>
      </trkpt>
      <trkpt lat="48.80831" lon="-3.37094">
        <ele>68.4</ele>
        <time>2018-04-20T19:19:17.478Z</time>
      </trkpt>
      <trkpt lat="48.80832" lon="-3.37094">
        <ele>68.4</ele>
        <time>2018-04-20T19:19:17.517Z</time>
      </trkpt>
      <trkpt lat="48.80832" lon="-3.37095">
        <ele>68.5</ele>
        <time>2018-04-20T19:19:17.599Z</time>
      </trkpt>
      <trkpt lat="48.80832" lon="-3.37096">
        <ele>68.5</ele>
        <time>2018-04-20T19:19:17.626Z</time>
      </trkpt>
      <trkpt lat="48.80831" lon="-3.37098">
        <ele>68.6</ele>
        <time>2018-04-20T19:19:17.794Z</time>
      </trkpt>
      <trkpt lat="48.80831" lon="-3.371">
        <ele>68.7</ele>
        <time>2018-04-20T19:19:17.985Z</time>
      </trkpt>
      <trkpt lat="48.80829" lon="-3.37102">
        <ele>68.7</ele>
        <time>2018-04-20T19:19:18.157Z</time>
      </trkpt>
      <trkpt lat="48.80827" lon="-3.37101">
        <ele>68.7</ele>
        <time>2018-04-20T19:19:18.437Z</time>
      </trkpt>
      <trkpt lat="48.80824" lon="-3.37101">
        <ele>68.8</ele>
        <time>2018-04-20T19:19:18.770Z</time>
      </trkpt>
      <trkpt lat="48.80822" lon="-3.37102">
        <ele>68.9</ele>
        <time>2018-04-20T19:19:19.036Z</time>
      </trkpt>
      <trkpt lat="48.80819" lon="-3.37104">
        <ele>69</ele>
        <time>2018-04-20T19:19:19.392Z</time>
      </trkpt>
      <trkpt lat="48.80816" lon="-3.37104">
        <ele>69</ele>
        <time>2018-04-20T19:19:19.741Z</time>
      </trkpt>
      <trkpt lat="48.80811" lon="-3.37107">
        <ele>69.2</ele>
        <time>2018-04-20T19:19:20.317Z</time>
      </trkpt>
      <trkpt lat="48.80808" lon="-3.37111">
        <ele>69.4</ele>
        <time>2018-04-20T19:19:20.743Z</time>
      </trkpt>
      <trkpt lat="48.80802" lon="-3.37123">
        <ele>70</ele>
        <time>2018-04-20T19:19:21.897Z</time>
      </trkpt>
      <trkpt lat="48.80801" lon="-3.3713">
        <ele>70.3</ele>
        <time>2018-04-20T19:19:22.377Z</time>
      </trkpt>
      <trkpt lat="48.80801" lon="-3.37137">
        <ele>70.6</ele>
        <time>2018-04-20T19:19:22.926Z</time>
      </trkpt>
      <trkpt lat="48.80807" lon="-3.37182">
        <ele>71.8</ele>
        <time>2018-04-20T19:19:26.278Z</time>
      </trkpt>
      <trkpt lat="48.8081" lon="-3.37191">
        <ele>71.8</ele>
        <time>2018-04-20T19:19:27.066Z</time>
      </trkpt>
      <trkpt lat="48.80817" lon="-3.37212">
        <ele>71.8</ele>
        <time>2018-04-20T19:19:28.732Z</time>
      </trkpt>
      <trkpt lat="48.80819" lon="-3.37223">
        <ele>71.9</ele>
        <time>2018-04-20T19:19:29.581Z</time>
      </trkpt>
      <trkpt lat="48.80834" lon="-3.3729">
        <ele>71.9</ele>
        <time>2018-04-20T19:19:34.804Z</time>
      </trkpt>
      <trkpt lat="48.80838" lon="-3.373">
        <ele>71.7</ele>
        <time>2018-04-20T19:19:35.617Z</time>
      </trkpt>
      <trkpt lat="48.80844" lon="-3.37317">
        <ele>71.2</ele>
        <time>2018-04-20T19:19:37.061Z</time>
      </trkpt>
      <trkpt lat="48.80848" lon="-3.37324">
        <ele>70.8</ele>
        <time>2018-04-20T19:19:37.729Z</time>
      </trkpt>
      <trkpt lat="48.80853" lon="-3.3733">
        <ele>70.4</ele>
        <time>2018-04-20T19:19:38.411Z</time>
      </trkpt>
      <trkpt lat="48.80858" lon="-3.37336">
        <ele>69.8</ele>
        <time>2018-04-20T19:19:39.116Z</time>
      </trkpt>
      <trkpt lat="48.80863" lon="-3.3734">
        <ele>69.1</ele>
        <time>2018-04-20T19:19:39.833Z</time>
      </trkpt>
      <trkpt lat="48.80869" lon="-3.37344">
        <ele>68.4</ele>
        <time>2018-04-20T19:19:40.553Z</time>
      </trkpt>
      <trkpt lat="48.80878" lon="-3.37346">
        <ele>67.6</ele>
        <time>2018-04-20T19:19:41.526Z</time>
      </trkpt>
      <trkpt lat="48.80889" lon="-3.37348">
        <ele>66.6</ele>
        <time>2018-04-20T19:19:42.733Z</time>
      </trkpt>
      <trkpt lat="48.80891" lon="-3.3735">
        <ele>66.4</ele>
        <time>2018-04-20T19:19:42.973Z</time>
      </trkpt>
      <trkpt lat="48.80892" lon="-3.37352">
        <ele>66.2</ele>
        <time>2018-04-20T19:19:43.154Z</time>
      </trkpt>
      <trkpt lat="48.80892" lon="-3.37355">
        <ele>66</ele>
        <time>2018-04-20T19:19:43.386Z</time>
      </trkpt>
      <trkpt lat="48.80891" lon="-3.37359">
        <ele>65.9</ele>
        <time>2018-04-20T19:19:43.698Z</time>
      </trkpt>
      <trkpt lat="48.80889" lon="-3.3737">
        <ele>65.6</ele>
        <time>2018-04-20T19:19:44.522Z</time>
      </trkpt>
      <trkpt lat="48.80885" lon="-3.37376">
        <ele>65.6</ele>
        <time>2018-04-20T19:19:45.147Z</time>
      </trkpt>
      <trkpt lat="48.80827" lon="-3.37476">
        <ele>65.4</ele>
        <time>2018-04-20T19:19:54.876Z</time>
      </trkpt>
      <trkpt lat="48.8082" lon="-3.37484">
        <ele>65.3</ele>
        <time>2018-04-20T19:19:55.835Z</time>
      </trkpt>
      <trkpt lat="48.80797" lon="-3.37509">
        <ele>65.5</ele>
        <time>2018-04-20T19:19:58.992Z</time>
      </trkpt>
      <trkpt lat="48.80794" lon="-3.37512">
        <ele>65.6</ele>
        <time>2018-04-20T19:19:59.450Z</time>
      </trkpt>
      <trkpt lat="48.80791" lon="-3.37514">
        <ele>65.7</ele>
        <time>2018-04-20T19:19:59.744Z</time>
      </trkpt>
      <trkpt lat="48.8079" lon="-3.37514">
        <ele>65.7</ele>
        <time>2018-04-20T19:19:59.873Z</time>
      </trkpt>
      <trkpt lat="48.8079" lon="-3.37513">
        <ele>65.7</ele>
        <time>2018-04-20T19:19:59.952Z</time>
      </trkpt>
      <trkpt lat="48.80789" lon="-3.37513">
        <ele>65.8</ele>
        <time>2018-04-20T19:20:00.045Z</time>
      </trkpt>
      <trkpt lat="48.80788" lon="-3.37512">
        <ele>65.9</ele>
        <time>2018-04-20T19:20:00.213Z</time>
      </trkpt>
      <trkpt lat="48.80766" lon="-3.37492">
        <ele>67.5</ele>
        <time>2018-04-20T19:20:03.017Z</time>
      </trkpt>
      <trkpt lat="48.80762" lon="-3.37487">
        <ele>67.9</ele>
        <time>2018-04-20T19:20:03.616Z</time>
      </trkpt>
      <trkpt lat="48.80758" lon="-3.37481">
        <ele>68.3</ele>
        <time>2018-04-20T19:20:04.265Z</time>
      </trkpt>
      <trkpt lat="48.80735" lon="-3.37445">
        <ele>69.5</ele>
        <time>2018-04-20T19:20:07.945Z</time>
      </trkpt>
      <trkpt lat="48.8073" lon="-3.3744">
        <ele>69.6</ele>
        <time>2018-04-20T19:20:08.647Z</time>
      </trkpt>
      <trkpt lat="48.80725" lon="-3.37439">
        <ele>69.4</ele>
        <time>2018-04-20T19:20:09.228Z</time>
      </trkpt>
      <trkpt lat="48.80723" lon="-3.37441">
        <ele>69.3</ele>
        <time>2018-04-20T19:20:09.462Z</time>
      </trkpt>
      <trkpt lat="48.80721" lon="-3.37444">
        <ele>69.2</ele>
        <time>2018-04-20T19:20:09.835Z</time>
      </trkpt>
      <trkpt lat="48.80716" lon="-3.37454">
        <ele>68.8</ele>
        <time>2018-04-20T19:20:10.735Z</time>
      </trkpt>
      <trkpt lat="48.80625" lon="-3.37632">
        <ele>64.6</ele>
        <time>2018-04-20T19:20:27.240Z</time>
      </trkpt>
      <trkpt lat="48.8062" lon="-3.37639">
        <ele>64.5</ele>
        <time>2018-04-20T19:20:27.980Z</time>
      </trkpt>
      <trkpt lat="48.80615" lon="-3.37646">
        <ele>64.3</ele>
        <time>2018-04-20T19:20:28.747Z</time>
      </trkpt>
      <trkpt lat="48.80608" lon="-3.37652">
        <ele>64.2</ele>
        <time>2018-04-20T19:20:29.596Z</time>
      </trkpt>
      <trkpt lat="48.80603" lon="-3.37659">
        <ele>64.1</ele>
        <time>2018-04-20T19:20:30.342Z</time>
      </trkpt>
      <trkpt lat="48.8058" lon="-3.37679">
        <ele>63.8</ele>
        <time>2018-04-20T19:20:33.313Z</time>
      </trkpt>
      <trkpt lat="48.8053" lon="-3.3772">
        <ele>63.1</ele>
        <time>2018-04-20T19:20:39.654Z</time>
      </trkpt>
      <trkpt lat="48.80525" lon="-3.37727">
        <ele>63.1</ele>
        <time>2018-04-20T19:20:40.366Z</time>
      </trkpt>
      <trkpt lat="48.80521" lon="-3.37734">
        <ele>63</ele>
        <time>2018-04-20T19:20:41.117Z</time>
      </trkpt>
      <trkpt lat="48.80512" lon="-3.37753">
        <ele>63</ele>
        <time>2018-04-20T19:20:42.813Z</time>
      </trkpt>
      <trkpt lat="48.80508" lon="-3.37764">
        <ele>63</ele>
        <time>2018-04-20T19:20:43.751Z</time>
      </trkpt>
      <trkpt lat="48.80501" lon="-3.37791">
        <ele>63</ele>
        <time>2018-04-20T19:20:45.853Z</time>
      </trkpt>
      <trkpt lat="48.80449" lon="-3.3805">
        <ele>58.2</ele>
        <time>2018-04-20T19:21:05.682Z</time>
      </trkpt>
      <trkpt lat="48.8045" lon="-3.38065">
        <ele>57.8</ele>
        <time>2018-04-20T19:21:06.780Z</time>
      </trkpt>
      <trkpt lat="48.80454" lon="-3.38094">
        <ele>57.1</ele>
        <time>2018-04-20T19:21:08.943Z</time>
      </trkpt>
      <trkpt lat="48.80462" lon="-3.38126">
        <ele>56.9</ele>
        <time>2018-04-20T19:21:11.500Z</time>
      </trkpt>
      <trkpt lat="48.80466" lon="-3.38147">
        <ele>56.8</ele>
        <time>2018-04-20T19:21:13.079Z</time>
      </trkpt>
      <trkpt lat="48.80466" lon="-3.38169">
        <ele>56.5</ele>
        <time>2018-04-20T19:21:14.689Z</time>
      </trkpt>
      <trkpt lat="48.80464" lon="-3.38235">
        <ele>55.6</ele>
        <time>2018-04-20T19:21:19.531Z</time>
      </trkpt>
      <trkpt lat="48.80462" lon="-3.38248">
        <ele>55.3</ele>
        <time>2018-04-20T19:21:20.500Z</time>
      </trkpt>
      <trkpt lat="48.80458" lon="-3.38263">
        <ele>55.1</ele>
        <time>2018-04-20T19:21:21.627Z</time>
      </trkpt>
      <trkpt lat="48.80444" lon="-3.38308">
        <ele>54.7</ele>
        <time>2018-04-20T19:21:25.304Z</time>
      </trkpt>
      <trkpt lat="48.80437" lon="-3.38323">
        <ele>54.6</ele>
        <time>2018-04-20T19:21:26.619Z</time>
      </trkpt>
      <trkpt lat="48.80387" lon="-3.38528">
        <ele>42.1</ele>
        <time>2018-04-20T19:21:42.717Z</time>
      </trkpt>
      <trkpt lat="48.80377" lon="-3.38669">
        <ele>20.1</ele>
        <time>2018-04-20T19:21:53.324Z</time>
      </trkpt>
      <trkpt lat="48.80378" lon="-3.38688">
        <ele>16.8</ele>
        <time>2018-04-20T19:21:54.762Z</time>
      </trkpt>
      <trkpt lat="48.80383" lon="-3.38771">
        <ele>5</ele>
        <time>2018-04-20T19:22:01.008Z</time>
      </trkpt>
      <trkpt lat="48.80382" lon="-3.3878">
        <ele>4.8</ele>
        <time>2018-04-20T19:22:01.635Z</time>
      </trkpt>
      <trkpt lat="48.80378" lon="-3.38793">
        <ele>4.4</ele>
        <time>2018-04-20T19:22:02.679Z</time>
      </trkpt>
      <trkpt lat="48.80375" lon="-3.38799">
        <ele>4.2</ele>
        <time>2018-04-20T19:22:03.220Z</time>
      </trkpt>
      <trkpt lat="48.80371" lon="-3.38804">
        <ele>4</ele>
        <time>2018-04-20T19:22:03.824Z</time>
      </trkpt>
      <trkpt lat="48.80365" lon="-3.38808">
        <ele>3.9</ele>
        <time>2018-04-20T19:22:04.588Z</time>
      </trkpt>
      <trkpt lat="48.80351" lon="-3.38811">
        <ele>3.7</ele>
        <time>2018-04-20T19:22:06.178Z</time>
      </trkpt>
      <trkpt lat="48.80342" lon="-3.38809">
        <ele>3.8</ele>
        <time>2018-04-20T19:22:07.135Z</time>
      </trkpt>
      <trkpt lat="48.80275" lon="-3.38792">
        <ele>7.1</ele>
        <time>2018-04-20T19:22:14.764Z</time>
      </trkpt>
      <trkpt lat="48.80264" lon="-3.38793">
        <ele>7.4</ele>
        <time>2018-04-20T19:22:15.968Z</time>
      </trkpt>
      <trkpt lat="48.80243" lon="-3.38801">
        <ele>7.5</ele>
        <time>2018-04-20T19:22:18.379Z</time>
      </trkpt>
      <trkpt lat="48.80234" lon="-3.3881">
        <ele>7.2</ele>
        <time>2018-04-20T19:22:19.570Z</time>
      </trkpt>
      <trkpt lat="48.80208" lon="-3.38848">
        <ele>6.2</ele>
        <time>2018-04-20T19:22:23.611Z</time>
      </trkpt>
      <trkpt lat="48.80158" lon="-3.38941">
        <ele>7.3</ele>
        <time>2018-04-20T19:22:32.355Z</time>
      </trkpt>
      <trkpt lat="48.80143" lon="-3.38981">
        <ele>8</ele>
        <time>2018-04-20T19:22:35.726Z</time>
      </trkpt>
      <trkpt lat="48.8014" lon="-3.38992">
        <ele>8</ele>
        <time>2018-04-20T19:22:36.571Z</time>
      </trkpt>
      <trkpt lat="48.80129" lon="-3.3906">
        <ele>8.3</ele>
        <time>2018-04-20T19:22:41.717Z</time>
      </trkpt>
      <trkpt lat="48.80128" lon="-3.39095">
        <ele>7.9</ele>
        <time>2018-04-20T19:22:44.293Z</time>
      </trkpt>
      <trkpt lat="48.80116" lon="-3.39379">
        <ele>2.3</ele>
        <time>2018-04-20T19:23:05.168Z</time>
      </trkpt>
      <trkpt lat="48.80113" lon="-3.39399">
        <ele>1.6</ele>
        <time>2018-04-20T19:23:06.640Z</time>
      </trkpt>
      <trkpt lat="48.80108" lon="-3.39418">
        <ele>1</ele>
        <time>2018-04-20T19:23:08.151Z</time>
      </trkpt>
      <trkpt lat="48.80096" lon="-3.39452">
        <ele>1</ele>
        <time>2018-04-20T19:23:11.020Z</time>
      </trkpt>
      <trkpt lat="48.80082" lon="-3.39503">
        <ele>6.9</ele>
        <time>2018-04-20T19:23:15.046Z</time>
      </trkpt>
      <trkpt lat="48.80035" lon="-3.39659">
        <ele>3.2</ele>
        <time>2018-04-20T19:23:27.667Z</time>
      </trkpt>
      <trkpt lat="48.80027" lon="-3.39676">
        <ele>2.9</ele>
        <time>2018-04-20T19:23:29.179Z</time>
      </trkpt>
      <trkpt lat="48.7998" lon="-3.39786">
        <ele>4.2</ele>
        <time>2018-04-20T19:23:38.751Z</time>
      </trkpt>
      <trkpt lat="48.79977" lon="-3.39801">
        <ele>4.5</ele>
        <time>2018-04-20T19:23:39.911Z</time>
      </trkpt>
      <trkpt lat="48.79976" lon="-3.39912">
        <ele>15.8</ele>
        <time>2018-04-20T19:23:48.146Z</time>
      </trkpt>
      <trkpt lat="48.79977" lon="-3.40049">
        <ele>14.8</ele>
        <time>2018-04-20T19:23:58.154Z</time>
      </trkpt>
      <trkpt lat="48.79976" lon="-3.4007">
        <ele>14.3</ele>
        <time>2018-04-20T19:23:59.736Z</time>
      </trkpt>
      <trkpt lat="48.79959" lon="-3.40149">
        <ele>14.8</ele>
        <time>2018-04-20T19:24:05.803Z</time>
      </trkpt>
      <trkpt lat="48.79921" lon="-3.40237">
        <ele>13.5</ele>
        <time>2018-04-20T19:24:13.571Z</time>
      </trkpt>
      <trkpt lat="48.79869" lon="-3.40356">
        <ele>20.9</ele>
        <time>2018-04-20T19:24:24.017Z</time>
      </trkpt>
      <trkpt lat="48.79851" lon="-3.40419">
        <ele>23.6</ele>
        <time>2018-04-20T19:24:29.033Z</time>
      </trkpt>
      <trkpt lat="48.79849" lon="-3.40458">
        <ele>25.8</ele>
        <time>2018-04-20T19:24:31.961Z</time>
      </trkpt>
      <trkpt lat="48.79844" lon="-3.40577">
        <ele>30.8</ele>
        <time>2018-04-20T19:24:40.716Z</time>
      </trkpt>
      <trkpt lat="48.79839" lon="-3.40595">
        <ele>31.8</ele>
        <time>2018-04-20T19:24:42.129Z</time>
      </trkpt>
      <trkpt lat="48.7982" lon="-3.40615">
        <ele>35.5</ele>
        <time>2018-04-20T19:24:44.740Z</time>
      </trkpt>
      <trkpt lat="48.7981" lon="-3.40622">
        <ele>37.5</ele>
        <time>2018-04-20T19:24:45.911Z</time>
      </trkpt>
      <trkpt lat="48.79799" lon="-3.40626">
        <ele>40.1</ele>
        <time>2018-04-20T19:24:47.207Z</time>
      </trkpt>
      <trkpt lat="48.7979" lon="-3.40633">
        <ele>42.1</ele>
        <time>2018-04-20T19:24:48.316Z</time>
      </trkpt>
      <trkpt lat="48.79781" lon="-3.40639">
        <ele>44.1</ele>
        <time>2018-04-20T19:24:49.424Z</time>
      </trkpt>
      <trkpt lat="48.79774" lon="-3.40646">
        <ele>46</ele>
        <time>2018-04-20T19:24:50.423Z</time>
      </trkpt>
      <trkpt lat="48.79732" lon="-3.40674">
        <ele>52</ele>
        <time>2018-04-20T19:24:55.555Z</time>
      </trkpt>
      <trkpt lat="48.79725" lon="-3.40676">
        <ele>52.2</ele>
        <time>2018-04-20T19:24:56.342Z</time>
      </trkpt>
      <trkpt lat="48.79702" lon="-3.40677">
        <ele>53.2</ele>
        <time>2018-04-20T19:24:58.942Z</time>
      </trkpt>
      <trkpt lat="48.79639" lon="-3.40683">
        <ele>55.4</ele>
        <time>2018-04-20T19:25:05.911Z</time>
      </trkpt>
      <trkpt lat="48.7963" lon="-3.40687">
        <ele>55.6</ele>
        <time>2018-04-20T19:25:06.938Z</time>
      </trkpt>
      <trkpt lat="48.79612" lon="-3.407">
        <ele>56</ele>
        <time>2018-04-20T19:25:09.208Z</time>
      </trkpt>
      <trkpt lat="48.79486" lon="-3.40816">
        <ele>57.5</ele>
        <time>2018-04-20T19:25:25.519Z</time>
      </trkpt>
      <trkpt lat="48.79479" lon="-3.40817">
        <ele>57.6</ele>
        <time>2018-04-20T19:25:26.322Z</time>
      </trkpt>
      <trkpt lat="48.79472" lon="-3.40816">
        <ele>57.7</ele>
        <time>2018-04-20T19:25:27.105Z</time>
      </trkpt>
      <trkpt lat="48.79466" lon="-3.40811">
        <ele>58</ele>
        <time>2018-04-20T19:25:27.888Z</time>
      </trkpt>
      <trkpt lat="48.79455" lon="-3.40798">
        <ele>58.7</ele>
        <time>2018-04-20T19:25:29.454Z</time>
      </trkpt>
      <trkpt lat="48.79419" lon="-3.40766">
        <ele>61.1</ele>
        <time>2018-04-20T19:25:34.047Z</time>
      </trkpt>
      <trkpt lat="48.79411" lon="-3.40762">
        <ele>61.4</ele>
        <time>2018-04-20T19:25:35.008Z</time>
      </trkpt>
      <trkpt lat="48.79396" lon="-3.4076">
        <ele>61.6</ele>
        <time>2018-04-20T19:25:36.707Z</time>
      </trkpt>
      <trkpt lat="48.79388" lon="-3.40761">
        <ele>61.5</ele>
        <time>2018-04-20T19:25:37.640Z</time>
      </trkpt>
      <trkpt lat="48.79377" lon="-3.40772">
        <ele>61.1</ele>
        <time>2018-04-20T19:25:39.078Z</time>
      </trkpt>
      <trkpt lat="48.79375" lon="-3.4078">
        <ele>60.7</ele>
        <time>2018-04-20T19:25:39.712Z</time>
      </trkpt>
      <trkpt lat="48.79375" lon="-3.40799">
        <ele>59.9</ele>
        <time>2018-04-20T19:25:41.097Z</time>
      </trkpt>
      <trkpt lat="48.79374" lon="-3.40808">
        <ele>59.6</ele>
        <time>2018-04-20T19:25:41.765Z</time>
      </trkpt>
      <trkpt lat="48.7937" lon="-3.40839">
        <ele>58.5</ele>
        <time>2018-04-20T19:25:44.064Z</time>
      </trkpt>
      <trkpt lat="48.79369" lon="-3.40845">
        <ele>58.5</ele>
        <time>2018-04-20T19:25:44.497Z</time>
      </trkpt>
      <trkpt lat="48.79367" lon="-3.40849">
        <ele>58.5</ele>
        <time>2018-04-20T19:25:44.911Z</time>
      </trkpt>
      <trkpt lat="48.79365" lon="-3.40855">
        <ele>58.5</ele>
        <time>2018-04-20T19:25:45.374Z</time>
      </trkpt>
      <trkpt lat="48.79363" lon="-3.40861">
        <ele>58.4</ele>
        <time>2018-04-20T19:25:45.865Z</time>
      </trkpt>
      <trkpt lat="48.79362" lon="-3.40867">
        <ele>58.4</ele>
        <time>2018-04-20T19:25:46.321Z</time>
      </trkpt>
      <trkpt lat="48.79363" lon="-3.40874">
        <ele>58.3</ele>
        <time>2018-04-20T19:25:46.799Z</time>
      </trkpt>
      <trkpt lat="48.79364" lon="-3.40881">
        <ele>58.3</ele>
        <time>2018-04-20T19:25:47.382Z</time>
      </trkpt>
      <trkpt lat="48.79416" lon="-3.41101">
        <ele>60.6</ele>
        <time>2018-04-20T19:26:04.473Z</time>
      </trkpt>
      <trkpt lat="48.7942" lon="-3.4111">
        <ele>60.2</ele>
        <time>2018-04-20T19:26:05.258Z</time>
      </trkpt>
      <trkpt lat="48.79445" lon="-3.41163">
        <ele>57.7</ele>
        <time>2018-04-20T19:26:10.049Z</time>
      </trkpt>
      <trkpt lat="48.79449" lon="-3.41174">
        <ele>57</ele>
        <time>2018-04-20T19:26:10.934Z</time>
      </trkpt>
      <trkpt lat="48.79451" lon="-3.41185">
        <ele>56.3</ele>
        <time>2018-04-20T19:26:11.837Z</time>
      </trkpt>
      <trkpt lat="48.79498" lon="-3.41394">
        <ele>48.5</ele>
        <time>2018-04-20T19:26:27.962Z</time>
      </trkpt>
      <trkpt lat="48.79501" lon="-3.41401">
        <ele>48.3</ele>
        <time>2018-04-20T19:26:28.644Z</time>
      </trkpt>
      <trkpt lat="48.79503" lon="-3.4141">
        <ele>48</ele>
        <time>2018-04-20T19:26:29.303Z</time>
      </trkpt>
      <trkpt lat="48.79504" lon="-3.41418">
        <ele>47.8</ele>
        <time>2018-04-20T19:26:29.930Z</time>
      </trkpt>
      <trkpt lat="48.79502" lon="-3.41427">
        <ele>47.8</ele>
        <time>2018-04-20T19:26:30.604Z</time>
      </trkpt>
      <trkpt lat="48.79497" lon="-3.41477">
        <ele>47.2</ele>
        <time>2018-04-20T19:26:34.321Z</time>
      </trkpt>
      <trkpt lat="48.79476" lon="-3.41655">
        <ele>43.8</ele>
        <time>2018-04-20T19:26:47.571Z</time>
      </trkpt>
      <trkpt lat="48.79476" lon="-3.41675">
        <ele>43</ele>
        <time>2018-04-20T19:26:49.041Z</time>
      </trkpt>
      <trkpt lat="48.79482" lon="-3.41738">
        <ele>39.3</ele>
        <time>2018-04-20T19:26:53.699Z</time>
      </trkpt>
      <trkpt lat="48.79492" lon="-3.41781">
        <ele>37.7</ele>
        <time>2018-04-20T19:26:57.048Z</time>
      </trkpt>
      <trkpt lat="48.79585" lon="-3.42121">
        <ele>34</ele>
        <time>2018-04-20T19:27:24.023Z</time>
      </trkpt>
      <trkpt lat="48.79587" lon="-3.42143">
        <ele>34.5</ele>
        <time>2018-04-20T19:27:25.655Z</time>
      </trkpt>
      <trkpt lat="48.79634" lon="-3.42617">
        <ele>4.9</ele>
        <time>2018-04-20T19:28:00.869Z</time>
      </trkpt>
      <trkpt lat="48.79637" lon="-3.42636">
        <ele>4.6</ele>
        <time>2018-04-20T19:28:02.324Z</time>
      </trkpt>
      <trkpt lat="48.79732" lon="-3.43269">
        <ele>6.9</ele>
        <time>2018-04-20T19:28:49.848Z</time>
      </trkpt>
      <trkpt lat="48.79733" lon="-3.43478">
        <ele>1.2</ele>
        <time>2018-04-20T19:29:05.169Z</time>
      </trkpt>
      <trkpt lat="48.79736" lon="-3.43498">
        <ele>1.6</ele>
        <time>2018-04-20T19:29:06.724Z</time>
      </trkpt>
      <trkpt lat="48.7976" lon="-3.43601">
        <ele>4</ele>
        <time>2018-04-20T19:29:14.681Z</time>
      </trkpt>
      <trkpt lat="48.79785" lon="-3.43745">
        <ele>1.2</ele>
        <time>2018-04-20T19:29:25.265Z</time>
      </trkpt>
      <trkpt lat="48.79793" lon="-3.44013">
        <ele>5</ele>
        <time>2021-03-04T09:47:20Z</time>
      </trkpt>
      <trkpt lat="48.79792" lon="-3.44066">
        <ele>5</ele>
        <time>2021-03-04T09:47:26Z</time>
      </trkpt>
      <trkpt lat="48.79796" lon="-3.44089">
        <ele>5</ele>
        <time>2021-03-04T09:47:29Z</time>
      </trkpt>
      <trkpt lat="48.79802" lon="-3.44105">
        <ele>5</ele>
        <time>2021-03-04T09:47:31Z</time>
      </trkpt>
      <trkpt lat="48.79804" lon="-3.44124">
        <ele>6</ele>
        <time>2021-03-04T09:47:33Z</time>
      </trkpt>
      <trkpt lat="48.79807" lon="-3.44137">
        <ele>6</ele>
        <time>2021-03-04T09:47:35Z</time>
      </trkpt>
      <trkpt lat="48.79812" lon="-3.4416">
        <ele>5</ele>
        <time>2021-03-04T09:47:38Z</time>
      </trkpt>
      <trkpt lat="48.79815" lon="-3.44173">
        <ele>6</ele>
        <time>2021-03-04T09:47:39Z</time>
      </trkpt>
      <trkpt lat="48.79819" lon="-3.44184">
        <ele>6</ele>
        <time>2021-03-04T09:47:41Z</time>
      </trkpt>
      <trkpt lat="48.79826" lon="-3.44193">
        <ele>6</ele>
        <time>2021-03-04T09:47:43Z</time>
      </trkpt>
      <trkpt lat="48.79836" lon="-3.442">
        <ele>6</ele>
        <time>2021-03-04T09:47:45Z</time>
      </trkpt>
      <trkpt lat="48.799" lon="-3.44219">
        <ele>6</ele>
        <time>2021-03-04T09:47:56Z</time>
      </trkpt>
      <trkpt lat="48.79902" lon="-3.4422">
        <ele>6</ele>
        <time>2021-03-04T09:47:57Z</time>
      </trkpt>
      <trkpt lat="48.79914" lon="-3.44224">
        <ele>6</ele>
        <time>2021-03-04T09:47:59Z</time>
      </trkpt>
      <trkpt lat="48.79933" lon="-3.4423">
        <ele>6</ele>
        <time>2021-03-04T09:48:02Z</time>
      </trkpt>
      <trkpt lat="48.79934" lon="-3.44231">
        <ele>6</ele>
        <time>2021-03-04T09:48:02Z</time>
      </trkpt>
      <trkpt lat="48.79995" lon="-3.44252">
        <ele>6</ele>
        <time>2021-03-04T09:48:14Z</time>
      </trkpt>
      <trkpt lat="48.80021" lon="-3.44261">
        <ele>6</ele>
        <time>2021-03-04T09:48:18Z</time>
      </trkpt>
      <trkpt lat="48.80035" lon="-3.44266">
        <ele>6</ele>
        <time>2021-03-04T09:48:21Z</time>
      </trkpt>
      <trkpt lat="48.80045" lon="-3.4427">
        <ele>6</ele>
        <time>2021-03-04T09:48:23Z</time>
      </trkpt>
      <trkpt lat="48.80051" lon="-3.44272">
        <ele>6</ele>
        <time>2021-03-04T09:48:24Z</time>
      </trkpt>
      <trkpt lat="48.80075" lon="-3.44283">
        <ele>5</ele>
        <time>2021-03-04T09:48:28Z</time>
      </trkpt>
      <trkpt lat="48.80089" lon="-3.44292">
        <ele>6</ele>
        <time>2021-03-04T09:48:31Z</time>
      </trkpt>
      <trkpt lat="48.80093" lon="-3.44294">
        <ele>6</ele>
        <time>2021-03-04T09:48:32Z</time>
      </trkpt>
      <trkpt lat="48.80099" lon="-3.443">
        <ele>6</ele>
        <time>2021-03-04T09:48:33Z</time>
      </trkpt>
      <trkpt lat="48.80102" lon="-3.44302">
        <ele>6</ele>
        <time>2021-03-04T09:48:34Z</time>
      </trkpt>
      <trkpt lat="48.80126" lon="-3.44324">
        <ele>6</ele>
        <time>2021-03-04T09:48:39Z</time>
      </trkpt>
      <trkpt lat="48.80134" lon="-3.44331">
        <ele>6</ele>
        <time>2021-03-04T09:48:40Z</time>
      </trkpt>
      <trkpt lat="48.80152" lon="-3.44345">
        <ele>6</ele>
        <time>2021-03-04T09:48:44Z</time>
      </trkpt>
      <trkpt lat="48.80168" lon="-3.44351">
        <ele>6</ele>
        <time>2021-03-04T09:48:47Z</time>
      </trkpt>
      <trkpt lat="48.80185" lon="-3.44351">
        <ele>6</ele>
        <time>2021-03-04T09:48:50Z</time>
      </trkpt>
      <trkpt lat="48.8021" lon="-3.44354">
        <ele>5</ele>
        <time>2021-03-04T09:48:54Z</time>
      </trkpt>
      <trkpt lat="48.80216" lon="-3.44349">
        <ele>5</ele>
        <time>2021-03-04T09:48:55Z</time>
      </trkpt>
      <trkpt lat="48.80284" lon="-3.44324">
        <ele>5</ele>
        <time>2021-03-04T09:49:08Z</time>
      </trkpt>
      <trkpt lat="48.80296" lon="-3.44319">
        <ele>5</ele>
        <time>2021-03-04T09:49:10Z</time>
      </trkpt>
      <trkpt lat="48.80323" lon="-3.44318">
        <ele>4</ele>
        <time>2021-03-04T09:49:15Z</time>
      </trkpt>
      <trkpt lat="48.80348" lon="-3.44327">
        <ele>5</ele>
        <time>2021-03-04T09:49:19Z</time>
      </trkpt>
      <trkpt lat="48.80363" lon="-3.44328">
        <ele>5</ele>
        <time>2021-03-04T09:49:22Z</time>
      </trkpt>
      <trkpt lat="48.80365" lon="-3.44327">
        <ele>5</ele>
        <time>2021-03-04T09:49:22Z</time>
      </trkpt>
      <trkpt lat="48.80375" lon="-3.44324">
        <ele>5</ele>
        <time>2021-03-04T09:49:24Z</time>
      </trkpt>
      <trkpt lat="48.80387" lon="-3.44321">
        <ele>6</ele>
        <time>2021-03-04T09:49:26Z</time>
      </trkpt>
      <trkpt lat="48.80439" lon="-3.44302">
        <ele>5</ele>
        <time>2021-03-04T09:49:36Z</time>
      </trkpt>
      <trkpt lat="48.80494" lon="-3.44283">
        <ele>4</ele>
        <time>2021-03-04T09:49:46Z</time>
      </trkpt>
      <trkpt lat="48.80499" lon="-3.44281">
        <ele>4</ele>
        <time>2021-03-04T09:49:47Z</time>
      </trkpt>
      <trkpt lat="48.80506" lon="-3.44278">
        <ele>4</ele>
        <time>2021-03-04T09:49:48Z</time>
      </trkpt>
      <trkpt lat="48.80517" lon="-3.44269">
        <ele>4</ele>
        <time>2021-03-04T09:49:50Z</time>
      </trkpt>
      <trkpt lat="48.80582" lon="-3.44204">
        <ele>3</ele>
        <time>2021-03-04T09:50:04Z</time>
      </trkpt>
      <trkpt lat="48.80616" lon="-3.44171">
        <ele>3</ele>
        <time>2021-03-04T09:50:11Z</time>
      </trkpt>
      <trkpt lat="48.80617" lon="-3.44168">
        <ele>2</ele>
        <time>2021-03-04T09:50:12Z</time>
      </trkpt>
      <trkpt lat="48.8063" lon="-3.44143">
        <ele>2</ele>
        <time>2021-03-04T09:50:16Z</time>
      </trkpt>
      <trkpt lat="48.8065" lon="-3.44079">
        <ele>2</ele>
        <time>2021-03-04T09:50:24Z</time>
      </trkpt>
      <trkpt lat="48.80653" lon="-3.4406">
        <ele>1</ele>
        <time>2021-03-04T09:50:26Z</time>
      </trkpt>
      <trkpt lat="48.80656" lon="-3.44022">
        <ele>3.8</ele>
        <time>2021-03-04T09:50:31Z</time>
      </trkpt>
      <trkpt lat="48.80655" lon="-3.43985">
        <ele>1</ele>
        <time>2021-03-04T09:50:35Z</time>
      </trkpt>
      <trkpt lat="48.80649" lon="-3.43946">
        <ele>1</ele>
        <time>2021-03-04T09:50:40Z</time>
      </trkpt>
      <trkpt lat="48.8064" lon="-3.43916">
        <ele>3</ele>
        <time>2021-03-04T09:50:44Z</time>
      </trkpt>
      <trkpt lat="48.8062" lon="-3.43869">
        <ele>3</ele>
        <time>2021-03-04T09:50:50Z</time>
      </trkpt>
      <trkpt lat="48.80607" lon="-3.43837">
        <ele>3</ele>
        <time>2021-03-04T09:50:55Z</time>
      </trkpt>
      <trkpt lat="48.80606" lon="-3.43831">
        <ele>2</ele>
        <time>2021-03-04T09:50:55Z</time>
      </trkpt>
      <trkpt lat="48.80605" lon="-3.43814">
        <ele>3</ele>
        <time>2021-03-04T09:50:57Z</time>
      </trkpt>
      <trkpt lat="48.80606" lon="-3.43796">
        <ele>3</ele>
        <time>2021-03-04T09:50:59Z</time>
      </trkpt>
      <trkpt lat="48.80611" lon="-3.43762">
        <ele>3</ele>
        <time>2021-03-04T09:51:03Z</time>
      </trkpt>
      <trkpt lat="48.80616" lon="-3.43748">
        <ele>4</ele>
        <time>2021-03-04T09:51:05Z</time>
      </trkpt>
      <trkpt lat="48.80619" lon="-3.43742">
        <ele>4</ele>
        <time>2021-03-04T09:51:06Z</time>
      </trkpt>
      <trkpt lat="48.80629" lon="-3.43723">
        <ele>3</ele>
        <time>2021-03-04T09:51:09Z</time>
      </trkpt>
      <trkpt lat="48.80633" lon="-3.43718">
        <ele>3</ele>
        <time>2021-03-04T09:51:10Z</time>
      </trkpt>
      <trkpt lat="48.80639" lon="-3.43711">
        <ele>3</ele>
        <time>2021-03-04T09:51:11Z</time>
      </trkpt>
      <trkpt lat="48.80645" lon="-3.43708">
        <ele>3</ele>
        <time>2021-03-04T09:51:12Z</time>
      </trkpt>
      <trkpt lat="48.8065" lon="-3.43707">
        <ele>3</ele>
        <time>2021-03-04T09:51:13Z</time>
      </trkpt>
      <trkpt lat="48.80651" lon="-3.43707">
        <ele>3</ele>
        <time>2021-03-04T09:51:14Z</time>
      </trkpt>
      <trkpt lat="48.80665" lon="-3.43705">
        <ele>3</ele>
        <time>2021-03-04T09:51:16Z</time>
      </trkpt>
      <trkpt lat="48.80676" lon="-3.43707">
        <ele>3</ele>
        <time>2021-03-04T09:51:18Z</time>
      </trkpt>
      <trkpt lat="48.80709" lon="-3.43711">
        <ele>3</ele>
        <time>2021-03-04T09:51:24Z</time>
      </trkpt>
      <trkpt lat="48.80725" lon="-3.43714">
        <ele>4</ele>
        <time>2021-03-04T09:51:27Z</time>
      </trkpt>
      <trkpt lat="48.80732" lon="-3.43715">
        <ele>4</ele>
        <time>2021-03-04T09:51:28Z</time>
      </trkpt>
      <trkpt lat="48.80811" lon="-3.43727">
        <ele>4</ele>
        <time>2021-03-04T09:51:42Z</time>
      </trkpt>
      <trkpt lat="48.80842" lon="-3.43731">
        <ele>4</ele>
        <time>2021-03-04T09:51:48Z</time>
      </trkpt>
      <trkpt lat="48.80877" lon="-3.43735">
        <ele>3</ele>
        <time>2021-03-04T09:51:54Z</time>
      </trkpt>
      <trkpt lat="48.80953" lon="-3.43746">
        <ele>2</ele>
        <time>2021-03-04T09:52:07Z</time>
      </trkpt>
      <trkpt lat="48.80964" lon="-3.43748">
        <ele>3</ele>
        <time>2021-03-04T09:52:09Z</time>
      </trkpt>
      <trkpt lat="48.81037" lon="-3.43775">
        <ele>7</ele>
        <time>2021-03-04T09:52:23Z</time>
      </trkpt>
      <trkpt lat="48.81073" lon="-3.43778">
        <ele>9</ele>
        <time>2021-03-04T09:52:29Z</time>
      </trkpt>
      <trkpt lat="48.81093" lon="-3.43773">
        <ele>11</ele>
        <time>2021-03-04T09:52:33Z</time>
      </trkpt>
      <trkpt lat="48.81121" lon="-3.43757">
        <ele>12</ele>
        <time>2021-03-04T09:52:38Z</time>
      </trkpt>
      <trkpt lat="48.81137" lon="-3.43741">
        <ele>12</ele>
        <time>2021-03-04T09:52:42Z</time>
      </trkpt>
      <trkpt lat="48.8115" lon="-3.43723">
        <ele>12</ele>
        <time>2021-03-04T09:52:45Z</time>
      </trkpt>
      <trkpt lat="48.81164" lon="-3.43692">
        <ele>11</ele>
        <time>2021-03-04T09:52:49Z</time>
      </trkpt>
      <trkpt lat="48.81191" lon="-3.43607">
        <ele>12</ele>
        <time>2021-03-04T09:53:00Z</time>
      </trkpt>
      <trkpt lat="48.81203" lon="-3.43583">
        <ele>14</ele>
        <time>2021-03-04T09:53:04Z</time>
      </trkpt>
      <trkpt lat="48.81249" lon="-3.43516">
        <ele>15</ele>
        <time>2021-03-04T09:53:15Z</time>
      </trkpt>
      <trkpt lat="48.81272" lon="-3.43495">
        <ele>16</ele>
        <time>2021-03-04T09:53:20Z</time>
      </trkpt>
      <trkpt lat="48.81293" lon="-3.4348">
        <ele>17</ele>
        <time>2021-03-04T09:53:24Z</time>
      </trkpt>
      <trkpt lat="48.81316" lon="-3.4347">
        <ele>19</ele>
        <time>2021-03-04T09:53:28Z</time>
      </trkpt>
      <trkpt lat="48.81385" lon="-3.43457">
        <ele>23</ele>
        <time>2021-03-04T09:53:41Z</time>
      </trkpt>
      <trkpt lat="48.81386" lon="-3.4345">
        <ele>21</ele>
        <time>2021-03-04T09:53:41Z</time>
      </trkpt>
      <trkpt lat="48.814" lon="-3.43437">
        <ele>20</ele>
        <time>2021-03-04T09:53:44Z</time>
      </trkpt>
      <trkpt lat="48.81461" lon="-3.43403">
        <ele>21</ele>
        <time>2021-03-04T09:53:56Z</time>
      </trkpt>
      <trkpt lat="48.81533" lon="-3.43371">
        <ele>29</ele>
        <time>2021-03-04T09:54:09Z</time>
      </trkpt>
      <trkpt lat="48.81545" lon="-3.43359">
        <ele>30</ele>
        <time>2021-03-04T09:54:12Z</time>
      </trkpt>
      <trkpt lat="48.81553" lon="-3.43344">
        <ele>31</ele>
        <time>2021-03-04T09:54:14Z</time>
      </trkpt>
      <trkpt lat="48.81561" lon="-3.43299">
        <ele>31</ele>
        <time>2021-03-04T09:54:20Z</time>
      </trkpt>
      <trkpt lat="48.81563" lon="-3.43276">
        <ele>31</ele>
        <time>2021-03-04T09:54:22Z</time>
      </trkpt>
      <trkpt lat="48.81573" lon="-3.43165">
        <ele>30</ele>
        <time>2021-03-04T09:54:35Z</time>
      </trkpt>
      <trkpt lat="48.8158" lon="-3.43123">
        <ele>28</ele>
        <time>2021-03-04T09:54:40Z</time>
      </trkpt>
      <trkpt lat="48.81587" lon="-3.43109">
        <ele>28</ele>
        <time>2021-03-04T09:54:43Z</time>
      </trkpt>
      <trkpt lat="48.81597" lon="-3.431">
        <ele>28</ele>
        <time>2021-03-04T09:54:45Z</time>
      </trkpt>
      <trkpt lat="48.8161" lon="-3.43095">
        <ele>29</ele>
        <time>2021-03-04T09:54:47Z</time>
      </trkpt>
      <trkpt lat="48.81718" lon="-3.4307">
        <ele>33</ele>
        <time>2021-03-04T09:55:06Z</time>
      </trkpt>
      <trkpt lat="48.81729" lon="-3.43062">
        <ele>33</ele>
        <time>2021-03-04T09:55:09Z</time>
      </trkpt>
      <trkpt lat="48.81771" lon="-3.43">
        <ele>33</ele>
        <time>2021-03-04T09:55:19Z</time>
      </trkpt>
      <trkpt lat="48.81797" lon="-3.42976">
        <ele>34</ele>
        <time>2021-03-04T09:55:24Z</time>
      </trkpt>
      <trkpt lat="48.81933" lon="-3.42946">
        <ele>22</ele>
        <time>2021-03-04T09:55:49Z</time>
      </trkpt>
      <trkpt lat="48.81941" lon="-3.42942">
        <ele>21</ele>
        <time>2021-03-04T09:55:50Z</time>
      </trkpt>
      <trkpt lat="48.81943" lon="-3.42944">
        <ele>21</ele>
        <time>2021-03-04T09:55:51Z</time>
      </trkpt>
      <trkpt lat="48.81941" lon="-3.42952">
        <ele>19</ele>
        <time>2021-03-04T09:55:52Z</time>
      </trkpt>
      <trkpt lat="48.8192" lon="-3.4297">
        <ele>19</ele>
        <time>2021-03-04T09:55:56Z</time>
      </trkpt>
      <trkpt lat="48.81914" lon="-3.4298">
        <ele>17</ele>
        <time>2021-03-04T09:55:58Z</time>
      </trkpt>
      <trkpt lat="48.81906" lon="-3.42997">
        <ele>14</ele>
        <time>2021-03-04T09:56:00Z</time>
      </trkpt>
      <trkpt lat="48.81901" lon="-3.43017">
        <ele>13</ele>
        <time>2021-03-04T09:56:03Z</time>
      </trkpt>
      <trkpt lat="48.81891" lon="-3.43073">
        <ele>11</ele>
        <time>2021-03-04T09:56:09Z</time>
      </trkpt>
      <trkpt lat="48.81843" lon="-3.43058">
        <ele>20</ele>
        <time>2021-03-04T09:56:18Z</time>
      </trkpt>
      <trkpt lat="48.81836" lon="-3.43059">
        <ele>21</ele>
        <time>2021-03-04T09:56:19Z</time>
      </trkpt>
      <trkpt lat="48.81828" lon="-3.43065">
        <ele>21</ele>
        <time>2021-03-04T09:56:21Z</time>
      </trkpt>
      <trkpt lat="48.81822" lon="-3.43076">
        <ele>21</ele>
        <time>2021-03-04T09:56:23Z</time>
      </trkpt>
      <trkpt lat="48.81808" lon="-3.43158">
        <ele>20</ele>
        <time>2021-03-04T09:56:33Z</time>
      </trkpt>
      <trkpt lat="48.81807" lon="-3.43167">
        <ele>20</ele>
        <time>2021-03-04T09:56:34Z</time>
      </trkpt>
      <trkpt lat="48.81811" lon="-3.43188">
        <ele>20</ele>
        <time>2021-03-04T09:56:36Z</time>
      </trkpt>
      <trkpt lat="48.81816" lon="-3.43198">
        <ele>19</ele>
        <time>2021-03-04T09:56:38Z</time>
      </trkpt>
      <trkpt lat="48.81821" lon="-3.43202">
        <ele>18</ele>
        <time>2021-03-04T09:56:39Z</time>
      </trkpt>
      <trkpt lat="48.81859" lon="-3.43215">
        <ele>13</ele>
        <time>2021-03-04T09:56:46Z</time>
      </trkpt>
      <trkpt lat="48.81864" lon="-3.43222">
        <ele>13</ele>
        <time>2021-03-04T09:56:47Z</time>
      </trkpt>
      <trkpt lat="48.81847" lon="-3.43352">
        <ele>21</ele>
        <time>2021-03-04T09:57:02Z</time>
      </trkpt>
      <trkpt lat="48.81857" lon="-3.43418">
        <ele>27</ele>
        <time>2021-03-04T09:57:10Z</time>
      </trkpt>
      <trkpt lat="48.81873" lon="-3.4346">
        <ele>30</ele>
        <time>2021-03-04T09:57:16Z</time>
      </trkpt>
      <trkpt lat="48.81899" lon="-3.4351">
        <ele>32</ele>
        <time>2021-03-04T09:57:23Z</time>
      </trkpt>
      <trkpt lat="48.81968" lon="-3.43616">
        <ele>29</ele>
        <time>2021-03-04T09:57:41Z</time>
      </trkpt>
      <trkpt lat="48.81978" lon="-3.43639">
        <ele>28</ele>
        <time>2021-03-04T09:57:44Z</time>
      </trkpt>
      <trkpt lat="48.81984" lon="-3.43662">
        <ele>28</ele>
        <time>2021-03-04T09:57:47Z</time>
      </trkpt>
      <trkpt lat="48.81982" lon="-3.43674">
        <ele>29</ele>
        <time>2021-03-04T09:57:48Z</time>
      </trkpt>
      <trkpt lat="48.81953" lon="-3.43747">
        <ele>36</ele>
        <time>2021-03-04T09:57:58Z</time>
      </trkpt>
      <trkpt lat="48.81947" lon="-3.43768">
        <ele>37</ele>
        <time>2021-03-04T09:58:01Z</time>
      </trkpt>
      <trkpt lat="48.81943" lon="-3.4379">
        <ele>38</ele>
        <time>2021-03-04T09:58:04Z</time>
      </trkpt>
      <trkpt lat="48.81942" lon="-3.43849">
        <ele>36</ele>
        <time>2021-03-04T09:58:11Z</time>
      </trkpt>
      <trkpt lat="48.81938" lon="-3.43868">
        <ele>38</ele>
        <time>2021-03-04T09:58:13Z</time>
      </trkpt>
      <trkpt lat="48.81931" lon="-3.43893">
        <ele>40</ele>
        <time>2021-03-04T09:58:16Z</time>
      </trkpt>
      <trkpt lat="48.81926" lon="-3.43955">
        <ele>43</ele>
        <time>2021-03-04T09:58:24Z</time>
      </trkpt>
      <trkpt lat="48.81931" lon="-3.44033">
        <ele>44</ele>
        <time>2021-03-04T09:58:33Z</time>
      </trkpt>
      <trkpt lat="48.8193" lon="-3.44044">
        <ele>44</ele>
        <time>2021-03-04T09:58:34Z</time>
      </trkpt>
      <trkpt lat="48.81931" lon="-3.4405">
        <ele>44</ele>
        <time>2021-03-04T09:58:35Z</time>
      </trkpt>
      <trkpt lat="48.81931" lon="-3.44066">
        <ele>44</ele>
        <time>2021-03-04T09:58:37Z</time>
      </trkpt>
      <trkpt lat="48.81929" lon="-3.44083">
        <ele>46</ele>
        <time>2021-03-04T09:58:39Z</time>
      </trkpt>
      <trkpt lat="48.81922" lon="-3.44105">
        <ele>47</ele>
        <time>2021-03-04T09:58:42Z</time>
      </trkpt>
      <trkpt lat="48.81913" lon="-3.44134">
        <ele>48</ele>
        <time>2021-03-04T09:58:45Z</time>
      </trkpt>
      <trkpt lat="48.81902" lon="-3.44163">
        <ele>48</ele>
        <time>2021-03-04T09:58:49Z</time>
      </trkpt>
      <trkpt lat="48.81875" lon="-3.4418">
        <ele>50</ele>
        <time>2021-03-04T09:58:54Z</time>
      </trkpt>
      <trkpt lat="48.8187" lon="-3.44183">
        <ele>51</ele>
        <time>2021-03-04T09:58:55Z</time>
      </trkpt>
      <trkpt lat="48.81856" lon="-3.44205">
        <ele>52</ele>
        <time>2021-03-04T09:58:59Z</time>
      </trkpt>
      <trkpt lat="48.81853" lon="-3.4421">
        <ele>52</ele>
        <time>2021-03-04T09:59:00Z</time>
      </trkpt>
      <trkpt lat="48.81836" lon="-3.44237">
        <ele>56</ele>
        <time>2021-03-04T09:59:04Z</time>
      </trkpt>
      <trkpt lat="48.81811" lon="-3.44296">
        <ele>53</ele>
        <time>2021-03-04T09:59:12Z</time>
      </trkpt>
      <trkpt lat="48.81801" lon="-3.44341">
        <ele>50</ele>
        <time>2021-03-04T09:59:18Z</time>
      </trkpt>
      <trkpt lat="48.81796" lon="-3.44421">
        <ele>45</ele>
        <time>2021-03-04T09:59:27Z</time>
      </trkpt>
      <trkpt lat="48.81785" lon="-3.44462">
        <ele>44</ele>
        <time>2021-03-04T09:59:33Z</time>
      </trkpt>
      <trkpt lat="48.81778" lon="-3.44471">
        <ele>45</ele>
        <time>2021-03-04T09:59:34Z</time>
      </trkpt>
      <trkpt lat="48.81771" lon="-3.44476">
        <ele>46</ele>
        <time>2021-03-04T09:59:36Z</time>
      </trkpt>
      <trkpt lat="48.81763" lon="-3.44482">
        <ele>48</ele>
        <time>2021-03-04T09:59:37Z</time>
      </trkpt>
      <trkpt lat="48.81742" lon="-3.44492">
        <ele>51</ele>
        <time>2021-03-04T09:59:41Z</time>
      </trkpt>
      <trkpt lat="48.81676" lon="-3.44513">
        <ele>49</ele>
        <time>2021-03-04T09:59:53Z</time>
      </trkpt>
      <trkpt lat="48.81664" lon="-3.44517">
        <ele>50</ele>
        <time>2021-03-04T09:59:55Z</time>
      </trkpt>
      <trkpt lat="48.81641" lon="-3.44572">
        <ele>48</ele>
        <time>2021-03-04T10:00:03Z</time>
      </trkpt>
      <trkpt lat="48.81619" lon="-3.44615">
        <ele>48</ele>
        <time>2021-03-04T10:00:09Z</time>
      </trkpt>
      <trkpt lat="48.81625" lon="-3.44622">
        <ele>47</ele>
        <time>2021-03-04T10:00:11Z</time>
      </trkpt>
      <trkpt lat="48.81632" lon="-3.44626">
        <ele>47</ele>
        <time>2021-03-04T10:00:12Z</time>
      </trkpt>
      <trkpt lat="48.81634" lon="-3.44667">
        <ele>45</ele>
        <time>2021-03-04T10:00:17Z</time>
      </trkpt>
      <trkpt lat="48.81632" lon="-3.44693">
        <ele>43</ele>
        <time>2021-03-04T10:00:20Z</time>
      </trkpt>
      <trkpt lat="48.81604" lon="-3.44769">
        <ele>45</ele>
        <time>2021-03-04T10:00:30Z</time>
      </trkpt>
      <trkpt lat="48.81599" lon="-3.44791">
        <ele>46</ele>
        <time>2021-03-04T10:00:33Z</time>
      </trkpt>
      <trkpt lat="48.81596" lon="-3.44807">
        <ele>46</ele>
        <time>2021-03-04T10:00:35Z</time>
      </trkpt>
      <trkpt lat="48.81603" lon="-3.44877">
        <ele>40</ele>
        <time>2021-03-04T10:00:43Z</time>
      </trkpt>
      <trkpt lat="48.816" lon="-3.44915">
        <ele>40</ele>
        <time>2021-03-04T10:00:47Z</time>
      </trkpt>
      <trkpt lat="48.81595" lon="-3.44938">
        <ele>38</ele>
        <time>2021-03-04T10:00:50Z</time>
      </trkpt>
      <trkpt lat="48.81553" lon="-3.45004">
        <ele>40</ele>
        <time>2021-03-04T10:01:01Z</time>
      </trkpt>
      <trkpt lat="48.81538" lon="-3.45044">
        <ele>36</ele>
        <time>2021-03-04T10:01:06Z</time>
      </trkpt>
      <trkpt lat="48.81524" lon="-3.45102">
        <ele>31</ele>
        <time>2021-03-04T10:01:14Z</time>
      </trkpt>
      <trkpt lat="48.81499" lon="-3.45253">
        <ele>28</ele>
        <time>2021-03-04T10:01:32Z</time>
      </trkpt>
      <trkpt lat="48.81487" lon="-3.45368">
        <ele>25</ele>
        <time>2021-03-04T10:01:46Z</time>
      </trkpt>
      <trkpt lat="48.81485" lon="-3.45397">
        <ele>24</ele>
        <time>2021-03-04T10:01:49Z</time>
      </trkpt>
      <trkpt lat="48.81486" lon="-3.45404">
        <ele>23</ele>
        <time>2021-03-04T10:01:50Z</time>
      </trkpt>
      <trkpt lat="48.81485" lon="-3.45451">
        <ele>21</ele>
        <time>2021-03-04T10:01:55Z</time>
      </trkpt>
      <trkpt lat="48.81489" lon="-3.45473">
        <ele>19</ele>
        <time>2021-03-04T10:01:58Z</time>
      </trkpt>
      <trkpt lat="48.81488" lon="-3.45477">
        <ele>19</ele>
        <time>2021-03-04T10:01:58Z</time>
      </trkpt>
      <trkpt lat="48.81488" lon="-3.4549">
        <ele>19</ele>
        <time>2021-03-04T10:02:00Z</time>
      </trkpt>
      <trkpt lat="48.81526" lon="-3.45618">
        <ele>10</ele>
        <time>2021-03-04T10:02:16Z</time>
      </trkpt>
      <trkpt lat="48.81531" lon="-3.45639">
        <ele>10</ele>
        <time>2021-03-04T10:02:19Z</time>
      </trkpt>
      <trkpt lat="48.8155" lon="-3.45704">
        <ele>8</ele>
        <time>2021-03-04T10:02:27Z</time>
      </trkpt>
      <trkpt lat="48.81588" lon="-3.45821">
        <ele>8</ele>
        <time>2021-03-04T10:02:43Z</time>
      </trkpt>
      <trkpt lat="48.8149" lon="-3.45889">
        <ele>10</ele>
        <time>2021-03-04T10:03:02Z</time>
      </trkpt>
      <trkpt lat="48.81474" lon="-3.45899">
        <ele>11</ele>
        <time>2021-03-04T10:03:05Z</time>
      </trkpt>
      <trkpt lat="48.8145" lon="-3.45916">
        <ele>11</ele>
        <time>2021-03-04T10:03:10Z</time>
      </trkpt>
      <trkpt lat="48.81443" lon="-3.45921">
        <ele>11</ele>
        <time>2021-03-04T10:03:11Z</time>
      </trkpt>
      <trkpt lat="48.81436" lon="-3.45928">
        <ele>11</ele>
        <time>2021-03-04T10:03:13Z</time>
      </trkpt>
      <trkpt lat="48.81431" lon="-3.4594">
        <ele>11</ele>
        <time>2021-03-04T10:03:14Z</time>
      </trkpt>
      <trkpt lat="48.81421" lon="-3.4596">
        <ele>10</ele>
        <time>2021-03-04T10:03:17Z</time>
      </trkpt>
      <trkpt lat="48.81419" lon="-3.45971">
        <ele>10</ele>
        <time>2021-03-04T10:03:18Z</time>
      </trkpt>
      <trkpt lat="48.81412" lon="-3.45997">
        <ele>10</ele>
        <time>2021-03-04T10:03:22Z</time>
      </trkpt>
      <trkpt lat="48.81405" lon="-3.46019">
        <ele>11</ele>
        <time>2021-03-04T10:03:25Z</time>
      </trkpt>
      <trkpt lat="48.814" lon="-3.46029">
        <ele>12</ele>
        <time>2021-03-04T10:03:26Z</time>
      </trkpt>
      <trkpt lat="48.81393" lon="-3.4604">
        <ele>12</ele>
        <time>2021-03-04T10:03:28Z</time>
      </trkpt>
      <trkpt lat="48.8137" lon="-3.46069">
        <ele>14</ele>
        <time>2021-03-04T10:03:33Z</time>
      </trkpt>
      <trkpt lat="48.81363" lon="-3.46076">
        <ele>15</ele>
        <time>2021-03-04T10:03:35Z</time>
      </trkpt>
      <trkpt lat="48.81352" lon="-3.46088">
        <ele>16</ele>
        <time>2021-03-04T10:03:37Z</time>
      </trkpt>
      <trkpt lat="48.81245" lon="-3.46169">
        <ele>32</ele>
        <time>2021-03-04T10:03:58Z</time>
      </trkpt>
      <trkpt lat="48.81183" lon="-3.46219">
        <ele>40</ele>
        <time>2021-03-04T10:04:11Z</time>
      </trkpt>
      <trkpt lat="48.81174" lon="-3.46226">
        <ele>41</ele>
        <time>2021-03-04T10:04:13Z</time>
      </trkpt>
      <trkpt lat="48.81158" lon="-3.46233">
        <ele>42</ele>
        <time>2021-03-04T10:04:16Z</time>
      </trkpt>
      <trkpt lat="48.81086" lon="-3.46242">
        <ele>45</ele>
        <time>2021-03-04T10:04:28Z</time>
      </trkpt>
      <trkpt lat="48.81055" lon="-3.46246">
        <ele>46</ele>
        <time>2021-03-04T10:04:34Z</time>
      </trkpt>
      <trkpt lat="48.8105" lon="-3.4625">
        <ele>45</ele>
        <time>2021-03-04T10:04:35Z</time>
      </trkpt>
      <trkpt lat="48.81044" lon="-3.46252">
        <ele>46</ele>
        <time>2021-03-04T10:04:36Z</time>
      </trkpt>
      <trkpt lat="48.81033" lon="-3.46254">
        <ele>46</ele>
        <time>2021-03-04T10:04:38Z</time>
      </trkpt>
      <trkpt lat="48.81026" lon="-3.46251">
        <ele>46</ele>
        <time>2021-03-04T10:04:39Z</time>
      </trkpt>
      <trkpt lat="48.80954" lon="-3.46277">
        <ele>51</ele>
        <time>2021-03-04T10:04:53Z</time>
      </trkpt>
      <trkpt lat="48.80907" lon="-3.46291">
        <ele>54</ele>
        <time>2021-03-04T10:05:01Z</time>
      </trkpt>
      <trkpt lat="48.80886" lon="-3.4629">
        <ele>55</ele>
        <time>2021-03-04T10:05:05Z</time>
      </trkpt>
      <trkpt lat="48.80846" lon="-3.46282">
        <ele>57</ele>
        <time>2021-03-04T10:05:12Z</time>
      </trkpt>
      <trkpt lat="48.80809" lon="-3.46284">
        <ele>59</ele>
        <time>2021-03-04T10:05:19Z</time>
      </trkpt>
      <trkpt lat="48.80764" lon="-3.46305">
        <ele>60</ele>
        <time>2021-03-04T10:05:27Z</time>
      </trkpt>
      <trkpt lat="48.80733" lon="-3.46332">
        <ele>61</ele>
        <time>2021-03-04T10:05:33Z</time>
      </trkpt>
      <trkpt lat="48.80702" lon="-3.46363">
        <ele>64</ele>
        <time>2021-03-04T10:05:40Z</time>
      </trkpt>
      <trkpt lat="48.80687" lon="-3.46382">
        <ele>66</ele>
        <time>2021-03-04T10:05:43Z</time>
      </trkpt>
      <trkpt lat="48.8068" lon="-3.46409">
        <ele>66</ele>
        <time>2021-03-04T10:05:47Z</time>
      </trkpt>
      <trkpt lat="48.80674" lon="-3.46461">
        <ele>68</ele>
        <time>2021-03-04T10:05:53Z</time>
      </trkpt>
      <trkpt lat="48.80675" lon="-3.46506">
        <ele>69</ele>
        <time>2021-03-04T10:05:58Z</time>
      </trkpt>
      <trkpt lat="48.80681" lon="-3.46539">
        <ele>70</ele>
        <time>2021-03-04T10:06:02Z</time>
      </trkpt>
      <trkpt lat="48.80719" lon="-3.4653">
        <ele>71</ele>
        <time>2021-03-04T10:06:09Z</time>
      </trkpt>
      <trkpt lat="48.80759" lon="-3.46525">
        <ele>71</ele>
        <time>2021-03-04T10:06:16Z</time>
      </trkpt>
      <trkpt lat="48.80811" lon="-3.46515">
        <ele>70</ele>
        <time>2021-03-04T10:06:26Z</time>
      </trkpt>
      <trkpt lat="48.80857" lon="-3.4651">
        <ele>70</ele>
        <time>2021-03-04T10:06:34Z</time>
      </trkpt>
      <trkpt lat="48.80899" lon="-3.46502">
        <ele>69</ele>
        <time>2021-03-04T10:06:41Z</time>
      </trkpt>
      <trkpt lat="48.80964" lon="-3.46483">
        <ele>68</ele>
        <time>2021-03-04T10:06:53Z</time>
      </trkpt>
      <trkpt lat="48.80993" lon="-3.46478">
        <ele>68</ele>
        <time>2021-03-04T10:06:58Z</time>
      </trkpt>
      <trkpt lat="48.81012" lon="-3.4649">
        <ele>69</ele>
        <time>2021-03-04T10:07:02Z</time>
      </trkpt>
      <trkpt lat="48.81062" lon="-3.46556">
        <ele>74</ele>
        <time>2021-03-04T10:07:14Z</time>
      </trkpt>
      <trkpt lat="48.81095" lon="-3.46573">
        <ele>75</ele>
        <time>2021-03-04T10:07:20Z</time>
      </trkpt>
      <trkpt lat="48.8114" lon="-3.46586">
        <ele>76</ele>
        <time>2021-03-04T10:07:28Z</time>
      </trkpt>
      <trkpt lat="48.81159" lon="-3.46588">
        <ele>76</ele>
        <time>2021-03-04T10:07:31Z</time>
      </trkpt>
      <trkpt lat="48.81175" lon="-3.46597">
        <ele>75</ele>
        <time>2021-03-04T10:07:35Z</time>
      </trkpt>
      <trkpt lat="48.81216" lon="-3.46635">
        <ele>73</ele>
        <time>2021-03-04T10:07:43Z</time>
      </trkpt>
      <trkpt lat="48.81251" lon="-3.46675">
        <ele>71</ele>
        <time>2021-03-04T10:07:51Z</time>
      </trkpt>
      <trkpt lat="48.8128" lon="-3.46702">
        <ele>68</ele>
        <time>2021-03-04T10:07:57Z</time>
      </trkpt>
      <trkpt lat="48.81299" lon="-3.46725">
        <ele>67</ele>
        <time>2021-03-04T10:08:01Z</time>
      </trkpt>
      <trkpt lat="48.81311" lon="-3.46746">
        <ele>66</ele>
        <time>2021-03-04T10:08:04Z</time>
      </trkpt>
      <trkpt lat="48.81315" lon="-3.46761">
        <ele>66</ele>
        <time>2021-03-04T10:08:06Z</time>
      </trkpt>
      <trkpt lat="48.81321" lon="-3.46801">
        <ele>65</ele>
        <time>2021-03-04T10:08:11Z</time>
      </trkpt>
      <trkpt lat="48.81333" lon="-3.46841">
        <ele>64</ele>
        <time>2021-03-04T10:08:16Z</time>
      </trkpt>
      <trkpt lat="48.81349" lon="-3.46873">
        <ele>64</ele>
        <time>2021-03-04T10:08:21Z</time>
      </trkpt>
      <trkpt lat="48.8136" lon="-3.46874">
        <ele>64</ele>
        <time>2021-03-04T10:08:23Z</time>
      </trkpt>
      <trkpt lat="48.81413" lon="-3.46868">
        <ele>62</ele>
        <time>2021-03-04T10:08:32Z</time>
      </trkpt>
      <trkpt lat="48.81446" lon="-3.4688">
        <ele>63</ele>
        <time>2021-03-04T10:08:39Z</time>
      </trkpt>
      <trkpt lat="48.81456" lon="-3.46889">
        <ele>63</ele>
        <time>2021-03-04T10:08:41Z</time>
      </trkpt>
      <trkpt lat="48.81473" lon="-3.46926">
        <ele>65</ele>
        <time>2021-03-04T10:08:46Z</time>
      </trkpt>
      <trkpt lat="48.8154" lon="-3.47102">
        <ele>67</ele>
        <time>2021-03-04T10:09:10Z</time>
      </trkpt>
      <trkpt lat="48.81552" lon="-3.47127">
        <ele>68</ele>
        <time>2021-03-04T10:09:13Z</time>
      </trkpt>
      <trkpt lat="48.81562" lon="-3.47138">
        <ele>68</ele>
        <time>2021-03-04T10:09:15Z</time>
      </trkpt>
      <trkpt lat="48.81618" lon="-3.47188">
        <ele>68</ele>
        <time>2021-03-04T10:09:27Z</time>
      </trkpt>
      <trkpt lat="48.81667" lon="-3.4722">
        <ele>68</ele>
        <time>2021-03-04T10:09:37Z</time>
      </trkpt>
      <trkpt lat="48.8167" lon="-3.47225">
        <ele>68</ele>
        <time>2021-03-04T10:09:37Z</time>
      </trkpt>
      <trkpt lat="48.81672" lon="-3.4725">
        <ele>69</ele>
        <time>2021-03-04T10:09:40Z</time>
      </trkpt>
      <trkpt lat="48.81669" lon="-3.47278">
        <ele>67</ele>
        <time>2021-03-04T10:09:44Z</time>
      </trkpt>
      <trkpt lat="48.81678" lon="-3.47296">
        <ele>66</ele>
        <time>2021-03-04T10:09:46Z</time>
      </trkpt>
      <trkpt lat="48.81689" lon="-3.47314">
        <ele>64</ele>
        <time>2021-03-04T10:09:49Z</time>
      </trkpt>
      <trkpt lat="48.81697" lon="-3.47323">
        <ele>64</ele>
        <time>2021-03-04T10:09:51Z</time>
      </trkpt>
      <trkpt lat="48.81716" lon="-3.47336">
        <ele>63</ele>
        <time>2021-03-04T10:09:55Z</time>
      </trkpt>
      <trkpt lat="48.81741" lon="-3.47349">
        <ele>61</ele>
        <time>2021-03-04T10:09:59Z</time>
      </trkpt>
      <trkpt lat="48.81782" lon="-3.47366">
        <ele>59</ele>
        <time>2021-03-04T10:10:07Z</time>
      </trkpt>
      <trkpt lat="48.81796" lon="-3.47376">
        <ele>58</ele>
        <time>2021-03-04T10:10:10Z</time>
      </trkpt>
      <trkpt lat="48.81812" lon="-3.4738">
        <ele>58</ele>
        <time>2021-03-04T10:10:13Z</time>
      </trkpt>
      <trkpt lat="48.81824" lon="-3.47378">
        <ele>57</ele>
        <time>2021-03-04T10:10:15Z</time>
      </trkpt>
      <trkpt lat="48.8183" lon="-3.47373">
        <ele>58</ele>
        <time>2021-03-04T10:10:16Z</time>
      </trkpt>
      <trkpt lat="48.8185" lon="-3.47394">
        <ele>56</ele>
        <time>2021-03-04T10:10:20Z</time>
      </trkpt>
      <trkpt lat="48.81858" lon="-3.47401">
        <ele>56</ele>
        <time>2021-03-04T10:10:22Z</time>
      </trkpt>
      <trkpt lat="48.81895" lon="-3.47412">
        <ele>55</ele>
        <time>2021-03-04T10:10:29Z</time>
      </trkpt>
      <trkpt lat="48.81933" lon="-3.47429">
        <ele>54</ele>
        <time>2021-03-04T10:10:36Z</time>
      </trkpt>
      <trkpt lat="48.81955" lon="-3.47445">
        <ele>52</ele>
        <time>2021-03-04T10:10:40Z</time>
      </trkpt>
      <trkpt lat="48.81969" lon="-3.4747">
        <ele>49</ele>
        <time>2021-03-04T10:10:44Z</time>
      </trkpt>
      <trkpt lat="48.81976" lon="-3.47486">
        <ele>47</ele>
        <time>2021-03-04T10:10:46Z</time>
      </trkpt>
      <trkpt lat="48.82006" lon="-3.47571">
        <ele>42</ele>
        <time>2021-03-04T10:10:57Z</time>
      </trkpt>
      <trkpt lat="48.82017" lon="-3.47595">
        <ele>41</ele>
        <time>2021-03-04T10:11:01Z</time>
      </trkpt>
      <trkpt lat="48.82035" lon="-3.4762">
        <ele>40</ele>
        <time>2021-03-04T10:11:05Z</time>
      </trkpt>
      <trkpt lat="48.82044" lon="-3.47628">
        <ele>40</ele>
        <time>2021-03-04T10:11:07Z</time>
      </trkpt>
      <trkpt lat="48.82152" lon="-3.47681">
        <ele>36</ele>
        <time>2021-03-04T10:11:27Z</time>
      </trkpt>
      <trkpt lat="48.82226" lon="-3.47764">
        <ele>32</ele>
        <time>2021-03-04T10:11:44Z</time>
      </trkpt>
      <trkpt lat="48.82338" lon="-3.47885">
        <ele>25</ele>
        <time>2021-03-04T10:12:08Z</time>
      </trkpt>
      <trkpt lat="48.82391" lon="-3.47954">
        <ele>21</ele>
        <time>2021-03-04T10:12:20Z</time>
      </trkpt>
      <trkpt lat="48.82424" lon="-3.47993">
        <ele>20</ele>
        <time>2021-03-04T10:12:28Z</time>
      </trkpt>
      <trkpt lat="48.82435" lon="-3.48005">
        <ele>20</ele>
        <time>2021-03-04T10:12:30Z</time>
      </trkpt>
      <trkpt lat="48.82466" lon="-3.48032">
        <ele>21</ele>
        <time>2021-03-04T10:12:37Z</time>
      </trkpt>
      <trkpt lat="48.82581" lon="-3.48126">
        <ele>18</ele>
        <time>2021-03-04T10:13:00Z</time>
      </trkpt>
      <trkpt lat="48.82593" lon="-3.48137">
        <ele>18</ele>
        <time>2021-03-04T10:13:02Z</time>
      </trkpt>
      <trkpt lat="48.82639" lon="-3.48197">
        <ele>16</ele>
        <time>2021-03-04T10:13:13Z</time>
      </trkpt>
      <trkpt lat="48.82652" lon="-3.48213">
        <ele>16</ele>
        <time>2021-03-04T10:13:16Z</time>
      </trkpt>
      <trkpt lat="48.82707" lon="-3.48263">
        <ele>17</ele>
        <time>2021-03-04T10:13:28Z</time>
      </trkpt>
      <trkpt lat="48.82734" lon="-3.48304">
        <ele>17</ele>
        <time>2021-03-04T10:13:34Z</time>
      </trkpt>
      <trkpt lat="48.82745" lon="-3.48316">
        <ele>17</ele>
        <time>2021-03-04T10:13:37Z</time>
      </trkpt>
      <trkpt lat="48.82771" lon="-3.4834">
        <ele>16</ele>
        <time>2021-03-04T10:13:42Z</time>
      </trkpt>
      <trkpt lat="48.82781" lon="-3.48347">
        <ele>15</ele>
        <time>2021-03-04T10:13:44Z</time>
      </trkpt>
      <trkpt lat="48.82839" lon="-3.48374">
        <ele>12</ele>
        <time>2021-03-04T10:13:55Z</time>
      </trkpt>
      <trkpt lat="48.82889" lon="-3.48403">
        <ele>9</ele>
        <time>2021-03-04T10:14:04Z</time>
      </trkpt>
      <trkpt lat="48.82908" lon="-3.48411">
        <ele>8</ele>
        <time>2021-03-04T10:14:08Z</time>
      </trkpt>
      <trkpt lat="48.82934" lon="-3.48416">
        <ele>9</ele>
        <time>2021-03-04T10:14:13Z</time>
      </trkpt>
      <trkpt lat="48.82961" lon="-3.48425">
        <ele>10</ele>
        <time>2021-03-04T10:14:17Z</time>
      </trkpt>
      <trkpt lat="48.83022" lon="-3.48458">
        <ele>10</ele>
        <time>2021-03-04T10:14:29Z</time>
      </trkpt>
      <trkpt lat="48.83061" lon="-3.48471">
        <ele>10</ele>
        <time>2021-03-04T10:14:36Z</time>
      </trkpt>
      <trkpt lat="48.83076" lon="-3.48484">
        <ele>10</ele>
        <time>2021-03-04T10:14:39Z</time>
      </trkpt>
      <trkpt lat="48.83076" lon="-3.48499">
        <ele>10</ele>
        <time>2021-03-04T10:14:41Z</time>
      </trkpt>
      <trkpt lat="48.83077" lon="-3.48511">
        <ele>10</ele>
        <time>2021-03-04T10:14:42Z</time>
      </trkpt>
      <trkpt lat="48.83082" lon="-3.48519">
        <ele>10</ele>
        <time>2021-03-04T10:14:44Z</time>
      </trkpt>
      <trkpt lat="48.83089" lon="-3.48527">
        <ele>10</ele>
        <time>2021-03-04T10:14:45Z</time>
      </trkpt>
      <trkpt lat="48.83093" lon="-3.48533">
        <ele>10</ele>
        <time>2021-03-04T10:14:46Z</time>
      </trkpt>
      <trkpt lat="48.83101" lon="-3.48585">
        <ele>10</ele>
        <time>2021-03-04T10:14:52Z</time>
      </trkpt>
      <trkpt lat="48.83101" lon="-3.48589">
        <ele>9</ele>
        <time>2021-03-04T10:14:53Z</time>
      </trkpt>
      <trkpt lat="48.83102" lon="-3.48593">
        <ele>9</ele>
        <time>2021-03-04T10:14:53Z</time>
      </trkpt>
      <trkpt lat="48.83104" lon="-3.48598">
        <ele>9</ele>
        <time>2021-03-04T10:14:54Z</time>
      </trkpt>
      <trkpt lat="48.83119" lon="-3.48609">
        <ele>9</ele>
        <time>2021-03-04T10:14:57Z</time>
      </trkpt>
      <trkpt lat="48.83127" lon="-3.48614">
        <ele>9</ele>
        <time>2021-03-04T10:14:59Z</time>
      </trkpt>
      <trkpt lat="48.83139" lon="-3.48617">
        <ele>8</ele>
        <time>2021-03-04T10:15:01Z</time>
      </trkpt>
      <trkpt lat="48.83146" lon="-3.48615">
        <ele>8</ele>
        <time>2021-03-04T10:15:02Z</time>
      </trkpt>
      <trkpt lat="48.83159" lon="-3.48612">
        <ele>8</ele>
        <time>2021-03-04T10:15:04Z</time>
      </trkpt>
      <trkpt lat="48.83183" lon="-3.48608">
        <ele>8</ele>
        <time>2021-03-04T10:15:09Z</time>
      </trkpt>
      <trkpt lat="48.83194" lon="-3.48609">
        <ele>7</ele>
        <time>2021-03-04T10:15:11Z</time>
      </trkpt>
      <trkpt lat="48.83201" lon="-3.4861">
        <ele>7</ele>
        <time>2021-03-04T10:15:12Z</time>
      </trkpt>
      <trkpt lat="48.83208" lon="-3.4861">
        <ele>7</ele>
        <time>2021-03-04T10:15:13Z</time>
      </trkpt>
      <trkpt lat="48.8322" lon="-3.4857">
        <ele>8</ele>
        <time>2021-03-04T10:15:18Z</time>
      </trkpt>
      <trkpt lat="48.8322" lon="-3.4856">
        <ele>8</ele>
        <time>2021-03-04T10:15:19Z</time>
      </trkpt>
      <trkpt lat="48.83216" lon="-3.48551">
        <ele>8</ele>
        <time>2021-03-04T10:15:21Z</time>
      </trkpt>
      <trkpt lat="48.83191" lon="-3.48509">
        <ele>9</ele>
        <time>2021-03-04T10:15:27Z</time>
      </trkpt>
      <trkpt lat="48.83175" lon="-3.48512">
        <ele>9</ele>
        <time>2021-03-04T10:15:30Z</time>
      </trkpt>
      <trkpt lat="48.83173" lon="-3.48513">
        <ele>9</ele>
        <time>2021-03-04T10:15:31Z</time>
      </trkpt>
    </trkseg>
  </trk>
</gpx>